<?xml version="1.0" encoding="UTF-8"?>
<gpx version="1.1" creator="https://www.youtrack.es" xsi:schemaLocation="http://www.topografix.com/GPX/1/1 http://www.topografix.com/GPX/1/1/gpx.xsd http://www.garmin.com/xmlschemas/GpxExtensions/v3 http://www.garmin.com/xmlschemas/GpxExtensionsv3.xsd http://www.garmin.com/xmlschemas/TrackPointExtension/v1 http://www.garmin.com/xmlschemas/TrackPointExtensionv1.xsd" xmlns:gpxtpx="http://www.garmin.com/xmlschemas/TrackPointExtension/v1" xmlns:gpxx="http://www.garmin.com/xmlschemas/GpxExtensions/v3" xmlns:xsi="http://www.w3.org/2001/XMLSchema-instance">
  <metadata>
    <link href="https://www.youtrack.es">
      <text>YouTrack.es</text>
    </link>
    <time>2026-05-08T06:19:12Z</time>
  </metadata>
  <trk>
    <src>https://www.youtrack.es</src>
    <link href="https://www.youtrack.es/ruta/23634-vuelta-iberica-cat">
      <text>YouTrack.es</text>
    </link>
    <trkseg>
      <trkpt lat="40.478430" lon="0.476590">
        <ele>12.067</ele>
        <time>2021-07-08T07:34:37Z</time>
      </trkpt>
      <trkpt lat="40.478280" lon="0.476930">
        <ele>11.581</ele>
        <time>2021-07-08T07:34:57Z</time>
      </trkpt>
      <trkpt lat="40.479130" lon="0.477330">
        <ele>7.619</ele>
        <time>2021-07-08T07:35:17Z</time>
      </trkpt>
      <trkpt lat="40.477480" lon="0.480110">
        <ele>6.308</ele>
        <time>2021-07-08T07:35:37Z</time>
      </trkpt>
      <trkpt lat="40.480610" lon="0.482160">
        <ele>8.843</ele>
        <time>2021-07-08T07:35:57Z</time>
      </trkpt>
      <trkpt lat="40.481680" lon="0.483270">
        <ele>7.072</ele>
        <time>2021-07-08T07:36:17Z</time>
      </trkpt>
      <trkpt lat="40.482470" lon="0.483600">
        <ele>8.956</ele>
        <time>2021-07-08T07:36:37Z</time>
      </trkpt>
      <trkpt lat="40.483890" lon="0.486320">
        <ele>9.090</ele>
        <time>2021-07-08T07:36:57Z</time>
      </trkpt>
      <trkpt lat="40.484420" lon="0.487630">
        <ele>5.562</ele>
        <time>2021-07-08T07:37:17Z</time>
      </trkpt>
      <trkpt lat="40.485460" lon="0.488440">
        <ele>3.973</ele>
        <time>2021-07-08T07:37:37Z</time>
      </trkpt>
      <trkpt lat="40.485960" lon="0.489350">
        <ele>5.778</ele>
        <time>2021-07-08T07:37:57Z</time>
      </trkpt>
      <trkpt lat="40.486710" lon="0.489850">
        <ele>4.297</ele>
        <time>2021-07-08T07:38:17Z</time>
      </trkpt>
      <trkpt lat="40.487940" lon="0.490180">
        <ele>5.766</ele>
        <time>2021-07-08T07:38:37Z</time>
      </trkpt>
      <trkpt lat="40.489080" lon="0.490830">
        <ele>6.029</ele>
        <time>2021-07-08T07:38:57Z</time>
      </trkpt>
      <trkpt lat="40.490080" lon="0.492090">
        <ele>7.421</ele>
        <time>2021-07-08T07:39:17Z</time>
      </trkpt>
      <trkpt lat="40.491480" lon="0.493300">
        <ele>8.908</ele>
        <time>2021-07-08T07:39:37Z</time>
      </trkpt>
      <trkpt lat="40.491940" lon="0.493910">
        <ele>8.963</ele>
        <time>2021-07-08T07:39:57Z</time>
      </trkpt>
      <trkpt lat="40.493010" lon="0.494450">
        <ele>8.932</ele>
        <time>2021-07-08T07:40:17Z</time>
      </trkpt>
      <trkpt lat="40.493870" lon="0.495180">
        <ele>10.476</ele>
        <time>2021-07-08T07:40:37Z</time>
      </trkpt>
      <trkpt lat="40.495470" lon="0.496060">
        <ele>11.390</ele>
        <time>2021-07-08T07:40:57Z</time>
      </trkpt>
      <trkpt lat="40.497420" lon="0.497600">
        <ele>10.662</ele>
        <time>2021-07-08T07:41:17Z</time>
      </trkpt>
      <trkpt lat="40.499560" lon="0.499050">
        <ele>8.243</ele>
        <time>2021-07-08T07:41:37Z</time>
      </trkpt>
      <trkpt lat="40.500940" lon="0.500970">
        <ele>8.778</ele>
        <time>2021-07-08T07:41:57Z</time>
      </trkpt>
      <trkpt lat="40.505420" lon="0.504330">
        <ele>11.687</ele>
        <time>2021-07-08T07:42:17Z</time>
      </trkpt>
      <trkpt lat="40.505900" lon="0.504640">
        <ele>10.251</ele>
        <time>2021-07-08T07:42:37Z</time>
      </trkpt>
      <trkpt lat="40.507510" lon="0.504910">
        <ele>11.301</ele>
        <time>2021-07-08T07:42:57Z</time>
      </trkpt>
      <trkpt lat="40.508210" lon="0.505240">
        <ele>8.411</ele>
        <time>2021-07-08T07:43:17Z</time>
      </trkpt>
      <trkpt lat="40.509850" lon="0.506500">
        <ele>8.208</ele>
        <time>2021-07-08T07:43:37Z</time>
      </trkpt>
      <trkpt lat="40.513740" lon="0.508870">
        <ele>10.642</ele>
        <time>2021-07-08T07:43:57Z</time>
      </trkpt>
      <trkpt lat="40.513980" lon="0.508790">
        <ele>10.621</ele>
        <time>2021-07-08T07:44:17Z</time>
      </trkpt>
      <trkpt lat="40.514400" lon="0.508180">
        <ele>10.295</ele>
        <time>2021-07-08T07:44:37Z</time>
      </trkpt>
      <trkpt lat="40.516110" lon="0.505070">
        <ele>13.099</ele>
        <time>2021-07-08T07:44:57Z</time>
      </trkpt>
      <trkpt lat="40.517070" lon="0.504770">
        <ele>11.531</ele>
        <time>2021-07-08T07:45:17Z</time>
      </trkpt>
      <trkpt lat="40.517320" lon="0.504910">
        <ele>12.272</ele>
        <time>2021-07-08T07:45:37Z</time>
      </trkpt>
      <trkpt lat="40.517590" lon="0.504840">
        <ele>12.667</ele>
        <time>2021-07-08T07:45:57Z</time>
      </trkpt>
      <trkpt lat="40.517810" lon="0.504450">
        <ele>12.396</ele>
        <time>2021-07-08T07:46:17Z</time>
      </trkpt>
      <trkpt lat="40.517730" lon="0.503940">
        <ele>12.056</ele>
        <time>2021-07-08T07:46:37Z</time>
      </trkpt>
      <trkpt lat="40.518380" lon="0.503320">
        <ele>14.859</ele>
        <time>2021-07-08T07:46:57Z</time>
      </trkpt>
      <trkpt lat="40.518920" lon="0.503090">
        <ele>15.114</ele>
        <time>2021-07-08T07:47:17Z</time>
      </trkpt>
      <trkpt lat="40.519310" lon="0.503130">
        <ele>15.408</ele>
        <time>2021-07-08T07:47:37Z</time>
      </trkpt>
      <trkpt lat="40.519980" lon="0.503480">
        <ele>14.582</ele>
        <time>2021-07-08T07:47:57Z</time>
      </trkpt>
      <trkpt lat="40.521240" lon="0.504510">
        <ele>16.991</ele>
        <time>2021-07-08T07:48:17Z</time>
      </trkpt>
      <trkpt lat="40.523090" lon="0.505440">
        <ele>17.545</ele>
        <time>2021-07-08T07:48:37Z</time>
      </trkpt>
      <trkpt lat="40.528000" lon="0.506260">
        <ele>18.099</ele>
        <time>2021-07-08T07:48:57Z</time>
      </trkpt>
      <trkpt lat="40.526060" lon="0.508380">
        <ele>15.051</ele>
        <time>2021-07-08T07:49:17Z</time>
      </trkpt>
      <trkpt lat="40.525870" lon="0.508260">
        <ele>13.922</ele>
        <time>2021-07-08T07:49:37Z</time>
      </trkpt>
      <trkpt lat="40.524350" lon="0.509870">
        <ele>7.847</ele>
        <time>2021-07-08T07:49:57Z</time>
      </trkpt>
      <trkpt lat="40.524110" lon="0.511360">
        <ele>8.696</ele>
        <time>2021-07-08T07:50:17Z</time>
      </trkpt>
      <trkpt lat="40.524130" lon="0.512060">
        <ele>8.287</ele>
        <time>2021-07-08T07:50:37Z</time>
      </trkpt>
      <trkpt lat="40.523500" lon="0.514080">
        <ele>3.242</ele>
        <time>2021-07-08T07:50:57Z</time>
      </trkpt>
      <trkpt lat="40.523610" lon="0.514480">
        <ele>4.026</ele>
        <time>2021-07-08T07:51:17Z</time>
      </trkpt>
      <trkpt lat="40.525490" lon="0.514670">
        <ele>7.008</ele>
        <time>2021-07-08T07:51:37Z</time>
      </trkpt>
      <trkpt lat="40.526920" lon="0.515490">
        <ele>6.115</ele>
        <time>2021-07-08T07:51:57Z</time>
      </trkpt>
      <trkpt lat="40.527230" lon="0.515970">
        <ele>8.074</ele>
        <time>2021-07-08T07:52:17Z</time>
      </trkpt>
      <trkpt lat="40.527580" lon="0.516200">
        <ele>7.688</ele>
        <time>2021-07-08T07:52:37Z</time>
      </trkpt>
      <trkpt lat="40.528440" lon="0.516190">
        <ele>8.152</ele>
        <time>2021-07-08T07:52:57Z</time>
      </trkpt>
      <trkpt lat="40.529250" lon="0.516390">
        <ele>8.084</ele>
        <time>2021-07-08T07:53:17Z</time>
      </trkpt>
      <trkpt lat="40.531470" lon="0.517280">
        <ele>2.735</ele>
        <time>2021-07-08T07:53:37Z</time>
      </trkpt>
      <trkpt lat="40.532070" lon="0.517310">
        <ele>6.720</ele>
        <time>2021-07-08T07:53:57Z</time>
      </trkpt>
      <trkpt lat="40.534100" lon="0.518520">
        <ele>7.329</ele>
        <time>2021-07-08T07:54:17Z</time>
      </trkpt>
      <trkpt lat="40.535270" lon="0.518940">
        <ele>6.018</ele>
        <time>2021-07-08T07:54:37Z</time>
      </trkpt>
      <trkpt lat="40.539060" lon="0.521770">
        <ele>1.098</ele>
        <time>2021-07-08T07:54:57Z</time>
      </trkpt>
      <trkpt lat="40.540060" lon="0.521990">
        <ele>1.617</ele>
        <time>2021-07-08T07:55:17Z</time>
      </trkpt>
      <trkpt lat="40.540480" lon="0.521570">
        <ele>-0.408</ele>
        <time>2021-07-08T07:55:37Z</time>
      </trkpt>
      <trkpt lat="40.541430" lon="0.521390">
        <ele>2.078</ele>
        <time>2021-07-08T07:55:57Z</time>
      </trkpt>
      <trkpt lat="40.542790" lon="0.521760">
        <ele>1.987</ele>
        <time>2021-07-08T07:56:17Z</time>
      </trkpt>
      <trkpt lat="40.547010" lon="0.524990">
        <ele>3.071</ele>
        <time>2021-07-08T07:56:37Z</time>
      </trkpt>
      <trkpt lat="40.550190" lon="0.528970">
        <ele>7.335</ele>
        <time>2021-07-08T07:56:57Z</time>
      </trkpt>
      <trkpt lat="40.552270" lon="0.530390">
        <ele>5.627</ele>
        <time>2021-07-08T07:57:17Z</time>
      </trkpt>
      <trkpt lat="40.553610" lon="0.532000">
        <ele>5.438</ele>
        <time>2021-07-08T07:57:37Z</time>
      </trkpt>
      <trkpt lat="40.554810" lon="0.532770">
        <ele>3.123</ele>
        <time>2021-07-08T07:57:57Z</time>
      </trkpt>
      <trkpt lat="40.555390" lon="0.531780">
        <ele>6.292</ele>
        <time>2021-07-08T07:58:17Z</time>
      </trkpt>
      <trkpt lat="40.555660" lon="0.532060">
        <ele>5.852</ele>
        <time>2021-07-08T07:58:37Z</time>
      </trkpt>
      <trkpt lat="40.558040" lon="0.529350">
        <ele>13.353</ele>
        <time>2021-07-08T07:58:57Z</time>
      </trkpt>
      <trkpt lat="40.558300" lon="0.529380">
        <ele>13.208</ele>
        <time>2021-07-08T07:59:17Z</time>
      </trkpt>
      <trkpt lat="40.558670" lon="0.530110">
        <ele>11.708</ele>
        <time>2021-07-08T07:59:37Z</time>
      </trkpt>
      <trkpt lat="40.562380" lon="0.534840">
        <ele>7.022</ele>
        <time>2021-07-08T07:59:57Z</time>
      </trkpt>
      <trkpt lat="40.567220" lon="0.536940">
        <ele>2.041</ele>
        <time>2021-07-08T08:00:17Z</time>
      </trkpt>
      <trkpt lat="40.567830" lon="0.537360">
        <ele>3.765</ele>
        <time>2021-07-08T08:00:37Z</time>
      </trkpt>
      <trkpt lat="40.572330" lon="0.544070">
        <ele>6.799</ele>
        <time>2021-07-08T08:00:57Z</time>
      </trkpt>
      <trkpt lat="40.575290" lon="0.547160">
        <ele>7.331</ele>
        <time>2021-07-08T08:01:17Z</time>
      </trkpt>
      <trkpt lat="40.576360" lon="0.548570">
        <ele>9.892</ele>
        <time>2021-07-08T08:01:37Z</time>
      </trkpt>
      <trkpt lat="40.577090" lon="0.549120">
        <ele>13.487</ele>
        <time>2021-07-08T08:01:57Z</time>
      </trkpt>
      <trkpt lat="40.578590" lon="0.551680">
        <ele>12.026</ele>
        <time>2021-07-08T08:02:17Z</time>
      </trkpt>
      <trkpt lat="40.580940" lon="0.554750">
        <ele>2.699</ele>
        <time>2021-07-08T08:02:37Z</time>
      </trkpt>
      <trkpt lat="40.585480" lon="0.557540">
        <ele>14.007</ele>
        <time>2021-07-08T08:02:57Z</time>
      </trkpt>
      <trkpt lat="40.590670" lon="0.565260">
        <ele>4.027</ele>
        <time>2021-07-08T08:03:17Z</time>
      </trkpt>
      <trkpt lat="40.598060" lon="0.573010">
        <ele>7.008</ele>
        <time>2021-07-08T08:03:37Z</time>
      </trkpt>
      <trkpt lat="40.601810" lon="0.577610">
        <ele>12.686</ele>
        <time>2021-07-08T08:03:57Z</time>
      </trkpt>
      <trkpt lat="40.603330" lon="0.579270">
        <ele>7.645</ele>
        <time>2021-07-08T08:04:17Z</time>
      </trkpt>
      <trkpt lat="40.606550" lon="0.582430">
        <ele>3.469</ele>
        <time>2021-07-08T08:04:37Z</time>
      </trkpt>
      <trkpt lat="40.607850" lon="0.583200">
        <ele>6.643</ele>
        <time>2021-07-08T08:04:57Z</time>
      </trkpt>
      <trkpt lat="40.607870" lon="0.583400">
        <ele>6.785</ele>
        <time>2021-07-08T08:05:17Z</time>
      </trkpt>
      <trkpt lat="40.608130" lon="0.583380">
        <ele>8.066</ele>
        <time>2021-07-08T08:05:37Z</time>
      </trkpt>
      <trkpt lat="40.611400" lon="0.585290">
        <ele>12.041</ele>
        <time>2021-07-08T08:05:57Z</time>
      </trkpt>
      <trkpt lat="40.612260" lon="0.587420">
        <ele>15.510</ele>
        <time>2021-07-08T08:06:17Z</time>
      </trkpt>
      <trkpt lat="40.614250" lon="0.589440">
        <ele>17.918</ele>
        <time>2021-07-08T08:06:37Z</time>
      </trkpt>
      <trkpt lat="40.614780" lon="0.589820">
        <ele>21.498</ele>
        <time>2021-07-08T08:06:57Z</time>
      </trkpt>
      <trkpt lat="40.614180" lon="0.591090">
        <ele>4.317</ele>
        <time>2021-07-08T08:07:17Z</time>
      </trkpt>
      <trkpt lat="40.614520" lon="0.591410">
        <ele>4.208</ele>
        <time>2021-07-08T08:07:37Z</time>
      </trkpt>
      <trkpt lat="40.615470" lon="0.591870">
        <ele>5.968</ele>
        <time>2021-07-08T08:07:57Z</time>
      </trkpt>
      <trkpt lat="40.616160" lon="0.592620">
        <ele>8.847</ele>
        <time>2021-07-08T08:08:17Z</time>
      </trkpt>
      <trkpt lat="40.619880" lon="0.597790">
        <ele>-0.131</ele>
        <time>2021-07-08T08:08:37Z</time>
      </trkpt>
      <trkpt lat="40.620250" lon="0.598880">
        <ele>1.115</ele>
        <time>2021-07-08T08:08:57Z</time>
      </trkpt>
      <trkpt lat="40.621010" lon="0.598830">
        <ele>-0.817</ele>
        <time>2021-07-08T08:09:17Z</time>
      </trkpt>
      <trkpt lat="40.630150" lon="0.600970">
        <ele>-0.258</ele>
        <time>2021-07-08T08:09:37Z</time>
      </trkpt>
      <trkpt lat="40.633440" lon="0.601580">
        <ele>-2.053</ele>
        <time>2021-07-08T08:09:57Z</time>
      </trkpt>
      <trkpt lat="40.637070" lon="0.601610">
        <ele>0.512</ele>
        <time>2021-07-08T08:10:17Z</time>
      </trkpt>
      <trkpt lat="40.639590" lon="0.601250">
        <ele>-0.214</ele>
        <time>2021-07-08T08:10:37Z</time>
      </trkpt>
      <trkpt lat="40.641570" lon="0.600720">
        <ele>-0.354</ele>
        <time>2021-07-08T08:10:57Z</time>
      </trkpt>
      <trkpt lat="40.641860" lon="0.600890">
        <ele>-0.709</ele>
        <time>2021-07-08T08:11:17Z</time>
      </trkpt>
      <trkpt lat="40.643860" lon="0.607100">
        <ele>-1.908</ele>
        <time>2021-07-08T08:11:37Z</time>
      </trkpt>
      <trkpt lat="40.644500" lon="0.608660">
        <ele>-2.938</ele>
        <time>2021-07-08T08:11:57Z</time>
      </trkpt>
      <trkpt lat="40.646170" lon="0.611380">
        <ele>-2.227</ele>
        <time>2021-07-08T08:12:17Z</time>
      </trkpt>
      <trkpt lat="40.649410" lon="0.617360">
        <ele>-2.041</ele>
        <time>2021-07-08T08:12:37Z</time>
      </trkpt>
      <trkpt lat="40.653120" lon="0.625200">
        <ele>-2.225</ele>
        <time>2021-07-08T08:12:57Z</time>
      </trkpt>
      <trkpt lat="40.654150" lon="0.628120">
        <ele>-1.037</ele>
        <time>2021-07-08T08:13:17Z</time>
      </trkpt>
      <trkpt lat="40.654720" lon="0.629340">
        <ele>-3.048</ele>
        <time>2021-07-08T08:13:37Z</time>
      </trkpt>
      <trkpt lat="40.662980" lon="0.642220">
        <ele>-3.743</ele>
        <time>2021-07-08T08:13:57Z</time>
      </trkpt>
      <trkpt lat="40.663490" lon="0.643360">
        <ele>-3.042</ele>
        <time>2021-07-08T08:14:17Z</time>
      </trkpt>
      <trkpt lat="40.666380" lon="0.647830">
        <ele>-1.091</ele>
        <time>2021-07-08T08:14:37Z</time>
      </trkpt>
      <trkpt lat="40.669110" lon="0.653260">
        <ele>-2.581</ele>
        <time>2021-07-08T08:14:57Z</time>
      </trkpt>
      <trkpt lat="40.669510" lon="0.653260">
        <ele>-2.319</ele>
        <time>2021-07-08T08:15:17Z</time>
      </trkpt>
      <trkpt lat="40.671520" lon="0.651190">
        <ele>-2.708</ele>
        <time>2021-07-08T08:15:37Z</time>
      </trkpt>
      <trkpt lat="40.671850" lon="0.651260">
        <ele>-2.236</ele>
        <time>2021-07-08T08:15:57Z</time>
      </trkpt>
      <trkpt lat="40.676460" lon="0.661500">
        <ele>-1.925</ele>
        <time>2021-07-08T08:16:17Z</time>
      </trkpt>
      <trkpt lat="40.677860" lon="0.663730">
        <ele>-2.099</ele>
        <time>2021-07-08T08:16:37Z</time>
      </trkpt>
      <trkpt lat="40.679720" lon="0.668310">
        <ele>-2.833</ele>
        <time>2021-07-08T08:16:57Z</time>
      </trkpt>
      <trkpt lat="40.680640" lon="0.672820">
        <ele>-3.015</ele>
        <time>2021-07-08T08:17:17Z</time>
      </trkpt>
      <trkpt lat="40.683130" lon="0.685940">
        <ele>-1.666</ele>
        <time>2021-07-08T08:17:37Z</time>
      </trkpt>
      <trkpt lat="40.683290" lon="0.687570">
        <ele>-4.011</ele>
        <time>2021-07-08T08:17:57Z</time>
      </trkpt>
      <trkpt lat="40.683330" lon="0.692540">
        <ele>-3.730</ele>
        <time>2021-07-08T08:18:17Z</time>
      </trkpt>
      <trkpt lat="40.683550" lon="0.692840">
        <ele>-2.641</ele>
        <time>2021-07-08T08:18:37Z</time>
      </trkpt>
      <trkpt lat="40.685130" lon="0.693340">
        <ele>-1.081</ele>
        <time>2021-07-08T08:18:57Z</time>
      </trkpt>
      <trkpt lat="40.684060" lon="0.697000">
        <ele>-1.909</ele>
        <time>2021-07-08T08:19:17Z</time>
      </trkpt>
      <trkpt lat="40.683610" lon="0.702010">
        <ele>-3.008</ele>
        <time>2021-07-08T08:19:37Z</time>
      </trkpt>
      <trkpt lat="40.683620" lon="0.705040">
        <ele>0.031</ele>
        <time>2021-07-08T08:19:57Z</time>
      </trkpt>
      <trkpt lat="40.683180" lon="0.707910">
        <ele>-2.090</ele>
        <time>2021-07-08T08:20:17Z</time>
      </trkpt>
      <trkpt lat="40.680410" lon="0.716100">
        <ele>-1.154</ele>
        <time>2021-07-08T08:20:37Z</time>
      </trkpt>
      <trkpt lat="40.679870" lon="0.716890">
        <ele>-0.888</ele>
        <time>2021-07-08T08:20:57Z</time>
      </trkpt>
      <trkpt lat="40.678390" lon="0.717870">
        <ele>-3.590</ele>
        <time>2021-07-08T08:21:17Z</time>
      </trkpt>
      <trkpt lat="40.677800" lon="0.719190">
        <ele>-2.951</ele>
        <time>2021-07-08T08:21:37Z</time>
      </trkpt>
      <trkpt lat="40.683240" lon="0.721250">
        <ele>-1.016</ele>
        <time>2021-07-08T08:21:57Z</time>
      </trkpt>
      <trkpt lat="40.682130" lon="0.724180">
        <ele>-0.785</ele>
        <time>2021-07-08T08:22:17Z</time>
      </trkpt>
      <trkpt lat="40.681860" lon="0.724620">
        <ele>-0.272</ele>
        <time>2021-07-08T08:22:37Z</time>
      </trkpt>
      <trkpt lat="40.681190" lon="0.725190">
        <ele>-0.313</ele>
        <time>2021-07-08T08:22:57Z</time>
      </trkpt>
      <trkpt lat="40.680810" lon="0.725830">
        <ele>-1.114</ele>
        <time>2021-07-08T08:23:17Z</time>
      </trkpt>
      <trkpt lat="40.677110" lon="0.736350">
        <ele>-0.908</ele>
        <time>2021-07-08T08:23:37Z</time>
      </trkpt>
      <trkpt lat="40.675760" lon="0.739150">
        <ele>-3.064</ele>
        <time>2021-07-08T08:23:57Z</time>
      </trkpt>
      <trkpt lat="40.674420" lon="0.742700">
        <ele>1.773</ele>
        <time>2021-07-08T08:24:17Z</time>
      </trkpt>
      <trkpt lat="40.672110" lon="0.746780">
        <ele>-1.027</ele>
        <time>2021-07-08T08:24:37Z</time>
      </trkpt>
      <trkpt lat="40.670250" lon="0.752220">
        <ele>1.911</ele>
        <time>2021-07-08T08:24:57Z</time>
      </trkpt>
      <trkpt lat="40.670250" lon="0.752220">
        <ele>1.942</ele>
        <time>2021-07-08T07:34:48Z</time>
      </trkpt>
      <trkpt lat="40.670890" lon="0.750170">
        <ele>1.422</ele>
        <time>2021-07-08T07:35:08Z</time>
      </trkpt>
      <trkpt lat="40.672690" lon="0.750670">
        <ele>0.414</ele>
        <time>2021-07-08T07:35:28Z</time>
      </trkpt>
      <trkpt lat="40.674200" lon="0.750270">
        <ele>0.908</ele>
        <time>2021-07-08T07:35:48Z</time>
      </trkpt>
      <trkpt lat="40.676430" lon="0.747880">
        <ele>-0.981</ele>
        <time>2021-07-08T07:36:08Z</time>
      </trkpt>
      <trkpt lat="40.681700" lon="0.749890">
        <ele>-1.930</ele>
        <time>2021-07-08T07:36:28Z</time>
      </trkpt>
      <trkpt lat="40.682270" lon="0.748260">
        <ele>0.684</ele>
        <time>2021-07-08T07:36:48Z</time>
      </trkpt>
      <trkpt lat="40.685960" lon="0.745270">
        <ele>-1.068</ele>
        <time>2021-07-08T07:37:08Z</time>
      </trkpt>
      <trkpt lat="40.690720" lon="0.743570">
        <ele>1.471</ele>
        <time>2021-07-08T07:38:08Z</time>
      </trkpt>
      <trkpt lat="40.695180" lon="0.742820">
        <ele>-0.167</ele>
        <time>2021-07-08T07:38:28Z</time>
      </trkpt>
      <trkpt lat="40.696750" lon="0.742240">
        <ele>0.052</ele>
        <time>2021-07-08T07:38:48Z</time>
      </trkpt>
      <trkpt lat="40.699730" lon="0.740570">
        <ele>1.072</ele>
        <time>2021-07-08T07:39:08Z</time>
      </trkpt>
      <trkpt lat="40.700770" lon="0.740350">
        <ele>0.216</ele>
        <time>2021-07-08T07:39:28Z</time>
      </trkpt>
      <trkpt lat="40.702240" lon="0.740500">
        <ele>3.276</ele>
        <time>2021-07-08T07:39:48Z</time>
      </trkpt>
      <trkpt lat="40.703970" lon="0.740250">
        <ele>0.713</ele>
        <time>2021-07-08T07:40:08Z</time>
      </trkpt>
      <trkpt lat="40.705100" lon="0.739660">
        <ele>0.008</ele>
        <time>2021-07-08T07:40:28Z</time>
      </trkpt>
      <trkpt lat="40.706040" lon="0.734590">
        <ele>3.538</ele>
        <time>2021-07-08T07:40:48Z</time>
      </trkpt>
      <trkpt lat="40.708420" lon="0.735110">
        <ele>0.697</ele>
        <time>2021-07-08T07:41:08Z</time>
      </trkpt>
      <trkpt lat="40.708800" lon="0.732620">
        <ele>1.391</ele>
        <time>2021-07-08T07:41:28Z</time>
      </trkpt>
      <trkpt lat="40.711230" lon="0.722080">
        <ele>4.685</ele>
        <time>2021-07-08T07:42:08Z</time>
      </trkpt>
      <trkpt lat="40.711980" lon="0.716270">
        <ele>1.978</ele>
        <time>2021-07-08T07:42:28Z</time>
      </trkpt>
      <trkpt lat="40.711090" lon="0.716600">
        <ele>2.974</ele>
        <time>2021-07-08T07:43:28Z</time>
      </trkpt>
      <trkpt lat="40.711180" lon="0.716860">
        <ele>2.499</ele>
        <time>2021-07-08T07:43:48Z</time>
      </trkpt>
      <trkpt lat="40.714750" lon="0.718140">
        <ele>0.459</ele>
        <time>2021-07-08T07:44:28Z</time>
      </trkpt>
      <trkpt lat="40.717380" lon="0.720640">
        <ele>1.943</ele>
        <time>2021-07-08T07:44:48Z</time>
      </trkpt>
      <trkpt lat="40.718660" lon="0.721070">
        <ele>2.364</ele>
        <time>2021-07-08T07:45:08Z</time>
      </trkpt>
      <trkpt lat="40.721240" lon="0.721210">
        <ele>2.710</ele>
        <time>2021-07-08T07:45:28Z</time>
      </trkpt>
      <trkpt lat="40.723620" lon="0.720680">
        <ele>2.008</ele>
        <time>2021-07-08T07:45:48Z</time>
      </trkpt>
      <trkpt lat="40.725540" lon="0.721100">
        <ele>3.021</ele>
        <time>2021-07-08T07:46:28Z</time>
      </trkpt>
      <trkpt lat="40.726520" lon="0.722210">
        <ele>2.030</ele>
        <time>2021-07-08T07:47:08Z</time>
      </trkpt>
      <trkpt lat="40.728260" lon="0.719670">
        <ele>1.644</ele>
        <time>2021-07-08T07:47:48Z</time>
      </trkpt>
      <trkpt lat="40.730800" lon="0.725130">
        <ele>-0.578</ele>
        <time>2021-07-08T07:48:08Z</time>
      </trkpt>
      <trkpt lat="40.740450" lon="0.719580">
        <ele>0.981</ele>
        <time>2021-07-08T07:49:28Z</time>
      </trkpt>
      <trkpt lat="40.740750" lon="0.719730">
        <ele>0.047</ele>
        <time>2021-07-08T07:49:48Z</time>
      </trkpt>
      <trkpt lat="40.742280" lon="0.718950">
        <ele>0.282</ele>
        <time>2021-07-08T07:50:08Z</time>
      </trkpt>
      <trkpt lat="40.744000" lon="0.717410">
        <ele>0.072</ele>
        <time>2021-07-08T07:50:28Z</time>
      </trkpt>
      <trkpt lat="40.745440" lon="0.719330">
        <ele>-0.376</ele>
        <time>2021-07-08T07:50:48Z</time>
      </trkpt>
      <trkpt lat="40.749790" lon="0.722740">
        <ele>-1.190</ele>
        <time>2021-07-08T07:51:08Z</time>
      </trkpt>
      <trkpt lat="40.750610" lon="0.723700">
        <ele>0.319</ele>
        <time>2021-07-08T07:51:48Z</time>
      </trkpt>
      <trkpt lat="40.757570" lon="0.711870">
        <ele>3.208</ele>
        <time>2021-07-08T07:52:28Z</time>
      </trkpt>
      <trkpt lat="40.759040" lon="0.710470">
        <ele>0.884</ele>
        <time>2021-07-08T07:52:48Z</time>
      </trkpt>
      <trkpt lat="40.761320" lon="0.709070">
        <ele>-0.233</ele>
        <time>2021-07-08T07:53:08Z</time>
      </trkpt>
      <trkpt lat="40.763300" lon="0.708560">
        <ele>0.087</ele>
        <time>2021-07-08T07:53:28Z</time>
      </trkpt>
      <trkpt lat="40.770740" lon="0.709880">
        <ele>-0.321</ele>
        <time>2021-07-08T07:53:48Z</time>
      </trkpt>
      <trkpt lat="40.770800" lon="0.708560">
        <ele>0.884</ele>
        <time>2021-07-08T07:54:08Z</time>
      </trkpt>
      <trkpt lat="40.773250" lon="0.710030">
        <ele>-0.450</ele>
        <time>2021-07-08T07:55:08Z</time>
      </trkpt>
      <trkpt lat="40.776040" lon="0.712400">
        <ele>-0.795</ele>
        <time>2021-07-08T07:55:48Z</time>
      </trkpt>
      <trkpt lat="40.777550" lon="0.714370">
        <ele>-1.955</ele>
        <time>2021-07-08T07:56:08Z</time>
      </trkpt>
      <trkpt lat="40.779180" lon="0.717250">
        <ele>-1.869</ele>
        <time>2021-07-08T07:56:28Z</time>
      </trkpt>
      <trkpt lat="40.781720" lon="0.713890">
        <ele>-0.604</ele>
        <time>2021-07-08T07:56:48Z</time>
      </trkpt>
      <trkpt lat="40.782500" lon="0.713360">
        <ele>1.024</ele>
        <time>2021-07-08T07:57:08Z</time>
      </trkpt>
      <trkpt lat="40.785660" lon="0.709330">
        <ele>0.308</ele>
        <time>2021-07-08T07:57:48Z</time>
      </trkpt>
      <trkpt lat="40.784650" lon="0.707890">
        <ele>-3.273</ele>
        <time>2021-07-08T07:58:28Z</time>
      </trkpt>
      <trkpt lat="40.784730" lon="0.707620">
        <ele>-4.062</ele>
        <time>2021-07-08T07:58:48Z</time>
      </trkpt>
      <trkpt lat="40.785400" lon="0.708350">
        <ele>-2.656</ele>
        <time>2021-07-08T07:59:08Z</time>
      </trkpt>
      <trkpt lat="40.786700" lon="0.708170">
        <ele>0.050</ele>
        <time>2021-07-08T08:00:28Z</time>
      </trkpt>
      <trkpt lat="40.787720" lon="0.707570">
        <ele>0.083</ele>
        <time>2021-07-08T08:00:48Z</time>
      </trkpt>
      <trkpt lat="40.788830" lon="0.706120">
        <ele>0.049</ele>
        <time>2021-07-08T08:01:08Z</time>
      </trkpt>
      <trkpt lat="40.790510" lon="0.704830">
        <ele>0.764</ele>
        <time>2021-07-08T08:01:28Z</time>
      </trkpt>
      <trkpt lat="40.797750" lon="0.700580">
        <ele>0.974</ele>
        <time>2021-07-08T08:02:08Z</time>
      </trkpt>
      <trkpt lat="40.800960" lon="0.699290">
        <ele>-2.132</ele>
        <time>2021-07-08T08:02:48Z</time>
      </trkpt>
      <trkpt lat="40.803900" lon="0.700020">
        <ele>0.192</ele>
        <time>2021-07-08T08:04:28Z</time>
      </trkpt>
      <trkpt lat="40.805050" lon="0.701320">
        <ele>0.411</ele>
        <time>2021-07-08T08:05:08Z</time>
      </trkpt>
      <trkpt lat="40.805900" lon="0.701690">
        <ele>2.108</ele>
        <time>2021-07-08T08:05:28Z</time>
      </trkpt>
      <trkpt lat="40.807300" lon="0.704420">
        <ele>2.740</ele>
        <time>2021-07-08T08:05:48Z</time>
      </trkpt>
      <trkpt lat="40.807660" lon="0.704720">
        <ele>2.039</ele>
        <time>2021-07-08T08:06:08Z</time>
      </trkpt>
      <trkpt lat="40.808490" lon="0.704770">
        <ele>2.553</ele>
        <time>2021-07-08T08:06:28Z</time>
      </trkpt>
      <trkpt lat="40.808740" lon="0.705370">
        <ele>5.117</ele>
        <time>2021-07-08T08:06:48Z</time>
      </trkpt>
      <trkpt lat="40.810140" lon="0.706400">
        <ele>7.580</ele>
        <time>2021-07-08T08:07:08Z</time>
      </trkpt>
      <trkpt lat="40.811010" lon="0.708320">
        <ele>3.336</ele>
        <time>2021-07-08T08:07:48Z</time>
      </trkpt>
      <trkpt lat="40.810850" lon="0.708980">
        <ele>2.291</ele>
        <time>2021-07-08T08:08:08Z</time>
      </trkpt>
      <trkpt lat="40.811540" lon="0.709950">
        <ele>4.791</ele>
        <time>2021-07-08T08:08:28Z</time>
      </trkpt>
      <trkpt lat="40.811800" lon="0.710830">
        <ele>4.555</ele>
        <time>2021-07-08T08:08:48Z</time>
      </trkpt>
      <trkpt lat="40.812380" lon="0.710940">
        <ele>5.507</ele>
        <time>2021-07-08T08:09:08Z</time>
      </trkpt>
      <trkpt lat="40.812720" lon="0.713290">
        <ele>9.217</ele>
        <time>2021-07-08T08:10:08Z</time>
      </trkpt>
      <trkpt lat="40.813490" lon="0.713170">
        <ele>9.208</ele>
        <time>2021-07-08T08:10:28Z</time>
      </trkpt>
      <trkpt lat="40.813700" lon="0.713990">
        <ele>9.662</ele>
        <time>2021-07-08T08:10:48Z</time>
      </trkpt>
      <trkpt lat="40.814110" lon="0.713570">
        <ele>10.031</ele>
        <time>2021-07-08T08:11:08Z</time>
      </trkpt>
      <trkpt lat="40.816390" lon="0.717200">
        <ele>17.065</ele>
        <time>2021-07-08T08:11:28Z</time>
      </trkpt>
      <trkpt lat="40.816400" lon="0.717650">
        <ele>15.519</ele>
        <time>2021-07-08T08:11:48Z</time>
      </trkpt>
      <trkpt lat="40.816950" lon="0.718190">
        <ele>15.082</ele>
        <time>2021-07-08T08:12:28Z</time>
      </trkpt>
      <trkpt lat="40.816790" lon="0.721000">
        <ele>6.928</ele>
        <time>2021-07-08T08:13:08Z</time>
      </trkpt>
      <trkpt lat="40.817040" lon="0.721130">
        <ele>9.153</ele>
        <time>2021-07-08T08:13:28Z</time>
      </trkpt>
      <trkpt lat="40.817610" lon="0.720800">
        <ele>13.913</ele>
        <time>2021-07-08T08:13:48Z</time>
      </trkpt>
      <trkpt lat="40.818420" lon="0.719700">
        <ele>17.492</ele>
        <time>2021-07-08T08:14:08Z</time>
      </trkpt>
      <trkpt lat="40.818780" lon="0.719820">
        <ele>18.673</ele>
        <time>2021-07-08T08:14:28Z</time>
      </trkpt>
      <trkpt lat="40.821250" lon="0.724210">
        <ele>21.320</ele>
        <time>2021-07-08T08:15:08Z</time>
      </trkpt>
      <trkpt lat="40.820810" lon="0.724730">
        <ele>18.808</ele>
        <time>2021-07-08T08:15:28Z</time>
      </trkpt>
      <trkpt lat="40.820970" lon="0.726060">
        <ele>18.696</ele>
        <time>2021-07-08T08:15:48Z</time>
      </trkpt>
      <trkpt lat="40.823010" lon="0.729310">
        <ele>23.925</ele>
        <time>2021-07-08T08:16:08Z</time>
      </trkpt>
      <trkpt lat="40.824120" lon="0.729470">
        <ele>26.199</ele>
        <time>2021-07-08T08:16:28Z</time>
      </trkpt>
      <trkpt lat="40.824470" lon="0.729230">
        <ele>26.133</ele>
        <time>2021-07-08T08:16:48Z</time>
      </trkpt>
      <trkpt lat="40.826830" lon="0.733190">
        <ele>19.926</ele>
        <time>2021-07-08T08:17:08Z</time>
      </trkpt>
      <trkpt lat="40.826880" lon="0.734030">
        <ele>11.582</ele>
        <time>2021-07-08T08:17:28Z</time>
      </trkpt>
      <trkpt lat="40.827360" lon="0.735050">
        <ele>13.867</ele>
        <time>2021-07-08T08:17:48Z</time>
      </trkpt>
      <trkpt lat="40.827330" lon="0.735900">
        <ele>17.627</ele>
        <time>2021-07-08T08:18:08Z</time>
      </trkpt>
      <trkpt lat="40.828360" lon="0.736310">
        <ele>25.236</ele>
        <time>2021-07-08T08:18:48Z</time>
      </trkpt>
      <trkpt lat="40.828760" lon="0.737730">
        <ele>19.917</ele>
        <time>2021-07-08T08:19:28Z</time>
      </trkpt>
      <trkpt lat="40.829270" lon="0.737740">
        <ele>24.218</ele>
        <time>2021-07-08T08:20:08Z</time>
      </trkpt>
      <trkpt lat="40.831070" lon="0.735640">
        <ele>32.508</ele>
        <time>2021-07-08T08:20:48Z</time>
      </trkpt>
      <trkpt lat="40.831630" lon="0.734370">
        <ele>37.270</ele>
        <time>2021-07-08T08:21:08Z</time>
      </trkpt>
      <trkpt lat="40.832810" lon="0.732950">
        <ele>43.739</ele>
        <time>2021-07-08T08:21:28Z</time>
      </trkpt>
      <trkpt lat="40.833620" lon="0.733840">
        <ele>44.113</ele>
        <time>2021-07-08T08:21:48Z</time>
      </trkpt>
      <trkpt lat="40.834540" lon="0.734020">
        <ele>46.727</ele>
        <time>2021-07-08T08:22:08Z</time>
      </trkpt>
      <trkpt lat="40.835270" lon="0.732710">
        <ele>53.010</ele>
        <time>2021-07-08T08:22:28Z</time>
      </trkpt>
      <trkpt lat="40.836380" lon="0.732590">
        <ele>59.356</ele>
        <time>2021-07-08T08:22:48Z</time>
      </trkpt>
      <trkpt lat="40.837630" lon="0.733300">
        <ele>61.041</ele>
        <time>2021-07-08T08:23:08Z</time>
      </trkpt>
      <trkpt lat="40.839680" lon="0.733420">
        <ele>63.421</ele>
        <time>2021-07-08T08:23:48Z</time>
      </trkpt>
      <trkpt lat="40.840590" lon="0.732980">
        <ele>69.418</ele>
        <time>2021-07-08T08:24:08Z</time>
      </trkpt>
      <trkpt lat="40.842160" lon="0.732920">
        <ele>75.998</ele>
        <time>2021-07-08T08:24:28Z</time>
      </trkpt>
      <trkpt lat="40.842750" lon="0.735600">
        <ele>88.217</ele>
        <time>2021-07-08T08:24:48Z</time>
      </trkpt>
      <trkpt lat="40.842950" lon="0.737890">
        <ele>87.008</ele>
        <time>2021-07-08T08:25:28Z</time>
      </trkpt>
      <trkpt lat="40.843500" lon="0.738690">
        <ele>89.258</ele>
        <time>2021-07-08T08:25:48Z</time>
      </trkpt>
      <trkpt lat="40.844860" lon="0.738940">
        <ele>91.547</ele>
        <time>2021-07-08T08:26:28Z</time>
      </trkpt>
      <trkpt lat="40.845730" lon="0.740910">
        <ele>79.521</ele>
        <time>2021-07-08T08:26:48Z</time>
      </trkpt>
      <trkpt lat="40.845830" lon="0.741930">
        <ele>76.125</ele>
        <time>2021-07-08T08:27:08Z</time>
      </trkpt>
      <trkpt lat="40.845420" lon="0.743560">
        <ele>70.768</ele>
        <time>2021-07-08T08:27:48Z</time>
      </trkpt>
      <trkpt lat="40.845550" lon="0.744020">
        <ele>71.024</ele>
        <time>2021-07-08T08:28:08Z</time>
      </trkpt>
      <trkpt lat="40.845340" lon="0.745740">
        <ele>60.639</ele>
        <time>2021-07-08T08:28:48Z</time>
      </trkpt>
      <trkpt lat="40.845860" lon="0.746500">
        <ele>54.829</ele>
        <time>2021-07-08T08:29:08Z</time>
      </trkpt>
      <trkpt lat="40.845750" lon="0.747580">
        <ele>44.962</ele>
        <time>2021-07-08T08:29:28Z</time>
      </trkpt>
      <trkpt lat="40.846090" lon="0.749300">
        <ele>28.283</ele>
        <time>2021-07-08T08:29:48Z</time>
      </trkpt>
      <trkpt lat="40.846460" lon="0.748970">
        <ele>25.411</ele>
        <time>2021-07-08T08:30:08Z</time>
      </trkpt>
      <trkpt lat="40.847420" lon="0.751140">
        <ele>23.208</ele>
        <time>2021-07-08T08:30:28Z</time>
      </trkpt>
      <trkpt lat="40.847900" lon="0.750830">
        <ele>32.543</ele>
        <time>2021-07-08T08:30:48Z</time>
      </trkpt>
      <trkpt lat="40.848070" lon="0.749760">
        <ele>35.552</ele>
        <time>2021-07-08T08:31:28Z</time>
      </trkpt>
      <trkpt lat="40.848570" lon="0.749500">
        <ele>39.346</ele>
        <time>2021-07-08T08:32:08Z</time>
      </trkpt>
      <trkpt lat="40.850040" lon="0.749880">
        <ele>48.160</ele>
        <time>2021-07-08T08:32:48Z</time>
      </trkpt>
      <trkpt lat="40.851480" lon="0.749330">
        <ele>57.123</ele>
        <time>2021-07-08T08:33:08Z</time>
      </trkpt>
      <trkpt lat="40.851700" lon="0.749760">
        <ele>56.179</ele>
        <time>2021-07-08T08:33:28Z</time>
      </trkpt>
      <trkpt lat="40.851600" lon="0.750470">
        <ele>55.554</ele>
        <time>2021-07-08T08:33:48Z</time>
      </trkpt>
      <trkpt lat="40.852850" lon="0.753520">
        <ele>55.744</ele>
        <time>2021-07-08T08:34:28Z</time>
      </trkpt>
      <trkpt lat="40.853640" lon="0.754590">
        <ele>58.522</ele>
        <time>2021-07-08T08:35:08Z</time>
      </trkpt>
      <trkpt lat="40.853680" lon="0.755660">
        <ele>58.462</ele>
        <time>2021-07-08T08:35:28Z</time>
      </trkpt>
      <trkpt lat="40.853400" lon="0.756090">
        <ele>56.108</ele>
        <time>2021-07-08T08:35:48Z</time>
      </trkpt>
      <trkpt lat="40.851480" lon="0.757190">
        <ele>42.708</ele>
        <time>2021-07-08T08:36:08Z</time>
      </trkpt>
      <trkpt lat="40.850520" lon="0.756760">
        <ele>38.879</ele>
        <time>2021-07-08T08:36:28Z</time>
      </trkpt>
      <trkpt lat="40.849110" lon="0.758040">
        <ele>28.768</ele>
        <time>2021-07-08T08:36:48Z</time>
      </trkpt>
      <trkpt lat="40.855600" lon="0.766320">
        <ele>14.212</ele>
        <time>2021-07-08T08:38:48Z</time>
      </trkpt>
      <trkpt lat="40.857190" lon="0.767930">
        <ele>15.936</ele>
        <time>2021-07-08T08:39:08Z</time>
      </trkpt>
      <trkpt lat="40.859000" lon="0.770620">
        <ele>9.649</ele>
        <time>2021-07-08T08:39:28Z</time>
      </trkpt>
      <trkpt lat="40.859910" lon="0.771140">
        <ele>15.955</ele>
        <time>2021-07-08T08:39:48Z</time>
      </trkpt>
      <trkpt lat="40.865480" lon="0.777610">
        <ele>18.720</ele>
        <time>2021-07-08T08:40:28Z</time>
      </trkpt>
      <trkpt lat="40.866400" lon="0.779710">
        <ele>7.140</ele>
        <time>2021-07-08T08:40:48Z</time>
      </trkpt>
      <trkpt lat="40.867860" lon="0.780540">
        <ele>17.766</ele>
        <time>2021-07-08T08:41:08Z</time>
      </trkpt>
      <trkpt lat="40.871840" lon="0.785240">
        <ele>19.029</ele>
        <time>2021-07-08T08:41:28Z</time>
      </trkpt>
      <trkpt lat="40.873820" lon="0.788950">
        <ele>15.821</ele>
        <time>2021-07-08T08:41:48Z</time>
      </trkpt>
      <trkpt lat="40.874460" lon="0.789610">
        <ele>15.208</ele>
        <time>2021-07-08T08:42:08Z</time>
      </trkpt>
      <trkpt lat="40.876270" lon="0.790430">
        <ele>16.153</ele>
        <time>2021-07-08T08:42:28Z</time>
      </trkpt>
      <trkpt lat="40.878120" lon="0.792650">
        <ele>18.092</ele>
        <time>2021-07-08T08:43:08Z</time>
      </trkpt>
      <trkpt lat="40.878650" lon="0.794000">
        <ele>11.696</ele>
        <time>2021-07-08T08:43:28Z</time>
      </trkpt>
      <trkpt lat="40.881840" lon="0.797440">
        <ele>20.030</ele>
        <time>2021-07-08T08:44:08Z</time>
      </trkpt>
      <trkpt lat="40.881810" lon="0.798190">
        <ele>18.843</ele>
        <time>2021-07-08T08:44:28Z</time>
      </trkpt>
      <trkpt lat="40.882450" lon="0.798970">
        <ele>17.919</ele>
        <time>2021-07-08T08:44:48Z</time>
      </trkpt>
      <trkpt lat="40.883220" lon="0.798160">
        <ele>19.024</ele>
        <time>2021-07-08T08:45:08Z</time>
      </trkpt>
      <trkpt lat="40.883980" lon="0.799080">
        <ele>14.784</ele>
        <time>2021-07-08T08:45:28Z</time>
      </trkpt>
      <trkpt lat="40.885230" lon="0.798530">
        <ele>18.956</ele>
        <time>2021-07-08T08:46:08Z</time>
      </trkpt>
      <trkpt lat="40.885570" lon="0.799390">
        <ele>22.059</ele>
        <time>2021-07-08T08:46:48Z</time>
      </trkpt>
      <trkpt lat="40.886210" lon="0.799420">
        <ele>21.614</ele>
        <time>2021-07-08T08:47:28Z</time>
      </trkpt>
      <trkpt lat="40.886900" lon="0.798740">
        <ele>23.808</ele>
        <time>2021-07-08T08:47:48Z</time>
      </trkpt>
      <trkpt lat="40.887440" lon="0.798620">
        <ele>26.832</ele>
        <time>2021-07-08T08:48:08Z</time>
      </trkpt>
      <trkpt lat="40.887600" lon="0.798940">
        <ele>26.971</ele>
        <time>2021-07-08T08:48:28Z</time>
      </trkpt>
      <trkpt lat="40.887480" lon="0.799490">
        <ele>23.835</ele>
        <time>2021-07-08T08:48:48Z</time>
      </trkpt>
      <trkpt lat="40.889350" lon="0.801780">
        <ele>19.379</ele>
        <time>2021-07-08T08:49:28Z</time>
      </trkpt>
      <trkpt lat="40.896360" lon="0.808520">
        <ele>27.922</ele>
        <time>2021-07-08T08:50:28Z</time>
      </trkpt>
      <trkpt lat="40.897210" lon="0.808570">
        <ele>27.058</ele>
        <time>2021-07-08T08:50:48Z</time>
      </trkpt>
      <trkpt lat="40.898130" lon="0.809700">
        <ele>24.333</ele>
        <time>2021-07-08T08:51:48Z</time>
      </trkpt>
      <trkpt lat="40.898780" lon="0.809570">
        <ele>26.143</ele>
        <time>2021-07-08T08:52:28Z</time>
      </trkpt>
      <trkpt lat="40.899570" lon="0.810370">
        <ele>28.119</ele>
        <time>2021-07-08T08:52:48Z</time>
      </trkpt>
      <trkpt lat="40.901560" lon="0.810120">
        <ele>31.609</ele>
        <time>2021-07-08T08:53:08Z</time>
      </trkpt>
      <trkpt lat="40.902210" lon="0.809730">
        <ele>33.919</ele>
        <time>2021-07-08T08:53:28Z</time>
      </trkpt>
      <trkpt lat="40.904170" lon="0.806410">
        <ele>37.008</ele>
        <time>2021-07-08T08:54:28Z</time>
      </trkpt>
      <trkpt lat="40.905210" lon="0.807420">
        <ele>34.248</ele>
        <time>2021-07-08T08:55:08Z</time>
      </trkpt>
      <trkpt lat="40.905340" lon="0.807290">
        <ele>34.297</ele>
        <time>2021-07-08T08:55:28Z</time>
      </trkpt>
      <trkpt lat="40.911410" lon="0.812440">
        <ele>38.011</ele>
        <time>2021-07-08T08:56:08Z</time>
      </trkpt>
      <trkpt lat="40.915450" lon="0.816330">
        <ele>31.875</ele>
        <time>2021-07-08T08:56:48Z</time>
      </trkpt>
      <trkpt lat="40.917780" lon="0.819040">
        <ele>25.618</ele>
        <time>2021-07-08T08:57:08Z</time>
      </trkpt>
      <trkpt lat="40.917930" lon="0.819570">
        <ele>30.074</ele>
        <time>2021-07-08T08:57:28Z</time>
      </trkpt>
      <trkpt lat="40.918390" lon="0.819850">
        <ele>32.469</ele>
        <time>2021-07-08T08:57:48Z</time>
      </trkpt>
      <trkpt lat="40.921960" lon="0.824770">
        <ele>32.759</ele>
        <time>2021-07-08T08:58:28Z</time>
      </trkpt>
      <trkpt lat="40.927400" lon="0.830280">
        <ele>43.957</ele>
        <time>2021-07-08T08:59:28Z</time>
      </trkpt>
      <trkpt lat="40.929680" lon="0.833550">
        <ele>40.900</ele>
        <time>2021-07-08T08:59:48Z</time>
      </trkpt>
      <trkpt lat="40.933020" lon="0.839350">
        <ele>40.220</ele>
        <time>2021-07-08T09:00:28Z</time>
      </trkpt>
      <trkpt lat="40.937070" lon="0.842790">
        <ele>39.008</ele>
        <time>2021-07-08T09:01:08Z</time>
      </trkpt>
      <trkpt lat="40.939590" lon="0.846120">
        <ele>40.042</ele>
        <time>2021-07-08T09:01:28Z</time>
      </trkpt>
      <trkpt lat="40.943440" lon="0.848580">
        <ele>41.351</ele>
        <time>2021-07-08T09:02:28Z</time>
      </trkpt>
      <trkpt lat="40.945280" lon="0.851620">
        <ele>42.515</ele>
        <time>2021-07-08T09:02:48Z</time>
      </trkpt>
      <trkpt lat="40.947320" lon="0.853570">
        <ele>47.469</ele>
        <time>2021-07-08T09:03:08Z</time>
      </trkpt>
      <trkpt lat="40.949260" lon="0.856570">
        <ele>45.652</ele>
        <time>2021-07-08T09:03:28Z</time>
      </trkpt>
      <trkpt lat="40.950240" lon="0.857370">
        <ele>51.138</ele>
        <time>2021-07-08T09:03:48Z</time>
      </trkpt>
      <trkpt lat="40.951100" lon="0.859520">
        <ele>44.193</ele>
        <time>2021-07-08T09:04:28Z</time>
      </trkpt>
      <trkpt lat="40.952700" lon="0.861160">
        <ele>44.533</ele>
        <time>2021-07-08T09:05:28Z</time>
      </trkpt>
      <trkpt lat="40.953550" lon="0.866000">
        <ele>31.319</ele>
        <time>2021-07-08T09:05:48Z</time>
      </trkpt>
      <trkpt lat="40.954210" lon="0.867680">
        <ele>31.509</ele>
        <time>2021-07-08T09:06:08Z</time>
      </trkpt>
      <trkpt lat="40.955110" lon="0.869010">
        <ele>33.619</ele>
        <time>2021-07-08T09:06:28Z</time>
      </trkpt>
      <trkpt lat="40.956370" lon="0.870030">
        <ele>30.108</ele>
        <time>2021-07-08T09:06:48Z</time>
      </trkpt>
      <trkpt lat="40.959080" lon="0.870660">
        <ele>35.938</ele>
        <time>2021-07-08T09:07:28Z</time>
      </trkpt>
      <trkpt lat="40.960560" lon="0.871750">
        <ele>36.797</ele>
        <time>2021-07-08T09:08:08Z</time>
      </trkpt>
      <trkpt lat="40.962120" lon="0.874180">
        <ele>35.141</ele>
        <time>2021-07-08T09:08:48Z</time>
      </trkpt>
      <trkpt lat="40.964370" lon="0.875500">
        <ele>36.145</ele>
        <time>2021-07-08T09:09:08Z</time>
      </trkpt>
      <trkpt lat="40.965760" lon="0.875750">
        <ele>44.738</ele>
        <time>2021-07-08T09:09:28Z</time>
      </trkpt>
      <trkpt lat="40.967430" lon="0.876950">
        <ele>55.744</ele>
        <time>2021-07-08T09:09:48Z</time>
      </trkpt>
      <trkpt lat="40.967810" lon="0.877670">
        <ele>57.059</ele>
        <time>2021-07-08T09:10:08Z</time>
      </trkpt>
      <trkpt lat="40.967870" lon="0.878990">
        <ele>63.649</ele>
        <time>2021-07-08T09:10:28Z</time>
      </trkpt>
      <trkpt lat="40.968190" lon="0.879680">
        <ele>66.122</ele>
        <time>2021-07-08T09:10:48Z</time>
      </trkpt>
      <trkpt lat="40.973460" lon="0.881890">
        <ele>90.362</ele>
        <time>2021-07-08T09:11:08Z</time>
      </trkpt>
      <trkpt lat="40.975690" lon="0.883930">
        <ele>76.408</ele>
        <time>2021-07-08T09:11:28Z</time>
      </trkpt>
      <trkpt lat="40.976700" lon="0.886590">
        <ele>59.908</ele>
        <time>2021-07-08T09:12:08Z</time>
      </trkpt>
      <trkpt lat="40.977040" lon="0.889890">
        <ele>52.649</ele>
        <time>2021-07-08T09:12:48Z</time>
      </trkpt>
      <trkpt lat="40.978590" lon="0.892580">
        <ele>42.778</ele>
        <time>2021-07-08T09:13:08Z</time>
      </trkpt>
      <trkpt lat="40.980110" lon="0.898590">
        <ele>30.382</ele>
        <time>2021-07-08T09:13:28Z</time>
      </trkpt>
      <trkpt lat="40.981290" lon="0.900690">
        <ele>28.676</ele>
        <time>2021-07-08T09:14:08Z</time>
      </trkpt>
      <trkpt lat="40.992740" lon="0.913430">
        <ele>20.549</ele>
        <time>2021-07-08T09:15:08Z</time>
      </trkpt>
      <trkpt lat="40.996660" lon="0.919280">
        <ele>19.655</ele>
        <time>2021-07-08T09:15:48Z</time>
      </trkpt>
      <trkpt lat="40.997510" lon="0.921740">
        <ele>20.550</ele>
        <time>2021-07-08T09:16:08Z</time>
      </trkpt>
      <trkpt lat="40.998420" lon="0.925920">
        <ele>23.530</ele>
        <time>2021-07-08T09:16:28Z</time>
      </trkpt>
      <trkpt lat="41.001690" lon="0.931690">
        <ele>27.074</ele>
        <time>2021-07-08T09:17:08Z</time>
      </trkpt>
      <trkpt lat="41.008050" lon="0.937350">
        <ele>24.556</ele>
        <time>2021-07-08T09:17:48Z</time>
      </trkpt>
      <trkpt lat="41.009500" lon="0.939300">
        <ele>24.521</ele>
        <time>2021-07-08T09:18:08Z</time>
      </trkpt>
      <trkpt lat="41.009510" lon="0.939970">
        <ele>24.108</ele>
        <time>2021-07-08T09:18:28Z</time>
      </trkpt>
      <trkpt lat="41.009950" lon="0.940080">
        <ele>25.124</ele>
        <time>2021-07-08T09:18:48Z</time>
      </trkpt>
      <trkpt lat="41.015880" lon="0.948070">
        <ele>20.873</ele>
        <time>2021-07-08T09:19:08Z</time>
      </trkpt>
      <trkpt lat="41.020670" lon="0.953040">
        <ele>12.787</ele>
        <time>2021-07-08T09:19:28Z</time>
      </trkpt>
      <trkpt lat="41.024300" lon="0.956380">
        <ele>9.541</ele>
        <time>2021-07-08T09:20:08Z</time>
      </trkpt>
      <trkpt lat="41.025840" lon="0.958710">
        <ele>9.444</ele>
        <time>2021-07-08T09:20:28Z</time>
      </trkpt>
      <trkpt lat="41.027700" lon="0.962460">
        <ele>5.420</ele>
        <time>2021-07-08T09:21:08Z</time>
      </trkpt>
      <trkpt lat="41.036660" lon="0.971550">
        <ele>15.095</ele>
        <time>2021-07-08T09:21:48Z</time>
      </trkpt>
      <trkpt lat="41.046020" lon="0.991040">
        <ele>14.945</ele>
        <time>2021-07-08T09:22:08Z</time>
      </trkpt>
      <trkpt lat="41.046930" lon="0.994260">
        <ele>11.019</ele>
        <time>2021-07-08T09:22:28Z</time>
      </trkpt>
      <trkpt lat="41.047970" lon="0.994030">
        <ele>14.009</ele>
        <time>2021-07-08T09:23:08Z</time>
      </trkpt>
      <trkpt lat="41.048460" lon="0.995260">
        <ele>11.119</ele>
        <time>2021-07-08T09:23:28Z</time>
      </trkpt>
      <trkpt lat="41.048420" lon="0.995810">
        <ele>10.908</ele>
        <time>2021-07-08T09:23:48Z</time>
      </trkpt>
      <trkpt lat="41.047750" lon="0.996410">
        <ele>10.198</ele>
        <time>2021-07-08T09:24:08Z</time>
      </trkpt>
      <trkpt lat="41.047920" lon="0.996850">
        <ele>9.237</ele>
        <time>2021-07-08T09:24:28Z</time>
      </trkpt>
      <trkpt lat="41.047650" lon="0.997150">
        <ele>10.081</ele>
        <time>2021-07-08T09:24:48Z</time>
      </trkpt>
      <trkpt lat="41.056400" lon="1.016640">
        <ele>9.195</ele>
        <time>2021-07-08T09:25:28Z</time>
      </trkpt>
      <trkpt lat="41.056690" lon="1.016730">
        <ele>8.918</ele>
        <time>2021-07-08T09:25:48Z</time>
      </trkpt>
      <trkpt lat="41.056940" lon="1.017280">
        <ele>9.094</ele>
        <time>2021-07-08T09:26:08Z</time>
      </trkpt>
      <trkpt lat="41.056630" lon="1.018120">
        <ele>9.369</ele>
        <time>2021-07-08T09:26:28Z</time>
      </trkpt>
      <trkpt lat="41.052620" lon="1.023300">
        <ele>5.949</ele>
        <time>2021-07-08T09:26:48Z</time>
      </trkpt>
      <trkpt lat="41.054570" lon="1.026070">
        <ele>4.227</ele>
        <time>2021-07-08T09:27:08Z</time>
      </trkpt>
      <trkpt lat="41.055370" lon="1.027910">
        <ele>7.768</ele>
        <time>2021-07-08T09:27:28Z</time>
      </trkpt>
      <trkpt lat="41.057190" lon="1.030740">
        <ele>4.914</ele>
        <time>2021-07-08T09:28:08Z</time>
      </trkpt>
      <trkpt lat="41.057500" lon="1.032450">
        <ele>5.308</ele>
        <time>2021-07-08T09:28:48Z</time>
      </trkpt>
      <trkpt lat="41.058660" lon="1.035420">
        <ele>3.239</ele>
        <time>2021-07-08T09:29:08Z</time>
      </trkpt>
      <trkpt lat="41.058550" lon="1.035740">
        <ele>1.878</ele>
        <time>2021-07-08T09:29:28Z</time>
      </trkpt>
      <trkpt lat="41.059230" lon="1.038260">
        <ele>3.072</ele>
        <time>2021-07-08T09:29:48Z</time>
      </trkpt>
      <trkpt lat="41.059820" lon="1.039120">
        <ele>4.596</ele>
        <time>2021-07-08T09:30:28Z</time>
      </trkpt>
      <trkpt lat="41.060840" lon="1.039920">
        <ele>7.659</ele>
        <time>2021-07-08T09:30:48Z</time>
      </trkpt>
      <trkpt lat="41.061430" lon="1.040830">
        <ele>9.225</ele>
        <time>2021-07-08T09:31:08Z</time>
      </trkpt>
      <trkpt lat="41.061720" lon="1.042340">
        <ele>5.340</ele>
        <time>2021-07-08T09:31:28Z</time>
      </trkpt>
      <trkpt lat="41.061490" lon="1.043410">
        <ele>7.210</ele>
        <time>2021-07-08T09:31:48Z</time>
      </trkpt>
      <trkpt lat="41.062650" lon="1.044660">
        <ele>5.798</ele>
        <time>2021-07-08T09:32:28Z</time>
      </trkpt>
      <trkpt lat="41.063360" lon="1.045870">
        <ele>9.115</ele>
        <time>2021-07-08T09:32:48Z</time>
      </trkpt>
      <trkpt lat="41.063430" lon="1.046640">
        <ele>3.726</ele>
        <time>2021-07-08T09:33:08Z</time>
      </trkpt>
      <trkpt lat="41.064840" lon="1.051080">
        <ele>3.408</ele>
        <time>2021-07-08T09:33:48Z</time>
      </trkpt>
      <trkpt lat="41.064770" lon="1.053030">
        <ele>8.876</ele>
        <time>2021-07-08T09:34:08Z</time>
      </trkpt>
      <trkpt lat="41.064290" lon="1.054110">
        <ele>6.985</ele>
        <time>2021-07-08T09:34:28Z</time>
      </trkpt>
      <trkpt lat="41.064300" lon="1.055660">
        <ele>0.019</ele>
        <time>2021-07-08T09:34:48Z</time>
      </trkpt>
      <trkpt lat="41.063970" lon="1.055760">
        <ele>0.023</ele>
        <time>2021-07-08T09:35:08Z</time>
      </trkpt>
      <trkpt lat="41.064110" lon="1.057950">
        <ele>4.746</ele>
        <time>2021-07-08T09:35:48Z</time>
      </trkpt>
      <trkpt lat="41.064420" lon="1.058220">
        <ele>7.752</ele>
        <time>2021-07-08T09:36:08Z</time>
      </trkpt>
      <trkpt lat="41.065380" lon="1.061250">
        <ele>4.187</ele>
        <time>2021-07-08T09:36:48Z</time>
      </trkpt>
      <trkpt lat="41.066850" lon="1.069550">
        <ele>3.947</ele>
        <time>2021-07-08T09:37:48Z</time>
      </trkpt>
      <trkpt lat="41.066880" lon="1.072640">
        <ele>3.526</ele>
        <time>2021-07-08T09:38:28Z</time>
      </trkpt>
      <trkpt lat="41.066670" lon="1.072750">
        <ele>5.847</ele>
        <time>2021-07-08T09:38:48Z</time>
      </trkpt>
      <trkpt lat="41.066720" lon="1.073320">
        <ele>5.611</ele>
        <time>2021-07-08T09:39:08Z</time>
      </trkpt>
      <trkpt lat="41.065150" lon="1.075730">
        <ele>4.808</ele>
        <time>2021-07-08T09:39:48Z</time>
      </trkpt>
      <trkpt lat="41.064610" lon="1.077220">
        <ele>5.239</ele>
        <time>2021-07-08T09:40:08Z</time>
      </trkpt>
      <trkpt lat="41.064530" lon="1.080210">
        <ele>2.248</ele>
        <time>2021-07-08T09:40:28Z</time>
      </trkpt>
      <trkpt lat="41.064160" lon="1.081310">
        <ele>0.042</ele>
        <time>2021-07-08T09:40:48Z</time>
      </trkpt>
      <trkpt lat="41.064050" lon="1.083290">
        <ele>3.386</ele>
        <time>2021-07-08T09:41:08Z</time>
      </trkpt>
      <trkpt lat="41.064800" lon="1.086090">
        <ele>1.969</ele>
        <time>2021-07-08T09:41:28Z</time>
      </trkpt>
      <trkpt lat="41.068160" lon="1.094810">
        <ele>10.385</ele>
        <time>2021-07-08T09:42:48Z</time>
      </trkpt>
      <trkpt lat="41.068490" lon="1.096720">
        <ele>7.410</ele>
        <time>2021-07-08T09:43:08Z</time>
      </trkpt>
      <trkpt lat="41.070980" lon="1.103470">
        <ele>5.220</ele>
        <time>2021-07-08T09:44:28Z</time>
      </trkpt>
      <trkpt lat="41.071390" lon="1.105140">
        <ele>7.587</ele>
        <time>2021-07-08T09:44:48Z</time>
      </trkpt>
      <trkpt lat="41.072370" lon="1.112870">
        <ele>3.442</ele>
        <time>2021-07-08T09:45:48Z</time>
      </trkpt>
      <trkpt lat="41.074330" lon="1.118390">
        <ele>5.426</ele>
        <time>2021-07-08T09:46:08Z</time>
      </trkpt>
      <trkpt lat="41.075110" lon="1.124280">
        <ele>5.308</ele>
        <time>2021-07-08T09:46:28Z</time>
      </trkpt>
      <trkpt lat="41.075550" lon="1.131760">
        <ele>3.365</ele>
        <time>2021-07-08T09:46:48Z</time>
      </trkpt>
      <trkpt lat="41.075200" lon="1.132200">
        <ele>1.134</ele>
        <time>2021-07-08T09:47:08Z</time>
      </trkpt>
      <trkpt lat="41.074260" lon="1.140440">
        <ele>2.698</ele>
        <time>2021-07-08T09:47:48Z</time>
      </trkpt>
      <trkpt lat="41.073380" lon="1.143310">
        <ele>4.832</ele>
        <time>2021-07-08T09:48:08Z</time>
      </trkpt>
      <trkpt lat="41.073540" lon="1.143410">
        <ele>5.685</ele>
        <time>2021-07-08T09:48:28Z</time>
      </trkpt>
      <trkpt lat="41.072940" lon="1.144620">
        <ele>2.691</ele>
        <time>2021-07-08T09:48:48Z</time>
      </trkpt>
      <trkpt lat="41.076370" lon="1.148100">
        <ele>6.066</ele>
        <time>2021-07-08T09:49:28Z</time>
      </trkpt>
      <trkpt lat="41.078370" lon="1.152270">
        <ele>21.496</ele>
        <time>2021-07-08T09:50:28Z</time>
      </trkpt>
      <trkpt lat="41.078870" lon="1.154620">
        <ele>26.981</ele>
        <time>2021-07-08T09:50:48Z</time>
      </trkpt>
      <trkpt lat="41.084640" lon="1.169260">
        <ele>6.561</ele>
        <time>2021-07-08T09:51:48Z</time>
      </trkpt>
      <trkpt lat="41.085980" lon="1.170990">
        <ele>3.217</ele>
        <time>2021-07-08T09:52:08Z</time>
      </trkpt>
      <trkpt lat="41.086920" lon="1.171780">
        <ele>4.608</ele>
        <time>2021-07-08T09:52:28Z</time>
      </trkpt>
      <trkpt lat="41.092040" lon="1.174510">
        <ele>6.915</ele>
        <time>2021-07-08T09:53:08Z</time>
      </trkpt>
      <trkpt lat="41.094310" lon="1.177000">
        <ele>6.164</ele>
        <time>2021-07-08T09:53:48Z</time>
      </trkpt>
      <trkpt lat="41.100520" lon="1.186970">
        <ele>9.298</ele>
        <time>2021-07-08T09:54:08Z</time>
      </trkpt>
      <trkpt lat="41.102220" lon="1.192720">
        <ele>8.032</ele>
        <time>2021-07-08T09:54:48Z</time>
      </trkpt>
      <trkpt lat="41.104410" lon="1.198150">
        <ele>6.495</ele>
        <time>2021-07-08T09:55:08Z</time>
      </trkpt>
      <trkpt lat="41.104950" lon="1.202970">
        <ele>6.571</ele>
        <time>2021-07-08T09:55:48Z</time>
      </trkpt>
      <trkpt lat="41.105930" lon="1.206360">
        <ele>11.546</ele>
        <time>2021-07-08T09:56:08Z</time>
      </trkpt>
      <trkpt lat="41.106010" lon="1.208080">
        <ele>5.036</ele>
        <time>2021-07-08T09:56:28Z</time>
      </trkpt>
      <trkpt lat="41.105720" lon="1.208620">
        <ele>5.425</ele>
        <time>2021-07-08T09:57:08Z</time>
      </trkpt>
      <trkpt lat="41.106050" lon="1.208900">
        <ele>4.226</ele>
        <time>2021-07-08T09:57:28Z</time>
      </trkpt>
      <trkpt lat="41.106490" lon="1.210000">
        <ele>2.708</ele>
        <time>2021-07-08T09:57:48Z</time>
      </trkpt>
      <trkpt lat="41.107650" lon="1.210950">
        <ele>4.808</ele>
        <time>2021-07-08T09:58:28Z</time>
      </trkpt>
      <trkpt lat="41.111640" lon="1.211240">
        <ele>5.079</ele>
        <time>2021-07-08T09:59:08Z</time>
      </trkpt>
      <trkpt lat="41.112440" lon="1.211950">
        <ele>8.098</ele>
        <time>2021-07-08T09:59:28Z</time>
      </trkpt>
      <trkpt lat="41.113570" lon="1.216960">
        <ele>9.182</ele>
        <time>2021-07-08T10:00:08Z</time>
      </trkpt>
      <trkpt lat="41.113670" lon="1.232870">
        <ele>5.056</ele>
        <time>2021-07-08T10:00:48Z</time>
      </trkpt>
      <trkpt lat="41.115750" lon="1.232880">
        <ele>6.699</ele>
        <time>2021-07-08T10:01:28Z</time>
      </trkpt>
      <trkpt lat="41.115940" lon="1.235010">
        <ele>5.885</ele>
        <time>2021-07-08T10:02:08Z</time>
      </trkpt>
      <trkpt lat="41.116180" lon="1.235340">
        <ele>6.690</ele>
        <time>2021-07-08T10:02:28Z</time>
      </trkpt>
      <trkpt lat="41.116020" lon="1.245160">
        <ele>37.250</ele>
        <time>2021-07-08T10:03:08Z</time>
      </trkpt>
      <trkpt lat="41.117150" lon="1.249130">
        <ele>49.764</ele>
        <time>2021-07-08T10:03:28Z</time>
      </trkpt>
      <trkpt lat="41.113820" lon="1.256460">
        <ele>45.806</ele>
        <time>2021-07-08T10:04:08Z</time>
      </trkpt>
      <trkpt lat="41.114250" lon="1.257090">
        <ele>52.016</ele>
        <time>2021-07-08T10:04:28Z</time>
      </trkpt>
      <trkpt lat="41.115460" lon="1.257620">
        <ele>45.208</ele>
        <time>2021-07-08T10:05:08Z</time>
      </trkpt>
      <trkpt lat="41.117310" lon="1.264670">
        <ele>38.633</ele>
        <time>2021-07-08T10:05:28Z</time>
      </trkpt>
      <trkpt lat="41.116040" lon="1.265420">
        <ele>26.382</ele>
        <time>2021-07-08T10:05:48Z</time>
      </trkpt>
      <trkpt lat="41.116530" lon="1.266970">
        <ele>25.986</ele>
        <time>2021-07-08T10:06:08Z</time>
      </trkpt>
      <trkpt lat="41.115930" lon="1.267450">
        <ele>26.770</ele>
        <time>2021-07-08T10:06:48Z</time>
      </trkpt>
      <trkpt lat="41.116310" lon="1.268560">
        <ele>25.733</ele>
        <time>2021-07-08T10:07:08Z</time>
      </trkpt>
      <trkpt lat="41.116300" lon="1.269420">
        <ele>25.429</ele>
        <time>2021-07-08T10:07:28Z</time>
      </trkpt>
      <trkpt lat="41.117960" lon="1.273260">
        <ele>8.914</ele>
        <time>2021-07-08T10:08:28Z</time>
      </trkpt>
      <trkpt lat="41.117710" lon="1.273530">
        <ele>7.844</ele>
        <time>2021-07-08T10:08:48Z</time>
      </trkpt>
      <trkpt lat="41.118410" lon="1.273690">
        <ele>6.855</ele>
        <time>2021-07-08T10:09:08Z</time>
      </trkpt>
      <trkpt lat="41.119150" lon="1.274420">
        <ele>3.807</ele>
        <time>2021-07-08T10:09:28Z</time>
      </trkpt>
      <trkpt lat="41.120980" lon="1.279010">
        <ele>4.817</ele>
        <time>2021-07-08T10:09:48Z</time>
      </trkpt>
      <trkpt lat="41.120510" lon="1.279510">
        <ele>2.008</ele>
        <time>2021-07-08T10:10:28Z</time>
      </trkpt>
      <trkpt lat="41.120080" lon="1.281250">
        <ele>4.632</ele>
        <time>2021-07-08T10:11:28Z</time>
      </trkpt>
      <trkpt lat="41.120200" lon="1.282050">
        <ele>5.841</ele>
        <time>2021-07-08T10:11:48Z</time>
      </trkpt>
      <trkpt lat="41.120730" lon="1.281990">
        <ele>8.865</ele>
        <time>2021-07-08T10:12:28Z</time>
      </trkpt>
      <trkpt lat="41.121130" lon="1.282460">
        <ele>8.699</ele>
        <time>2021-07-08T10:13:08Z</time>
      </trkpt>
      <trkpt lat="41.121170" lon="1.283390">
        <ele>6.012</ele>
        <time>2021-07-08T10:13:28Z</time>
      </trkpt>
      <trkpt lat="41.121740" lon="1.284020">
        <ele>0.698</ele>
        <time>2021-07-08T10:14:08Z</time>
      </trkpt>
      <trkpt lat="41.122380" lon="1.283890">
        <ele>3.613</ele>
        <time>2021-07-08T10:14:28Z</time>
      </trkpt>
      <trkpt lat="41.122780" lon="1.283200">
        <ele>10.023</ele>
        <time>2021-07-08T10:14:48Z</time>
      </trkpt>
      <trkpt lat="41.123430" lon="1.284950">
        <ele>9.071</ele>
        <time>2021-07-08T10:15:08Z</time>
      </trkpt>
      <trkpt lat="41.123360" lon="1.285520">
        <ele>5.641</ele>
        <time>2021-07-08T10:15:28Z</time>
      </trkpt>
      <trkpt lat="41.124020" lon="1.286920">
        <ele>9.415</ele>
        <time>2021-07-08T10:15:48Z</time>
      </trkpt>
      <trkpt lat="41.123770" lon="1.288520">
        <ele>7.108</ele>
        <time>2021-07-08T10:17:08Z</time>
      </trkpt>
      <trkpt lat="41.124500" lon="1.289500">
        <ele>9.254</ele>
        <time>2021-07-08T10:17:48Z</time>
      </trkpt>
      <trkpt lat="41.124620" lon="1.290660">
        <ele>4.153</ele>
        <time>2021-07-08T10:18:28Z</time>
      </trkpt>
      <trkpt lat="41.124900" lon="1.290890">
        <ele>4.937</ele>
        <time>2021-07-08T10:18:48Z</time>
      </trkpt>
      <trkpt lat="41.125180" lon="1.290640">
        <ele>7.881</ele>
        <time>2021-07-08T10:19:28Z</time>
      </trkpt>
      <trkpt lat="41.125120" lon="1.290890">
        <ele>6.014</ele>
        <time>2021-07-08T10:19:48Z</time>
      </trkpt>
      <trkpt lat="41.125340" lon="1.291020">
        <ele>6.190</ele>
        <time>2021-07-08T10:20:08Z</time>
      </trkpt>
      <trkpt lat="41.125890" lon="1.292750">
        <ele>4.555</ele>
        <time>2021-07-08T10:21:08Z</time>
      </trkpt>
      <trkpt lat="41.126330" lon="1.292530">
        <ele>8.685</ele>
        <time>2021-07-08T10:21:28Z</time>
      </trkpt>
      <trkpt lat="41.128040" lon="1.297070">
        <ele>6.756</ele>
        <time>2021-07-08T10:22:08Z</time>
      </trkpt>
      <trkpt lat="41.128590" lon="1.300750">
        <ele>0.059</ele>
        <time>2021-07-08T10:22:28Z</time>
      </trkpt>
      <trkpt lat="41.129230" lon="1.300930">
        <ele>5.414</ele>
        <time>2021-07-08T10:22:48Z</time>
      </trkpt>
      <trkpt lat="41.128890" lon="1.301640">
        <ele>0.908</ele>
        <time>2021-07-08T10:23:08Z</time>
      </trkpt>
      <trkpt lat="41.128960" lon="1.302420">
        <ele>0.932</ele>
        <time>2021-07-08T10:23:28Z</time>
      </trkpt>
      <trkpt lat="41.129480" lon="1.303340">
        <ele>3.811</ele>
        <time>2021-07-08T10:24:08Z</time>
      </trkpt>
      <trkpt lat="41.129760" lon="1.303320">
        <ele>3.185</ele>
        <time>2021-07-08T10:24:48Z</time>
      </trkpt>
      <trkpt lat="41.130290" lon="1.307990">
        <ele>2.069</ele>
        <time>2021-07-08T10:25:28Z</time>
      </trkpt>
      <trkpt lat="41.130550" lon="1.307950">
        <ele>1.082</ele>
        <time>2021-07-08T10:25:48Z</time>
      </trkpt>
      <trkpt lat="41.130540" lon="1.307310">
        <ele>1.858</ele>
        <time>2021-07-08T10:26:08Z</time>
      </trkpt>
      <trkpt lat="41.131150" lon="1.306950">
        <ele>7.783</ele>
        <time>2021-07-08T10:26:28Z</time>
      </trkpt>
      <trkpt lat="41.132080" lon="1.306990">
        <ele>18.153</ele>
        <time>2021-07-08T10:26:48Z</time>
      </trkpt>
      <trkpt lat="41.132370" lon="1.308100">
        <ele>14.073</ele>
        <time>2021-07-08T10:27:28Z</time>
      </trkpt>
      <trkpt lat="41.131950" lon="1.313920">
        <ele>6.085</ele>
        <time>2021-07-08T10:28:08Z</time>
      </trkpt>
      <trkpt lat="41.131630" lon="1.315590">
        <ele>9.613</ele>
        <time>2021-07-08T10:28:28Z</time>
      </trkpt>
      <trkpt lat="41.131690" lon="1.318700">
        <ele>13.208</ele>
        <time>2021-07-08T10:28:48Z</time>
      </trkpt>
      <trkpt lat="41.131990" lon="1.320330">
        <ele>9.864</ele>
        <time>2021-07-08T10:29:08Z</time>
      </trkpt>
      <trkpt lat="41.132440" lon="1.326840">
        <ele>12.553</ele>
        <time>2021-07-08T10:29:28Z</time>
      </trkpt>
      <trkpt lat="41.137960" lon="1.344500">
        <ele>10.297</ele>
        <time>2021-07-08T10:30:08Z</time>
      </trkpt>
      <trkpt lat="41.138450" lon="1.345360">
        <ele>15.121</ele>
        <time>2021-07-08T10:30:28Z</time>
      </trkpt>
      <trkpt lat="41.139220" lon="1.349080">
        <ele>15.334</ele>
        <time>2021-07-08T10:31:08Z</time>
      </trkpt>
      <trkpt lat="41.139060" lon="1.352620">
        <ele>12.690</ele>
        <time>2021-07-08T10:31:28Z</time>
      </trkpt>
      <trkpt lat="41.138790" lon="1.353270">
        <ele>15.875</ele>
        <time>2021-07-08T10:31:48Z</time>
      </trkpt>
      <trkpt lat="41.138490" lon="1.353190">
        <ele>22.475</ele>
        <time>2021-07-08T10:32:08Z</time>
      </trkpt>
      <trkpt lat="41.138480" lon="1.352770">
        <ele>23.776</ele>
        <time>2021-07-08T10:32:28Z</time>
      </trkpt>
      <trkpt lat="41.138260" lon="1.352930">
        <ele>28.990</ele>
        <time>2021-07-08T10:32:48Z</time>
      </trkpt>
      <trkpt lat="41.138510" lon="1.353390">
        <ele>19.419</ele>
        <time>2021-07-08T10:33:28Z</time>
      </trkpt>
      <trkpt lat="41.137890" lon="1.355570">
        <ele>10.408</ele>
        <time>2021-07-08T10:34:08Z</time>
      </trkpt>
      <trkpt lat="41.136050" lon="1.355790">
        <ele>6.354</ele>
        <time>2021-07-08T10:34:48Z</time>
      </trkpt>
      <trkpt lat="41.134960" lon="1.356760">
        <ele>4.613</ele>
        <time>2021-07-08T10:35:28Z</time>
      </trkpt>
      <trkpt lat="41.134820" lon="1.357300">
        <ele>2.417</ele>
        <time>2021-07-08T10:35:48Z</time>
      </trkpt>
      <trkpt lat="41.133630" lon="1.358920">
        <ele>3.021</ele>
        <time>2021-07-08T10:36:08Z</time>
      </trkpt>
      <trkpt lat="41.133320" lon="1.359810">
        <ele>3.314</ele>
        <time>2021-07-08T10:36:28Z</time>
      </trkpt>
      <trkpt lat="41.130780" lon="1.360610">
        <ele>10.110</ele>
        <time>2021-07-08T10:37:48Z</time>
      </trkpt>
      <trkpt lat="41.130830" lon="1.361440">
        <ele>5.955</ele>
        <time>2021-07-08T10:38:08Z</time>
      </trkpt>
      <trkpt lat="41.130530" lon="1.361720">
        <ele>6.375</ele>
        <time>2021-07-08T10:38:28Z</time>
      </trkpt>
      <trkpt lat="41.132100" lon="1.369820">
        <ele>0.699</ele>
        <time>2021-07-08T10:40:08Z</time>
      </trkpt>
      <trkpt lat="41.132830" lon="1.371030">
        <ele>0.407</ele>
        <time>2021-07-08T10:40:28Z</time>
      </trkpt>
      <trkpt lat="41.133840" lon="1.375290">
        <ele>2.427</ele>
        <time>2021-07-08T10:40:48Z</time>
      </trkpt>
      <trkpt lat="41.133710" lon="1.375450">
        <ele>0.808</ele>
        <time>2021-07-08T10:41:08Z</time>
      </trkpt>
      <trkpt lat="41.134780" lon="1.382550">
        <ele>3.426</ele>
        <time>2021-07-08T10:41:28Z</time>
      </trkpt>
      <trkpt lat="41.135600" lon="1.383680">
        <ele>9.355</ele>
        <time>2021-07-08T10:41:48Z</time>
      </trkpt>
      <trkpt lat="41.135060" lon="1.384230">
        <ele>7.469</ele>
        <time>2021-07-08T10:42:08Z</time>
      </trkpt>
      <trkpt lat="41.135320" lon="1.385270">
        <ele>8.373</ele>
        <time>2021-07-08T10:42:28Z</time>
      </trkpt>
      <trkpt lat="41.134880" lon="1.385900">
        <ele>9.276</ele>
        <time>2021-07-08T10:42:48Z</time>
      </trkpt>
      <trkpt lat="41.133620" lon="1.386560">
        <ele>16.322</ele>
        <time>2021-07-08T10:43:28Z</time>
      </trkpt>
      <trkpt lat="41.132970" lon="1.386420">
        <ele>13.697</ele>
        <time>2021-07-08T10:44:28Z</time>
      </trkpt>
      <trkpt lat="41.132560" lon="1.388720">
        <ele>10.057</ele>
        <time>2021-07-08T10:45:48Z</time>
      </trkpt>
      <trkpt lat="41.133060" lon="1.390120">
        <ele>14.117</ele>
        <time>2021-07-08T10:46:28Z</time>
      </trkpt>
      <trkpt lat="41.132850" lon="1.391940">
        <ele>18.087</ele>
        <time>2021-07-08T10:47:08Z</time>
      </trkpt>
      <trkpt lat="41.132510" lon="1.391980">
        <ele>16.215</ele>
        <time>2021-07-08T10:47:28Z</time>
      </trkpt>
      <trkpt lat="41.132450" lon="1.393790">
        <ele>23.308</ele>
        <time>2021-07-08T10:47:48Z</time>
      </trkpt>
      <trkpt lat="41.133390" lon="1.393890">
        <ele>27.468</ele>
        <time>2021-07-08T10:48:08Z</time>
      </trkpt>
      <trkpt lat="41.133990" lon="1.396200">
        <ele>20.787</ele>
        <time>2021-07-08T10:48:28Z</time>
      </trkpt>
      <trkpt lat="41.133270" lon="1.396490">
        <ele>10.631</ele>
        <time>2021-07-08T10:48:48Z</time>
      </trkpt>
      <trkpt lat="41.134230" lon="1.398710">
        <ele>15.555</ele>
        <time>2021-07-08T10:49:48Z</time>
      </trkpt>
      <trkpt lat="41.134980" lon="1.399530">
        <ele>15.318</ele>
        <time>2021-07-08T10:50:08Z</time>
      </trkpt>
      <trkpt lat="41.135140" lon="1.400220">
        <ele>8.144</ele>
        <time>2021-07-08T10:50:28Z</time>
      </trkpt>
      <trkpt lat="41.135630" lon="1.400130">
        <ele>15.639</ele>
        <time>2021-07-08T10:50:48Z</time>
      </trkpt>
      <trkpt lat="41.135780" lon="1.400540">
        <ele>10.599</ele>
        <time>2021-07-08T10:51:08Z</time>
      </trkpt>
      <trkpt lat="41.136450" lon="1.400640">
        <ele>14.243</ele>
        <time>2021-07-08T10:51:28Z</time>
      </trkpt>
      <trkpt lat="41.136890" lon="1.401630">
        <ele>4.464</ele>
        <time>2021-07-08T10:51:48Z</time>
      </trkpt>
      <trkpt lat="41.138450" lon="1.401880">
        <ele>7.710</ele>
        <time>2021-07-08T10:53:08Z</time>
      </trkpt>
      <trkpt lat="41.140750" lon="1.404210">
        <ele>9.008</ele>
        <time>2021-07-08T10:53:28Z</time>
      </trkpt>
      <trkpt lat="41.143500" lon="1.412120">
        <ele>5.891</ele>
        <time>2021-07-08T10:54:28Z</time>
      </trkpt>
      <trkpt lat="41.144120" lon="1.411580">
        <ele>6.850</ele>
        <time>2021-07-08T10:54:48Z</time>
      </trkpt>
      <trkpt lat="41.144600" lon="1.412640">
        <ele>4.284</ele>
        <time>2021-07-08T10:55:08Z</time>
      </trkpt>
      <trkpt lat="41.144780" lon="1.412090">
        <ele>3.098</ele>
        <time>2021-07-08T10:55:28Z</time>
      </trkpt>
      <trkpt lat="41.145590" lon="1.414030">
        <ele>1.931</ele>
        <time>2021-07-08T10:55:48Z</time>
      </trkpt>
      <trkpt lat="41.147160" lon="1.413570">
        <ele>2.417</ele>
        <time>2021-07-08T10:56:28Z</time>
      </trkpt>
      <trkpt lat="41.147710" lon="1.416020">
        <ele>3.042</ele>
        <time>2021-07-08T10:56:48Z</time>
      </trkpt>
      <trkpt lat="41.148460" lon="1.417860">
        <ele>5.432</ele>
        <time>2021-07-08T10:57:28Z</time>
      </trkpt>
      <trkpt lat="41.151750" lon="1.423110">
        <ele>3.869</ele>
        <time>2021-07-08T10:57:48Z</time>
      </trkpt>
      <trkpt lat="41.151720" lon="1.423400">
        <ele>3.204</ele>
        <time>2021-07-08T10:58:08Z</time>
      </trkpt>
      <trkpt lat="41.155460" lon="1.428700">
        <ele>4.924</ele>
        <time>2021-07-08T10:58:28Z</time>
      </trkpt>
      <trkpt lat="41.159010" lon="1.434430">
        <ele>5.908</ele>
        <time>2021-07-08T10:58:48Z</time>
      </trkpt>
      <trkpt lat="41.160890" lon="1.436490">
        <ele>8.143</ele>
        <time>2021-07-08T10:59:08Z</time>
      </trkpt>
      <trkpt lat="41.161630" lon="1.438000">
        <ele>9.062</ele>
        <time>2021-07-08T10:59:48Z</time>
      </trkpt>
      <trkpt lat="41.162920" lon="1.443230">
        <ele>10.436</ele>
        <time>2021-07-08T11:00:08Z</time>
      </trkpt>
      <trkpt lat="41.166160" lon="1.451940">
        <ele>7.210</ele>
        <time>2021-07-08T11:00:28Z</time>
      </trkpt>
      <trkpt lat="41.167760" lon="1.458710">
        <ele>8.073</ele>
        <time>2021-07-08T11:01:28Z</time>
      </trkpt>
      <trkpt lat="41.169600" lon="1.463320">
        <ele>11.869</ele>
        <time>2021-07-08T11:02:08Z</time>
      </trkpt>
      <trkpt lat="41.172330" lon="1.467580">
        <ele>11.684</ele>
        <time>2021-07-08T11:02:28Z</time>
      </trkpt>
      <trkpt lat="41.173080" lon="1.469130">
        <ele>15.194</ele>
        <time>2021-07-08T11:02:48Z</time>
      </trkpt>
      <trkpt lat="41.176330" lon="1.473980">
        <ele>30.352</ele>
        <time>2021-07-08T11:03:28Z</time>
      </trkpt>
      <trkpt lat="41.177540" lon="1.480630">
        <ele>26.153</ele>
        <time>2021-07-08T11:04:08Z</time>
      </trkpt>
      <trkpt lat="41.177980" lon="1.489550">
        <ele>18.508</ele>
        <time>2021-07-08T11:04:48Z</time>
      </trkpt>
      <trkpt lat="41.178170" lon="1.489750">
        <ele>18.408</ele>
        <time>2021-07-08T11:05:08Z</time>
      </trkpt>
      <trkpt lat="41.178830" lon="1.498510">
        <ele>19.472</ele>
        <time>2021-07-08T11:05:28Z</time>
      </trkpt>
      <trkpt lat="41.179380" lon="1.500270">
        <ele>20.031</ele>
        <time>2021-07-08T11:05:48Z</time>
      </trkpt>
      <trkpt lat="41.177570" lon="1.501460">
        <ele>13.885</ele>
        <time>2021-07-08T11:06:08Z</time>
      </trkpt>
      <trkpt lat="41.178330" lon="1.503240">
        <ele>15.099</ele>
        <time>2021-07-08T11:06:28Z</time>
      </trkpt>
      <trkpt lat="41.176580" lon="1.504620">
        <ele>9.442</ele>
        <time>2021-07-08T11:06:48Z</time>
      </trkpt>
      <trkpt lat="41.176660" lon="1.504900">
        <ele>8.388</ele>
        <time>2021-07-08T11:07:08Z</time>
      </trkpt>
      <trkpt lat="41.176420" lon="1.505080">
        <ele>6.863</ele>
        <time>2021-07-08T11:07:28Z</time>
      </trkpt>
      <trkpt lat="41.177300" lon="1.508450">
        <ele>8.423</ele>
        <time>2021-07-08T11:07:48Z</time>
      </trkpt>
      <trkpt lat="41.176930" lon="1.509670">
        <ele>12.797</ele>
        <time>2021-07-08T11:08:08Z</time>
      </trkpt>
      <trkpt lat="41.176790" lon="1.509080">
        <ele>9.423</ele>
        <time>2021-07-08T11:08:28Z</time>
      </trkpt>
      <trkpt lat="41.177850" lon="1.512440">
        <ele>7.725</ele>
        <time>2021-07-08T11:09:08Z</time>
      </trkpt>
      <trkpt lat="41.180860" lon="1.524910">
        <ele>7.308</ele>
        <time>2021-07-08T11:09:48Z</time>
      </trkpt>
      <trkpt lat="41.182660" lon="1.536650">
        <ele>12.096</ele>
        <time>2021-07-08T11:10:08Z</time>
      </trkpt>
      <trkpt lat="41.183780" lon="1.546530">
        <ele>6.675</ele>
        <time>2021-07-08T11:10:28Z</time>
      </trkpt>
      <trkpt lat="41.184400" lon="1.546400">
        <ele>7.969</ele>
        <time>2021-07-08T11:10:48Z</time>
      </trkpt>
      <trkpt lat="41.185440" lon="1.555500">
        <ele>3.813</ele>
        <time>2021-07-08T11:11:08Z</time>
      </trkpt>
      <trkpt lat="41.186550" lon="1.560500">
        <ele>2.826</ele>
        <time>2021-07-08T11:11:28Z</time>
      </trkpt>
      <trkpt lat="41.186920" lon="1.561140">
        <ele>1.272</ele>
        <time>2021-07-08T11:11:48Z</time>
      </trkpt>
      <trkpt lat="41.187140" lon="1.562500">
        <ele>4.097</ele>
        <time>2021-07-08T11:12:08Z</time>
      </trkpt>
      <trkpt lat="41.188320" lon="1.562480">
        <ele>5.017</ele>
        <time>2021-07-08T11:13:08Z</time>
      </trkpt>
      <trkpt lat="41.189550" lon="1.577960">
        <ele>4.924</ele>
        <time>2021-07-08T11:13:48Z</time>
      </trkpt>
      <trkpt lat="41.187840" lon="1.580130">
        <ele>12.504</ele>
        <time>2021-07-08T11:14:08Z</time>
      </trkpt>
      <trkpt lat="41.188810" lon="1.590720">
        <ele>7.914</ele>
        <time>2021-07-08T11:14:48Z</time>
      </trkpt>
      <trkpt lat="41.188750" lon="1.591920">
        <ele>6.708</ele>
        <time>2021-07-08T11:15:08Z</time>
      </trkpt>
      <trkpt lat="41.191290" lon="1.619240">
        <ele>5.989</ele>
        <time>2021-07-08T11:15:48Z</time>
      </trkpt>
      <trkpt lat="41.192640" lon="1.630760">
        <ele>9.388</ele>
        <time>2021-07-08T11:16:28Z</time>
      </trkpt>
      <trkpt lat="41.192980" lon="1.631340">
        <ele>5.872</ele>
        <time>2021-07-08T11:16:48Z</time>
      </trkpt>
      <trkpt lat="41.193410" lon="1.635060">
        <ele>2.456</ele>
        <time>2021-07-08T11:17:48Z</time>
      </trkpt>
      <trkpt lat="41.195270" lon="1.634490">
        <ele>8.269</ele>
        <time>2021-07-08T11:18:08Z</time>
      </trkpt>
      <trkpt lat="41.195370" lon="1.635200">
        <ele>9.375</ele>
        <time>2021-07-08T11:18:28Z</time>
      </trkpt>
      <trkpt lat="41.196000" lon="1.635030">
        <ele>12.630</ele>
        <time>2021-07-08T11:18:48Z</time>
      </trkpt>
      <trkpt lat="41.196580" lon="1.638130">
        <ele>10.070</ele>
        <time>2021-07-08T11:19:08Z</time>
      </trkpt>
      <trkpt lat="41.197670" lon="1.637430">
        <ele>12.399</ele>
        <time>2021-07-08T11:19:28Z</time>
      </trkpt>
      <trkpt lat="41.198460" lon="1.639980">
        <ele>11.607</ele>
        <time>2021-07-08T11:19:48Z</time>
      </trkpt>
      <trkpt lat="41.198910" lon="1.640140">
        <ele>10.727</ele>
        <time>2021-07-08T11:20:08Z</time>
      </trkpt>
      <trkpt lat="41.200470" lon="1.644580">
        <ele>10.208</ele>
        <time>2021-07-08T11:20:48Z</time>
      </trkpt>
      <trkpt lat="41.200450" lon="1.645220">
        <ele>10.926</ele>
        <time>2021-07-08T11:21:08Z</time>
      </trkpt>
      <trkpt lat="41.201440" lon="1.648260">
        <ele>7.545</ele>
        <time>2021-07-08T11:21:28Z</time>
      </trkpt>
      <trkpt lat="41.203360" lon="1.656750">
        <ele>10.829</ele>
        <time>2021-07-08T11:21:48Z</time>
      </trkpt>
      <trkpt lat="41.203720" lon="1.657380">
        <ele>12.653</ele>
        <time>2021-07-08T11:22:08Z</time>
      </trkpt>
      <trkpt lat="41.209060" lon="1.679680">
        <ele>8.466</ele>
        <time>2021-07-08T11:22:48Z</time>
      </trkpt>
      <trkpt lat="41.209120" lon="1.681080">
        <ele>7.072</ele>
        <time>2021-07-08T11:23:08Z</time>
      </trkpt>
      <trkpt lat="41.208700" lon="1.684250">
        <ele>8.697</ele>
        <time>2021-07-08T11:23:28Z</time>
      </trkpt>
      <trkpt lat="41.210000" lon="1.691070">
        <ele>18.957</ele>
        <time>2021-07-08T11:23:48Z</time>
      </trkpt>
      <trkpt lat="41.211390" lon="1.706320">
        <ele>25.841</ele>
        <time>2021-07-08T11:24:08Z</time>
      </trkpt>
      <trkpt lat="41.211680" lon="1.706620">
        <ele>26.881</ele>
        <time>2021-07-08T11:24:28Z</time>
      </trkpt>
      <trkpt lat="41.214840" lon="1.707100">
        <ele>15.009</ele>
        <time>2021-07-08T11:25:08Z</time>
      </trkpt>
      <trkpt lat="41.217910" lon="1.712730">
        <ele>24.508</ele>
        <time>2021-07-08T11:25:48Z</time>
      </trkpt>
      <trkpt lat="41.217920" lon="1.713280">
        <ele>22.151</ele>
        <time>2021-07-08T11:26:08Z</time>
      </trkpt>
      <trkpt lat="41.218110" lon="1.713370">
        <ele>22.380</ele>
        <time>2021-07-08T11:26:28Z</time>
      </trkpt>
      <trkpt lat="41.218970" lon="1.716260">
        <ele>16.794</ele>
        <time>2021-07-08T11:26:48Z</time>
      </trkpt>
      <trkpt lat="41.218840" lon="1.716410">
        <ele>15.138</ele>
        <time>2021-07-08T11:27:08Z</time>
      </trkpt>
      <trkpt lat="41.219670" lon="1.718910">
        <ele>17.721</ele>
        <time>2021-07-08T11:27:28Z</time>
      </trkpt>
      <trkpt lat="41.219400" lon="1.721460">
        <ele>17.667</ele>
        <time>2021-07-08T11:28:08Z</time>
      </trkpt>
      <trkpt lat="41.222680" lon="1.732190">
        <ele>9.812</ele>
        <time>2021-07-08T11:28:28Z</time>
      </trkpt>
      <trkpt lat="41.223280" lon="1.732840">
        <ele>10.242</ele>
        <time>2021-07-08T11:28:48Z</time>
      </trkpt>
      <trkpt lat="41.225430" lon="1.733300">
        <ele>18.149</ele>
        <time>2021-07-08T11:29:48Z</time>
      </trkpt>
      <trkpt lat="41.230640" lon="1.739400">
        <ele>27.602</ele>
        <time>2021-07-08T11:31:08Z</time>
      </trkpt>
      <trkpt lat="41.240000" lon="1.760090">
        <ele>58.022</ele>
        <time>2021-07-08T11:34:28Z</time>
      </trkpt>
      <trkpt lat="41.240370" lon="1.763980">
        <ele>50.008</ele>
        <time>2021-07-08T11:34:48Z</time>
      </trkpt>
      <trkpt lat="41.238630" lon="1.767020">
        <ele>50.711</ele>
        <time>2021-07-08T11:35:48Z</time>
      </trkpt>
      <trkpt lat="41.239110" lon="1.769240">
        <ele>45.530</ele>
        <time>2021-07-08T11:36:28Z</time>
      </trkpt>
      <trkpt lat="41.232320" lon="1.785130">
        <ele>13.984</ele>
        <time>2021-07-08T11:36:48Z</time>
      </trkpt>
      <trkpt lat="41.232070" lon="1.784930">
        <ele>11.188</ele>
        <time>2021-07-08T11:37:08Z</time>
      </trkpt>
      <trkpt lat="41.232070" lon="1.784930">
        <ele>11.141</ele>
        <time>2021-07-08T07:35:03Z</time>
      </trkpt>
      <trkpt lat="41.232320" lon="1.785130">
        <ele>13.981</ele>
        <time>2021-07-08T07:35:23Z</time>
      </trkpt>
      <trkpt lat="41.232130" lon="1.785650">
        <ele>14.009</ele>
        <time>2021-07-08T07:35:43Z</time>
      </trkpt>
      <trkpt lat="41.231910" lon="1.785810">
        <ele>13.908</ele>
        <time>2021-07-08T07:36:03Z</time>
      </trkpt>
      <trkpt lat="41.231960" lon="1.786180">
        <ele>12.881</ele>
        <time>2021-07-08T07:36:23Z</time>
      </trkpt>
      <trkpt lat="41.232410" lon="1.786390">
        <ele>11.310</ele>
        <time>2021-07-08T07:36:43Z</time>
      </trkpt>
      <trkpt lat="41.233470" lon="1.787960">
        <ele>14.834</ele>
        <time>2021-07-08T07:37:03Z</time>
      </trkpt>
      <trkpt lat="41.234180" lon="1.787090">
        <ele>22.568</ele>
        <time>2021-07-08T07:37:23Z</time>
      </trkpt>
      <trkpt lat="41.234240" lon="1.786780">
        <ele>24.092</ele>
        <time>2021-07-08T07:37:43Z</time>
      </trkpt>
      <trkpt lat="41.234590" lon="1.787100">
        <ele>22.277</ele>
        <time>2021-07-08T07:38:03Z</time>
      </trkpt>
      <trkpt lat="41.235140" lon="1.787880">
        <ele>23.073</ele>
        <time>2021-07-08T07:38:23Z</time>
      </trkpt>
      <trkpt lat="41.236490" lon="1.789220">
        <ele>26.046</ele>
        <time>2021-07-08T07:38:43Z</time>
      </trkpt>
      <trkpt lat="41.237910" lon="1.791860">
        <ele>25.139</ele>
        <time>2021-07-08T07:39:03Z</time>
      </trkpt>
      <trkpt lat="41.239780" lon="1.794670">
        <ele>32.601</ele>
        <time>2021-07-08T07:39:23Z</time>
      </trkpt>
      <trkpt lat="41.240530" lon="1.796220">
        <ele>31.421</ele>
        <time>2021-07-08T07:39:43Z</time>
      </trkpt>
      <trkpt lat="41.240150" lon="1.796590">
        <ele>28.408</ele>
        <time>2021-07-08T07:40:03Z</time>
      </trkpt>
      <trkpt lat="41.240780" lon="1.797910">
        <ele>37.430</ele>
        <time>2021-07-08T07:40:23Z</time>
      </trkpt>
      <trkpt lat="41.240640" lon="1.798420">
        <ele>38.269</ele>
        <time>2021-07-08T07:40:43Z</time>
      </trkpt>
      <trkpt lat="41.241110" lon="1.798930">
        <ele>34.683</ele>
        <time>2021-07-08T07:41:03Z</time>
      </trkpt>
      <trkpt lat="41.241360" lon="1.799800">
        <ele>30.187</ele>
        <time>2021-07-08T07:41:23Z</time>
      </trkpt>
      <trkpt lat="41.241760" lon="1.802810">
        <ele>24.881</ele>
        <time>2021-07-08T07:41:43Z</time>
      </trkpt>
      <trkpt lat="41.241680" lon="1.804790">
        <ele>24.236</ele>
        <time>2021-07-08T07:42:03Z</time>
      </trkpt>
      <trkpt lat="41.241570" lon="1.805440">
        <ele>24.012</ele>
        <time>2021-07-08T07:42:23Z</time>
      </trkpt>
      <trkpt lat="41.241370" lon="1.805760">
        <ele>22.215</ele>
        <time>2021-07-08T07:42:43Z</time>
      </trkpt>
      <trkpt lat="41.241460" lon="1.806080">
        <ele>23.433</ele>
        <time>2021-07-08T07:43:03Z</time>
      </trkpt>
      <trkpt lat="41.241370" lon="1.806800">
        <ele>24.923</ele>
        <time>2021-07-08T07:43:23Z</time>
      </trkpt>
      <trkpt lat="41.240540" lon="1.808700">
        <ele>25.315</ele>
        <time>2021-07-08T07:43:43Z</time>
      </trkpt>
      <trkpt lat="41.239900" lon="1.810700">
        <ele>34.508</ele>
        <time>2021-07-08T07:44:03Z</time>
      </trkpt>
      <trkpt lat="41.238990" lon="1.811600">
        <ele>26.310</ele>
        <time>2021-07-08T07:44:23Z</time>
      </trkpt>
      <trkpt lat="41.238860" lon="1.812070">
        <ele>24.899</ele>
        <time>2021-07-08T07:44:43Z</time>
      </trkpt>
      <trkpt lat="41.238890" lon="1.817790">
        <ele>28.133</ele>
        <time>2021-07-08T07:45:03Z</time>
      </trkpt>
      <trkpt lat="41.239070" lon="1.818080">
        <ele>30.347</ele>
        <time>2021-07-08T07:45:23Z</time>
      </trkpt>
      <trkpt lat="41.239140" lon="1.818920">
        <ele>29.031</ele>
        <time>2021-07-08T07:45:43Z</time>
      </trkpt>
      <trkpt lat="41.239690" lon="1.819600">
        <ele>25.476</ele>
        <time>2021-07-08T07:46:03Z</time>
      </trkpt>
      <trkpt lat="41.239760" lon="1.820090">
        <ele>25.062</ele>
        <time>2021-07-08T07:46:23Z</time>
      </trkpt>
      <trkpt lat="41.239350" lon="1.822270">
        <ele>23.345</ele>
        <time>2021-07-08T07:46:43Z</time>
      </trkpt>
      <trkpt lat="41.239060" lon="1.822770">
        <ele>21.272</ele>
        <time>2021-07-08T07:47:03Z</time>
      </trkpt>
      <trkpt lat="41.239140" lon="1.823390">
        <ele>23.713</ele>
        <time>2021-07-08T07:47:23Z</time>
      </trkpt>
      <trkpt lat="41.238670" lon="1.826040">
        <ele>18.514</ele>
        <time>2021-07-08T07:47:43Z</time>
      </trkpt>
      <trkpt lat="41.237520" lon="1.828890">
        <ele>23.108</ele>
        <time>2021-07-08T07:48:03Z</time>
      </trkpt>
      <trkpt lat="41.237660" lon="1.830040">
        <ele>30.054</ele>
        <time>2021-07-08T07:48:23Z</time>
      </trkpt>
      <trkpt lat="41.237410" lon="1.830630">
        <ele>25.953</ele>
        <time>2021-07-08T07:48:43Z</time>
      </trkpt>
      <trkpt lat="41.237530" lon="1.831400">
        <ele>29.497</ele>
        <time>2021-07-08T07:49:03Z</time>
      </trkpt>
      <trkpt lat="41.237290" lon="1.831950">
        <ele>31.531</ele>
        <time>2021-07-08T07:49:23Z</time>
      </trkpt>
      <trkpt lat="41.236630" lon="1.832230">
        <ele>27.365</ele>
        <time>2021-07-08T07:49:43Z</time>
      </trkpt>
      <trkpt lat="41.236250" lon="1.833310">
        <ele>27.580</ele>
        <time>2021-07-08T07:50:03Z</time>
      </trkpt>
      <trkpt lat="41.236170" lon="1.835600">
        <ele>23.446</ele>
        <time>2021-07-08T07:50:23Z</time>
      </trkpt>
      <trkpt lat="41.236870" lon="1.835910">
        <ele>42.429</ele>
        <time>2021-07-08T07:50:43Z</time>
      </trkpt>
      <trkpt lat="41.237030" lon="1.836290">
        <ele>42.088</ele>
        <time>2021-07-08T07:51:03Z</time>
      </trkpt>
      <trkpt lat="41.236370" lon="1.836960">
        <ele>32.724</ele>
        <time>2021-07-08T07:51:23Z</time>
      </trkpt>
      <trkpt lat="41.235820" lon="1.837880">
        <ele>26.526</ele>
        <time>2021-07-08T07:51:43Z</time>
      </trkpt>
      <trkpt lat="41.235760" lon="1.839770">
        <ele>31.808</ele>
        <time>2021-07-08T07:52:03Z</time>
      </trkpt>
      <trkpt lat="41.235870" lon="1.840070">
        <ele>29.785</ele>
        <time>2021-07-08T07:52:23Z</time>
      </trkpt>
      <trkpt lat="41.236310" lon="1.840400">
        <ele>34.434</ele>
        <time>2021-07-08T07:52:43Z</time>
      </trkpt>
      <trkpt lat="41.236250" lon="1.841450">
        <ele>29.258</ele>
        <time>2021-07-08T07:53:03Z</time>
      </trkpt>
      <trkpt lat="41.237390" lon="1.843450">
        <ele>44.712</ele>
        <time>2021-07-08T07:53:23Z</time>
      </trkpt>
      <trkpt lat="41.237210" lon="1.843730">
        <ele>45.256</ele>
        <time>2021-07-08T07:53:43Z</time>
      </trkpt>
      <trkpt lat="41.236730" lon="1.843820">
        <ele>50.711</ele>
        <time>2021-07-08T07:54:03Z</time>
      </trkpt>
      <trkpt lat="41.236000" lon="1.843200">
        <ele>43.377</ele>
        <time>2021-07-08T07:54:23Z</time>
      </trkpt>
      <trkpt lat="41.235730" lon="1.843400">
        <ele>42.180</ele>
        <time>2021-07-08T07:54:43Z</time>
      </trkpt>
      <trkpt lat="41.235620" lon="1.844970">
        <ele>50.175</ele>
        <time>2021-07-08T07:55:03Z</time>
      </trkpt>
      <trkpt lat="41.235980" lon="1.846500">
        <ele>60.528</ele>
        <time>2021-07-08T07:55:23Z</time>
      </trkpt>
      <trkpt lat="41.235760" lon="1.847060">
        <ele>46.820</ele>
        <time>2021-07-08T07:55:43Z</time>
      </trkpt>
      <trkpt lat="41.235700" lon="1.847940">
        <ele>50.808</ele>
        <time>2021-07-08T07:56:03Z</time>
      </trkpt>
      <trkpt lat="41.235810" lon="1.848410">
        <ele>63.524</ele>
        <time>2021-07-08T07:56:23Z</time>
      </trkpt>
      <trkpt lat="41.235520" lon="1.849110">
        <ele>52.993</ele>
        <time>2021-07-08T07:56:43Z</time>
      </trkpt>
      <trkpt lat="41.236090" lon="1.849620">
        <ele>67.197</ele>
        <time>2021-07-08T07:57:03Z</time>
      </trkpt>
      <trkpt lat="41.236170" lon="1.849860">
        <ele>67.671</ele>
        <time>2021-07-08T07:57:23Z</time>
      </trkpt>
      <trkpt lat="41.236060" lon="1.850150">
        <ele>62.775</ele>
        <time>2021-07-08T07:57:43Z</time>
      </trkpt>
      <trkpt lat="41.235320" lon="1.850740">
        <ele>43.780</ele>
        <time>2021-07-08T07:58:03Z</time>
      </trkpt>
      <trkpt lat="41.235350" lon="1.851990">
        <ele>53.696</ele>
        <time>2021-07-08T07:58:23Z</time>
      </trkpt>
      <trkpt lat="41.235030" lon="1.852350">
        <ele>38.259</ele>
        <time>2021-07-08T07:58:43Z</time>
      </trkpt>
      <trkpt lat="41.235000" lon="1.852960">
        <ele>40.359</ele>
        <time>2021-07-08T07:59:03Z</time>
      </trkpt>
      <trkpt lat="41.235550" lon="1.854830">
        <ele>34.503</ele>
        <time>2021-07-08T07:59:23Z</time>
      </trkpt>
      <trkpt lat="41.235850" lon="1.854850">
        <ele>46.023</ele>
        <time>2021-07-08T07:59:43Z</time>
      </trkpt>
      <trkpt lat="41.236260" lon="1.854590">
        <ele>55.608</ele>
        <time>2021-07-08T08:00:03Z</time>
      </trkpt>
      <trkpt lat="41.236470" lon="1.854810">
        <ele>54.732</ele>
        <time>2021-07-08T08:00:23Z</time>
      </trkpt>
      <trkpt lat="41.236230" lon="1.856660">
        <ele>30.671</ele>
        <time>2021-07-08T08:00:43Z</time>
      </trkpt>
      <trkpt lat="41.236330" lon="1.857410">
        <ele>39.275</ele>
        <time>2021-07-08T08:01:03Z</time>
      </trkpt>
      <trkpt lat="41.236120" lon="1.858620">
        <ele>27.449</ele>
        <time>2021-07-08T08:01:23Z</time>
      </trkpt>
      <trkpt lat="41.236410" lon="1.859730">
        <ele>26.823</ele>
        <time>2021-07-08T08:01:43Z</time>
      </trkpt>
      <trkpt lat="41.237180" lon="1.860610">
        <ele>28.118</ele>
        <time>2021-07-08T08:02:03Z</time>
      </trkpt>
      <trkpt lat="41.237820" lon="1.860480">
        <ele>27.194</ele>
        <time>2021-07-08T08:02:23Z</time>
      </trkpt>
      <trkpt lat="41.238720" lon="1.860990">
        <ele>20.167</ele>
        <time>2021-07-08T08:02:43Z</time>
      </trkpt>
      <trkpt lat="41.239850" lon="1.860470">
        <ele>17.633</ele>
        <time>2021-07-08T08:03:03Z</time>
      </trkpt>
      <trkpt lat="41.240340" lon="1.861290">
        <ele>22.823</ele>
        <time>2021-07-08T08:03:23Z</time>
      </trkpt>
      <trkpt lat="41.240920" lon="1.862920">
        <ele>24.815</ele>
        <time>2021-07-08T08:03:43Z</time>
      </trkpt>
      <trkpt lat="41.240910" lon="1.863350">
        <ele>26.008</ele>
        <time>2021-07-08T08:04:03Z</time>
      </trkpt>
      <trkpt lat="41.240620" lon="1.863940">
        <ele>20.530</ele>
        <time>2021-07-08T08:04:23Z</time>
      </trkpt>
      <trkpt lat="41.239920" lon="1.864600">
        <ele>19.529</ele>
        <time>2021-07-08T08:04:43Z</time>
      </trkpt>
      <trkpt lat="41.239810" lon="1.864900">
        <ele>20.343</ele>
        <time>2021-07-08T08:05:03Z</time>
      </trkpt>
      <trkpt lat="41.239980" lon="1.865320">
        <ele>27.757</ele>
        <time>2021-07-08T08:05:23Z</time>
      </trkpt>
      <trkpt lat="41.240900" lon="1.866400">
        <ele>53.121</ele>
        <time>2021-07-08T08:05:43Z</time>
      </trkpt>
      <trkpt lat="41.241200" lon="1.867440">
        <ele>35.356</ele>
        <time>2021-07-08T08:06:03Z</time>
      </trkpt>
      <trkpt lat="41.241540" lon="1.867670">
        <ele>35.942</ele>
        <time>2021-07-08T08:06:23Z</time>
      </trkpt>
      <trkpt lat="41.242360" lon="1.867350">
        <ele>56.235</ele>
        <time>2021-07-08T08:06:43Z</time>
      </trkpt>
      <trkpt lat="41.242810" lon="1.867410">
        <ele>48.691</ele>
        <time>2021-07-08T08:07:03Z</time>
      </trkpt>
      <trkpt lat="41.243670" lon="1.867170">
        <ele>58.181</ele>
        <time>2021-07-08T08:07:23Z</time>
      </trkpt>
      <trkpt lat="41.244000" lon="1.867600">
        <ele>55.019</ele>
        <time>2021-07-08T08:07:43Z</time>
      </trkpt>
      <trkpt lat="41.244070" lon="1.868670">
        <ele>41.108</ele>
        <time>2021-07-08T08:08:03Z</time>
      </trkpt>
      <trkpt lat="41.244290" lon="1.868710">
        <ele>44.676</ele>
        <time>2021-07-08T08:08:23Z</time>
      </trkpt>
      <trkpt lat="41.244810" lon="1.868390">
        <ele>55.235</ele>
        <time>2021-07-08T08:08:43Z</time>
      </trkpt>
      <trkpt lat="41.245000" lon="1.868540">
        <ele>53.329</ele>
        <time>2021-07-08T08:09:03Z</time>
      </trkpt>
      <trkpt lat="41.244640" lon="1.869840">
        <ele>51.643</ele>
        <time>2021-07-08T08:09:23Z</time>
      </trkpt>
      <trkpt lat="41.244040" lon="1.870600">
        <ele>50.677</ele>
        <time>2021-07-08T08:09:43Z</time>
      </trkpt>
      <trkpt lat="41.244000" lon="1.870910">
        <ele>47.522</ele>
        <time>2021-07-08T08:10:03Z</time>
      </trkpt>
      <trkpt lat="41.244920" lon="1.874180">
        <ele>61.668</ele>
        <time>2021-07-08T08:10:23Z</time>
      </trkpt>
      <trkpt lat="41.245840" lon="1.876310">
        <ele>75.991</ele>
        <time>2021-07-08T08:10:43Z</time>
      </trkpt>
      <trkpt lat="41.245810" lon="1.876750">
        <ele>69.557</ele>
        <time>2021-07-08T08:11:03Z</time>
      </trkpt>
      <trkpt lat="41.246590" lon="1.879830">
        <ele>78.500</ele>
        <time>2021-07-08T08:11:23Z</time>
      </trkpt>
      <trkpt lat="41.247100" lon="1.880420">
        <ele>103.220</ele>
        <time>2021-07-08T08:11:43Z</time>
      </trkpt>
      <trkpt lat="41.247150" lon="1.881110">
        <ele>84.908</ele>
        <time>2021-07-08T08:12:03Z</time>
      </trkpt>
      <trkpt lat="41.247410" lon="1.881810">
        <ele>90.022</ele>
        <time>2021-07-08T08:12:23Z</time>
      </trkpt>
      <trkpt lat="41.247900" lon="1.882440">
        <ele>110.371</ele>
        <time>2021-07-08T08:12:43Z</time>
      </trkpt>
      <trkpt lat="41.247820" lon="1.883140">
        <ele>98.535</ele>
        <time>2021-07-08T08:13:03Z</time>
      </trkpt>
      <trkpt lat="41.248470" lon="1.884060">
        <ele>115.329</ele>
        <time>2021-07-08T08:13:23Z</time>
      </trkpt>
      <trkpt lat="41.248750" lon="1.886300">
        <ele>108.053</ele>
        <time>2021-07-08T08:13:43Z</time>
      </trkpt>
      <trkpt lat="41.249050" lon="1.887260">
        <ele>135.838</ele>
        <time>2021-07-08T08:14:03Z</time>
      </trkpt>
      <trkpt lat="41.249350" lon="1.890190">
        <ele>91.944</ele>
        <time>2021-07-08T08:14:23Z</time>
      </trkpt>
      <trkpt lat="41.249600" lon="1.890350">
        <ele>94.747</ele>
        <time>2021-07-08T08:14:43Z</time>
      </trkpt>
      <trkpt lat="41.250010" lon="1.889640">
        <ele>107.815</ele>
        <time>2021-07-08T08:15:03Z</time>
      </trkpt>
      <trkpt lat="41.250420" lon="1.889330">
        <ele>109.565</ele>
        <time>2021-07-08T08:15:23Z</time>
      </trkpt>
      <trkpt lat="41.250920" lon="1.889180">
        <ele>108.711</ele>
        <time>2021-07-08T08:15:43Z</time>
      </trkpt>
      <trkpt lat="41.251440" lon="1.888540">
        <ele>100.808</ele>
        <time>2021-07-08T08:16:03Z</time>
      </trkpt>
      <trkpt lat="41.251750" lon="1.888460">
        <ele>100.378</ele>
        <time>2021-07-08T08:16:23Z</time>
      </trkpt>
      <trkpt lat="41.251830" lon="1.888910">
        <ele>103.987</ele>
        <time>2021-07-08T08:16:43Z</time>
      </trkpt>
      <trkpt lat="41.250830" lon="1.890390">
        <ele>88.531</ele>
        <time>2021-07-08T08:17:03Z</time>
      </trkpt>
      <trkpt lat="41.250850" lon="1.891080">
        <ele>82.045</ele>
        <time>2021-07-08T08:17:23Z</time>
      </trkpt>
      <trkpt lat="41.251930" lon="1.891730">
        <ele>78.749</ele>
        <time>2021-07-08T08:17:43Z</time>
      </trkpt>
      <trkpt lat="41.252910" lon="1.891540">
        <ele>84.614</ele>
        <time>2021-07-08T08:18:03Z</time>
      </trkpt>
      <trkpt lat="41.253130" lon="1.891700">
        <ele>81.670</ele>
        <time>2021-07-08T08:18:23Z</time>
      </trkpt>
      <trkpt lat="41.252590" lon="1.892450">
        <ele>67.373</ele>
        <time>2021-07-08T08:18:43Z</time>
      </trkpt>
      <trkpt lat="41.252410" lon="1.892950">
        <ele>59.329</ele>
        <time>2021-07-08T08:19:03Z</time>
      </trkpt>
      <trkpt lat="41.252490" lon="1.893320">
        <ele>56.000</ele>
        <time>2021-07-08T08:19:23Z</time>
      </trkpt>
      <trkpt lat="41.253150" lon="1.894380">
        <ele>54.320</ele>
        <time>2021-07-08T08:19:43Z</time>
      </trkpt>
      <trkpt lat="41.253410" lon="1.895410">
        <ele>57.308</ele>
        <time>2021-07-08T08:20:03Z</time>
      </trkpt>
      <trkpt lat="41.253270" lon="1.896170">
        <ele>47.469</ele>
        <time>2021-07-08T08:20:23Z</time>
      </trkpt>
      <trkpt lat="41.253450" lon="1.896780">
        <ele>50.658</ele>
        <time>2021-07-08T08:20:43Z</time>
      </trkpt>
      <trkpt lat="41.253250" lon="1.897750">
        <ele>46.732</ele>
        <time>2021-07-08T08:21:03Z</time>
      </trkpt>
      <trkpt lat="41.252870" lon="1.898600">
        <ele>38.276</ele>
        <time>2021-07-08T08:21:23Z</time>
      </trkpt>
      <trkpt lat="41.252940" lon="1.899420">
        <ele>33.840</ele>
        <time>2021-07-08T08:21:43Z</time>
      </trkpt>
      <trkpt lat="41.253420" lon="1.900170">
        <ele>36.515</ele>
        <time>2021-07-08T08:22:03Z</time>
      </trkpt>
      <trkpt lat="41.255950" lon="1.903170">
        <ele>26.331</ele>
        <time>2021-07-08T08:22:23Z</time>
      </trkpt>
      <trkpt lat="41.256330" lon="1.903330">
        <ele>26.164</ele>
        <time>2021-07-08T08:22:43Z</time>
      </trkpt>
      <trkpt lat="41.257090" lon="1.903310">
        <ele>27.355</ele>
        <time>2021-07-08T08:23:03Z</time>
      </trkpt>
      <trkpt lat="41.257340" lon="1.903480">
        <ele>23.607</ele>
        <time>2021-07-08T08:23:23Z</time>
      </trkpt>
      <trkpt lat="41.257570" lon="1.903970">
        <ele>21.217</ele>
        <time>2021-07-08T08:23:43Z</time>
      </trkpt>
      <trkpt lat="41.257460" lon="1.904590">
        <ele>21.708</ele>
        <time>2021-07-08T08:24:03Z</time>
      </trkpt>
      <trkpt lat="41.255960" lon="1.905880">
        <ele>25.192</ele>
        <time>2021-07-08T08:24:23Z</time>
      </trkpt>
      <trkpt lat="41.255710" lon="1.906520">
        <ele>25.331</ele>
        <time>2021-07-08T08:24:43Z</time>
      </trkpt>
      <trkpt lat="41.255970" lon="1.908040">
        <ele>32.085</ele>
        <time>2021-07-08T08:25:03Z</time>
      </trkpt>
      <trkpt lat="41.255950" lon="1.909620">
        <ele>30.089</ele>
        <time>2021-07-08T08:25:23Z</time>
      </trkpt>
      <trkpt lat="41.256700" lon="1.911130">
        <ele>38.843</ele>
        <time>2021-07-08T08:25:43Z</time>
      </trkpt>
      <trkpt lat="41.256670" lon="1.912260">
        <ele>42.638</ele>
        <time>2021-07-08T08:26:03Z</time>
      </trkpt>
      <trkpt lat="41.257000" lon="1.913260">
        <ele>45.784</ele>
        <time>2021-07-08T08:26:23Z</time>
      </trkpt>
      <trkpt lat="41.257100" lon="1.914770">
        <ele>47.847</ele>
        <time>2021-07-08T08:26:43Z</time>
      </trkpt>
      <trkpt lat="41.258230" lon="1.917460">
        <ele>38.259</ele>
        <time>2021-07-08T08:27:03Z</time>
      </trkpt>
      <trkpt lat="41.259600" lon="1.920010">
        <ele>30.203</ele>
        <time>2021-07-08T08:27:23Z</time>
      </trkpt>
      <trkpt lat="41.259990" lon="1.920270">
        <ele>32.023</ele>
        <time>2021-07-08T08:27:43Z</time>
      </trkpt>
      <trkpt lat="41.260600" lon="1.920240">
        <ele>28.108</ele>
        <time>2021-07-08T08:28:03Z</time>
      </trkpt>
      <trkpt lat="41.260970" lon="1.920400">
        <ele>23.692</ele>
        <time>2021-07-08T08:28:23Z</time>
      </trkpt>
      <trkpt lat="41.261820" lon="1.921530">
        <ele>23.541</ele>
        <time>2021-07-08T08:28:43Z</time>
      </trkpt>
      <trkpt lat="41.261880" lon="1.922370">
        <ele>24.025</ele>
        <time>2021-07-08T08:29:03Z</time>
      </trkpt>
      <trkpt lat="41.261340" lon="1.923460">
        <ele>21.549</ele>
        <time>2021-07-08T08:29:23Z</time>
      </trkpt>
      <trkpt lat="41.261270" lon="1.923900">
        <ele>21.783</ele>
        <time>2021-07-08T08:29:43Z</time>
      </trkpt>
      <trkpt lat="41.261720" lon="1.926100">
        <ele>23.778</ele>
        <time>2021-07-08T08:30:03Z</time>
      </trkpt>
      <trkpt lat="41.262280" lon="1.928070">
        <ele>16.984</ele>
        <time>2021-07-08T08:30:23Z</time>
      </trkpt>
      <trkpt lat="41.262620" lon="1.928220">
        <ele>20.547</ele>
        <time>2021-07-08T08:30:43Z</time>
      </trkpt>
      <trkpt lat="41.263140" lon="1.927970">
        <ele>20.686</ele>
        <time>2021-07-08T08:31:03Z</time>
      </trkpt>
      <trkpt lat="41.263340" lon="1.928350">
        <ele>18.960</ele>
        <time>2021-07-08T08:31:23Z</time>
      </trkpt>
      <trkpt lat="41.263330" lon="1.929810">
        <ele>14.026</ele>
        <time>2021-07-08T08:31:43Z</time>
      </trkpt>
      <trkpt lat="41.262460" lon="1.930320">
        <ele>11.708</ele>
        <time>2021-07-08T08:32:03Z</time>
      </trkpt>
      <trkpt lat="41.262400" lon="1.930510">
        <ele>10.555</ele>
        <time>2021-07-08T08:32:23Z</time>
      </trkpt>
      <trkpt lat="41.262850" lon="1.931850">
        <ele>6.594</ele>
        <time>2021-07-08T08:32:43Z</time>
      </trkpt>
      <trkpt lat="41.264030" lon="1.939360">
        <ele>8.298</ele>
        <time>2021-07-08T08:33:03Z</time>
      </trkpt>
      <trkpt lat="41.265100" lon="1.951140">
        <ele>4.462</ele>
        <time>2021-07-08T08:33:23Z</time>
      </trkpt>
      <trkpt lat="41.265340" lon="1.957340">
        <ele>6.346</ele>
        <time>2021-07-08T08:33:43Z</time>
      </trkpt>
      <trkpt lat="41.265040" lon="1.957460">
        <ele>6.041</ele>
        <time>2021-07-08T08:34:03Z</time>
      </trkpt>
      <trkpt lat="41.265080" lon="1.960980">
        <ele>8.037</ele>
        <time>2021-07-08T08:34:23Z</time>
      </trkpt>
      <trkpt lat="41.264940" lon="1.964420">
        <ele>7.120</ele>
        <time>2021-07-08T08:34:43Z</time>
      </trkpt>
      <trkpt lat="41.265050" lon="1.965310">
        <ele>10.052</ele>
        <time>2021-07-08T08:35:03Z</time>
      </trkpt>
      <trkpt lat="41.264900" lon="1.968000">
        <ele>5.153</ele>
        <time>2021-07-08T08:35:23Z</time>
      </trkpt>
      <trkpt lat="41.265020" lon="1.973880">
        <ele>6.008</ele>
        <time>2021-07-08T08:35:43Z</time>
      </trkpt>
      <trkpt lat="41.264940" lon="1.977480">
        <ele>6.308</ele>
        <time>2021-07-08T08:36:03Z</time>
      </trkpt>
      <trkpt lat="41.265150" lon="1.979370">
        <ele>1.862</ele>
        <time>2021-07-08T08:36:23Z</time>
      </trkpt>
      <trkpt lat="41.265060" lon="1.993680">
        <ele>2.441</ele>
        <time>2021-07-08T08:36:43Z</time>
      </trkpt>
      <trkpt lat="41.265170" lon="2.000000">
        <ele>0.095</ele>
        <time>2021-07-08T08:37:03Z</time>
      </trkpt>
      <trkpt lat="41.265660" lon="2.009200">
        <ele>2.659</ele>
        <time>2021-07-08T08:37:23Z</time>
      </trkpt>
      <trkpt lat="41.265530" lon="2.010500">
        <ele>2.243</ele>
        <time>2021-07-08T08:37:43Z</time>
      </trkpt>
      <trkpt lat="41.265630" lon="2.010510">
        <ele>2.978</ele>
        <time>2021-07-08T08:38:03Z</time>
      </trkpt>
      <trkpt lat="41.265780" lon="2.014540">
        <ele>2.634</ele>
        <time>2021-07-08T08:38:23Z</time>
      </trkpt>
      <trkpt lat="41.265970" lon="2.015830">
        <ele>3.097</ele>
        <time>2021-07-08T08:38:43Z</time>
      </trkpt>
      <trkpt lat="41.266550" lon="2.017180">
        <ele>5.881</ele>
        <time>2021-07-08T08:39:03Z</time>
      </trkpt>
      <trkpt lat="41.266510" lon="2.018180">
        <ele>7.361</ele>
        <time>2021-07-08T08:39:23Z</time>
      </trkpt>
      <trkpt lat="41.266920" lon="2.022320">
        <ele>6.617</ele>
        <time>2021-07-08T08:39:43Z</time>
      </trkpt>
      <trkpt lat="41.266920" lon="2.023500">
        <ele>4.208</ele>
        <time>2021-07-08T08:40:03Z</time>
      </trkpt>
      <trkpt lat="41.268090" lon="2.023850">
        <ele>6.945</ele>
        <time>2021-07-08T08:40:23Z</time>
      </trkpt>
      <trkpt lat="41.268330" lon="2.025140">
        <ele>6.054</ele>
        <time>2021-07-08T08:40:43Z</time>
      </trkpt>
      <trkpt lat="41.268420" lon="2.025920">
        <ele>7.018</ele>
        <time>2021-07-08T08:41:03Z</time>
      </trkpt>
      <trkpt lat="41.268300" lon="2.028730">
        <ele>8.642</ele>
        <time>2021-07-08T08:41:23Z</time>
      </trkpt>
      <trkpt lat="41.268480" lon="2.029770">
        <ele>9.556</ele>
        <time>2021-07-08T08:41:43Z</time>
      </trkpt>
      <trkpt lat="41.269070" lon="2.030760">
        <ele>7.961</ele>
        <time>2021-07-08T08:42:03Z</time>
      </trkpt>
      <trkpt lat="41.269420" lon="2.035130">
        <ele>5.917</ele>
        <time>2021-07-08T08:42:23Z</time>
      </trkpt>
      <trkpt lat="41.271220" lon="2.035100">
        <ele>5.090</ele>
        <time>2021-07-08T08:42:43Z</time>
      </trkpt>
      <trkpt lat="41.271560" lon="2.035300">
        <ele>6.455</ele>
        <time>2021-07-08T08:43:03Z</time>
      </trkpt>
      <trkpt lat="41.272440" lon="2.041650">
        <ele>6.407</ele>
        <time>2021-07-08T08:43:23Z</time>
      </trkpt>
      <trkpt lat="41.273190" lon="2.044110">
        <ele>5.517</ele>
        <time>2021-07-08T08:43:43Z</time>
      </trkpt>
      <trkpt lat="41.274450" lon="2.046740">
        <ele>3.708</ele>
        <time>2021-07-08T08:44:03Z</time>
      </trkpt>
      <trkpt lat="41.274550" lon="2.047200">
        <ele>3.582</ele>
        <time>2021-07-08T08:44:23Z</time>
      </trkpt>
      <trkpt lat="41.274400" lon="2.047550">
        <ele>5.751</ele>
        <time>2021-07-08T08:44:43Z</time>
      </trkpt>
      <trkpt lat="41.274720" lon="2.047660">
        <ele>5.275</ele>
        <time>2021-07-08T08:45:03Z</time>
      </trkpt>
      <trkpt lat="41.275360" lon="2.048340">
        <ele>4.019</ele>
        <time>2021-07-08T08:45:23Z</time>
      </trkpt>
      <trkpt lat="41.274950" lon="2.048800">
        <ele>6.463</ele>
        <time>2021-07-08T08:45:43Z</time>
      </trkpt>
      <trkpt lat="41.275330" lon="2.048960">
        <ele>4.898</ele>
        <time>2021-07-08T08:46:03Z</time>
      </trkpt>
      <trkpt lat="41.275760" lon="2.048890">
        <ele>3.364</ele>
        <time>2021-07-08T08:46:23Z</time>
      </trkpt>
      <trkpt lat="41.276630" lon="2.050010">
        <ele>6.327</ele>
        <time>2021-07-08T08:46:43Z</time>
      </trkpt>
      <trkpt lat="41.277340" lon="2.050580">
        <ele>4.643</ele>
        <time>2021-07-08T08:47:03Z</time>
      </trkpt>
      <trkpt lat="41.277320" lon="2.053410">
        <ele>2.564</ele>
        <time>2021-07-08T08:47:23Z</time>
      </trkpt>
      <trkpt lat="41.278210" lon="2.052820">
        <ele>0.710</ele>
        <time>2021-07-08T08:47:43Z</time>
      </trkpt>
      <trkpt lat="41.278690" lon="2.053020">
        <ele>2.308</ele>
        <time>2021-07-08T08:48:03Z</time>
      </trkpt>
      <trkpt lat="41.278980" lon="2.053380">
        <ele>2.771</ele>
        <time>2021-07-08T08:48:23Z</time>
      </trkpt>
      <trkpt lat="41.279260" lon="2.053430">
        <ele>4.010</ele>
        <time>2021-07-08T08:48:43Z</time>
      </trkpt>
      <trkpt lat="41.280290" lon="2.052610">
        <ele>5.044</ele>
        <time>2021-07-08T08:49:03Z</time>
      </trkpt>
      <trkpt lat="41.282210" lon="2.052790">
        <ele>5.068</ele>
        <time>2021-07-08T08:49:23Z</time>
      </trkpt>
      <trkpt lat="41.287550" lon="2.054530">
        <ele>4.982</ele>
        <time>2021-07-08T08:49:43Z</time>
      </trkpt>
      <trkpt lat="41.287680" lon="2.054850">
        <ele>3.957</ele>
        <time>2021-07-08T08:50:03Z</time>
      </trkpt>
      <trkpt lat="41.287910" lon="2.054670">
        <ele>5.153</ele>
        <time>2021-07-08T08:50:23Z</time>
      </trkpt>
      <trkpt lat="41.289630" lon="2.055220">
        <ele>4.376</ele>
        <time>2021-07-08T08:50:43Z</time>
      </trkpt>
      <trkpt lat="41.290730" lon="2.055150">
        <ele>2.042</ele>
        <time>2021-07-08T08:51:03Z</time>
      </trkpt>
      <trkpt lat="41.291230" lon="2.055480">
        <ele>1.022</ele>
        <time>2021-07-08T08:51:23Z</time>
      </trkpt>
      <trkpt lat="41.291500" lon="2.055290">
        <ele>1.014</ele>
        <time>2021-07-08T08:51:43Z</time>
      </trkpt>
      <trkpt lat="41.291640" lon="2.054680">
        <ele>1.708</ele>
        <time>2021-07-08T08:52:03Z</time>
      </trkpt>
      <trkpt lat="41.292700" lon="2.053380">
        <ele>2.691</ele>
        <time>2021-07-08T08:52:23Z</time>
      </trkpt>
      <trkpt lat="41.293460" lon="2.052760">
        <ele>2.020</ele>
        <time>2021-07-08T08:52:43Z</time>
      </trkpt>
      <trkpt lat="41.294670" lon="2.052220">
        <ele>4.054</ele>
        <time>2021-07-08T08:53:03Z</time>
      </trkpt>
      <trkpt lat="41.295460" lon="2.052140">
        <ele>6.148</ele>
        <time>2021-07-08T08:53:23Z</time>
      </trkpt>
      <trkpt lat="41.296440" lon="2.052290">
        <ele>4.272</ele>
        <time>2021-07-08T08:53:43Z</time>
      </trkpt>
      <trkpt lat="41.297260" lon="2.052640">
        <ele>3.917</ele>
        <time>2021-07-08T08:54:03Z</time>
      </trkpt>
      <trkpt lat="41.298440" lon="2.053550">
        <ele>4.923</ele>
        <time>2021-07-08T08:54:23Z</time>
      </trkpt>
      <trkpt lat="41.299040" lon="2.053490">
        <ele>3.576</ele>
        <time>2021-07-08T08:54:43Z</time>
      </trkpt>
      <trkpt lat="41.299250" lon="2.053720">
        <ele>4.534</ele>
        <time>2021-07-08T08:55:03Z</time>
      </trkpt>
      <trkpt lat="41.299290" lon="2.054130">
        <ele>5.855</ele>
        <time>2021-07-08T08:55:23Z</time>
      </trkpt>
      <trkpt lat="41.300220" lon="2.055290">
        <ele>2.910</ele>
        <time>2021-07-08T08:55:43Z</time>
      </trkpt>
      <trkpt lat="41.300550" lon="2.055930">
        <ele>2.308</ele>
        <time>2021-07-08T08:56:03Z</time>
      </trkpt>
      <trkpt lat="41.300670" lon="2.056560">
        <ele>3.610</ele>
        <time>2021-07-08T08:56:23Z</time>
      </trkpt>
      <trkpt lat="41.300590" lon="2.057890">
        <ele>2.259</ele>
        <time>2021-07-08T08:56:43Z</time>
      </trkpt>
      <trkpt lat="41.300750" lon="2.058510">
        <ele>3.483</ele>
        <time>2021-07-08T08:57:03Z</time>
      </trkpt>
      <trkpt lat="41.301220" lon="2.059030">
        <ele>5.277</ele>
        <time>2021-07-08T08:57:23Z</time>
      </trkpt>
      <trkpt lat="41.302620" lon="2.059830">
        <ele>3.661</ele>
        <time>2021-07-08T08:57:43Z</time>
      </trkpt>
      <trkpt lat="41.302930" lon="2.060460">
        <ele>3.226</ele>
        <time>2021-07-08T08:58:03Z</time>
      </trkpt>
      <trkpt lat="41.303020" lon="2.061330">
        <ele>0.812</ele>
        <time>2021-07-08T08:58:23Z</time>
      </trkpt>
      <trkpt lat="41.303300" lon="2.061680">
        <ele>1.865</ele>
        <time>2021-07-08T08:58:43Z</time>
      </trkpt>
      <trkpt lat="41.304340" lon="2.061150">
        <ele>1.251</ele>
        <time>2021-07-08T08:59:03Z</time>
      </trkpt>
      <trkpt lat="41.313060" lon="2.068140">
        <ele>4.301</ele>
        <time>2021-07-08T08:59:23Z</time>
      </trkpt>
      <trkpt lat="41.313500" lon="2.068840">
        <ele>5.911</ele>
        <time>2021-07-08T08:59:43Z</time>
      </trkpt>
      <trkpt lat="41.316510" lon="2.079270">
        <ele>8.308</ele>
        <time>2021-07-08T09:00:03Z</time>
      </trkpt>
      <trkpt lat="41.319480" lon="2.084290">
        <ele>8.382</ele>
        <time>2021-07-08T09:00:23Z</time>
      </trkpt>
      <trkpt lat="41.319350" lon="2.092380">
        <ele>4.131</ele>
        <time>2021-07-08T09:00:43Z</time>
      </trkpt>
      <trkpt lat="41.319850" lon="2.096190">
        <ele>7.375</ele>
        <time>2021-07-08T09:01:03Z</time>
      </trkpt>
      <trkpt lat="41.321850" lon="2.102980">
        <ele>6.919</ele>
        <time>2021-07-08T09:01:23Z</time>
      </trkpt>
      <trkpt lat="41.323190" lon="2.105570">
        <ele>6.573</ele>
        <time>2021-07-08T09:01:43Z</time>
      </trkpt>
      <trkpt lat="41.323930" lon="2.106250">
        <ele>6.258</ele>
        <time>2021-07-08T09:02:03Z</time>
      </trkpt>
      <trkpt lat="41.323590" lon="2.106410">
        <ele>6.964</ele>
        <time>2021-07-08T09:02:23Z</time>
      </trkpt>
      <trkpt lat="41.323480" lon="2.106760">
        <ele>5.897</ele>
        <time>2021-07-08T09:02:43Z</time>
      </trkpt>
      <trkpt lat="41.323690" lon="2.107520">
        <ele>6.478</ele>
        <time>2021-07-08T09:03:03Z</time>
      </trkpt>
      <trkpt lat="41.324080" lon="2.107940">
        <ele>6.233</ele>
        <time>2021-07-08T09:03:23Z</time>
      </trkpt>
      <trkpt lat="41.324380" lon="2.107990">
        <ele>3.526</ele>
        <time>2021-07-08T09:03:43Z</time>
      </trkpt>
      <trkpt lat="41.324600" lon="2.107810">
        <ele>2.008</ele>
        <time>2021-07-08T09:04:03Z</time>
      </trkpt>
      <trkpt lat="41.324920" lon="2.106620">
        <ele>5.684</ele>
        <time>2021-07-08T09:04:23Z</time>
      </trkpt>
      <trkpt lat="41.325010" lon="2.106740">
        <ele>6.623</ele>
        <time>2021-07-08T09:04:43Z</time>
      </trkpt>
      <trkpt lat="41.325410" lon="2.106310">
        <ele>8.647</ele>
        <time>2021-07-08T09:05:03Z</time>
      </trkpt>
      <trkpt lat="41.325990" lon="2.106140">
        <ele>11.481</ele>
        <time>2021-07-08T09:05:23Z</time>
      </trkpt>
      <trkpt lat="41.327170" lon="2.106360">
        <ele>7.365</ele>
        <time>2021-07-08T09:05:43Z</time>
      </trkpt>
      <trkpt lat="41.327640" lon="2.106590">
        <ele>5.930</ele>
        <time>2021-07-08T09:06:03Z</time>
      </trkpt>
      <trkpt lat="41.327970" lon="2.106980">
        <ele>5.776</ele>
        <time>2021-07-08T09:06:23Z</time>
      </trkpt>
      <trkpt lat="41.330010" lon="2.106930">
        <ele>7.279</ele>
        <time>2021-07-08T09:06:43Z</time>
      </trkpt>
      <trkpt lat="41.330110" lon="2.107540">
        <ele>5.188</ele>
        <time>2021-07-08T09:07:03Z</time>
      </trkpt>
      <trkpt lat="41.330640" lon="2.107330">
        <ele>5.824</ele>
        <time>2021-07-08T09:07:23Z</time>
      </trkpt>
      <trkpt lat="41.332670" lon="2.105000">
        <ele>3.026</ele>
        <time>2021-07-08T09:07:43Z</time>
      </trkpt>
      <trkpt lat="41.335510" lon="2.100810">
        <ele>4.008</ele>
        <time>2021-07-08T09:08:03Z</time>
      </trkpt>
      <trkpt lat="41.336440" lon="2.098490">
        <ele>12.335</ele>
        <time>2021-07-08T09:08:23Z</time>
      </trkpt>
      <trkpt lat="41.337150" lon="2.097500">
        <ele>2.374</ele>
        <time>2021-07-08T09:08:43Z</time>
      </trkpt>
      <trkpt lat="41.337410" lon="2.096070">
        <ele>7.288</ele>
        <time>2021-07-08T09:09:03Z</time>
      </trkpt>
      <trkpt lat="41.336620" lon="2.097410">
        <ele>11.552</ele>
        <time>2021-07-08T09:09:23Z</time>
      </trkpt>
      <trkpt lat="41.336910" lon="2.097890">
        <ele>6.026</ele>
        <time>2021-07-08T09:09:43Z</time>
      </trkpt>
      <trkpt lat="41.338220" lon="2.099540">
        <ele>10.311</ele>
        <time>2021-07-08T09:10:03Z</time>
      </trkpt>
      <trkpt lat="41.338430" lon="2.099690">
        <ele>9.827</ele>
        <time>2021-07-08T09:10:23Z</time>
      </trkpt>
      <trkpt lat="41.338690" lon="2.099540">
        <ele>6.520</ele>
        <time>2021-07-08T09:10:43Z</time>
      </trkpt>
      <trkpt lat="41.338990" lon="2.100240">
        <ele>7.596</ele>
        <time>2021-07-08T09:11:03Z</time>
      </trkpt>
      <trkpt lat="41.339000" lon="2.100610">
        <ele>8.331</ele>
        <time>2021-07-08T09:11:23Z</time>
      </trkpt>
      <trkpt lat="41.339330" lon="2.101090">
        <ele>7.824</ele>
        <time>2021-07-08T09:11:43Z</time>
      </trkpt>
      <trkpt lat="41.339880" lon="2.101390">
        <ele>9.708</ele>
        <time>2021-07-08T09:12:03Z</time>
      </trkpt>
      <trkpt lat="41.341770" lon="2.101660">
        <ele>8.626</ele>
        <time>2021-07-08T09:12:23Z</time>
      </trkpt>
      <trkpt lat="41.343490" lon="2.103040">
        <ele>8.115</ele>
        <time>2021-07-08T09:12:43Z</time>
      </trkpt>
      <trkpt lat="41.344020" lon="2.103750">
        <ele>15.969</ele>
        <time>2021-07-08T09:13:03Z</time>
      </trkpt>
      <trkpt lat="41.343900" lon="2.104540">
        <ele>21.333</ele>
        <time>2021-07-08T09:13:23Z</time>
      </trkpt>
      <trkpt lat="41.344310" lon="2.105270">
        <ele>16.237</ele>
        <time>2021-07-08T09:13:43Z</time>
      </trkpt>
      <trkpt lat="41.344400" lon="2.105850">
        <ele>14.382</ele>
        <time>2021-07-08T09:14:03Z</time>
      </trkpt>
      <trkpt lat="41.345290" lon="2.105850">
        <ele>13.228</ele>
        <time>2021-07-08T09:14:23Z</time>
      </trkpt>
      <trkpt lat="41.345380" lon="2.106640">
        <ele>13.551</ele>
        <time>2021-07-08T09:14:43Z</time>
      </trkpt>
      <trkpt lat="41.345750" lon="2.107260">
        <ele>8.311</ele>
        <time>2021-07-08T09:15:03Z</time>
      </trkpt>
      <trkpt lat="41.345740" lon="2.107890">
        <ele>9.521</ele>
        <time>2021-07-08T09:15:23Z</time>
      </trkpt>
      <trkpt lat="41.346050" lon="2.107990">
        <ele>7.803</ele>
        <time>2021-07-08T09:15:43Z</time>
      </trkpt>
      <trkpt lat="41.346380" lon="2.107580">
        <ele>6.808</ele>
        <time>2021-07-08T09:16:03Z</time>
      </trkpt>
      <trkpt lat="41.346370" lon="2.108090">
        <ele>6.298</ele>
        <time>2021-07-08T09:16:23Z</time>
      </trkpt>
      <trkpt lat="41.346600" lon="2.108410">
        <ele>8.817</ele>
        <time>2021-07-08T09:16:43Z</time>
      </trkpt>
      <trkpt lat="41.347020" lon="2.108530">
        <ele>11.031</ele>
        <time>2021-07-08T09:17:03Z</time>
      </trkpt>
      <trkpt lat="41.347200" lon="2.108800">
        <ele>10.385</ele>
        <time>2021-07-08T09:17:23Z</time>
      </trkpt>
      <trkpt lat="41.347250" lon="2.109910">
        <ele>11.039</ele>
        <time>2021-07-08T09:17:43Z</time>
      </trkpt>
      <trkpt lat="41.347680" lon="2.110720">
        <ele>13.344</ele>
        <time>2021-07-08T09:18:03Z</time>
      </trkpt>
      <trkpt lat="41.349540" lon="2.111040">
        <ele>15.280</ele>
        <time>2021-07-08T09:18:23Z</time>
      </trkpt>
      <trkpt lat="41.350140" lon="2.113120">
        <ele>16.073</ele>
        <time>2021-07-08T09:18:43Z</time>
      </trkpt>
      <trkpt lat="41.350950" lon="2.112760">
        <ele>12.861</ele>
        <time>2021-07-08T09:19:03Z</time>
      </trkpt>
      <trkpt lat="41.351230" lon="2.113490">
        <ele>13.321</ele>
        <time>2021-07-08T09:19:23Z</time>
      </trkpt>
      <trkpt lat="41.351650" lon="2.113390">
        <ele>14.313</ele>
        <time>2021-07-08T09:19:43Z</time>
      </trkpt>
      <trkpt lat="41.356090" lon="2.111480">
        <ele>14.108</ele>
        <time>2021-07-08T09:20:03Z</time>
      </trkpt>
      <trkpt lat="41.356750" lon="2.112320">
        <ele>10.823</ele>
        <time>2021-07-08T09:20:23Z</time>
      </trkpt>
      <trkpt lat="41.356890" lon="2.112280">
        <ele>10.322</ele>
        <time>2021-07-08T09:20:43Z</time>
      </trkpt>
      <trkpt lat="41.358390" lon="2.114240">
        <ele>6.736</ele>
        <time>2021-07-08T09:21:03Z</time>
      </trkpt>
      <trkpt lat="41.360000" lon="2.113080">
        <ele>13.150</ele>
        <time>2021-07-08T09:21:23Z</time>
      </trkpt>
      <trkpt lat="41.360860" lon="2.115510">
        <ele>13.184</ele>
        <time>2021-07-08T09:21:43Z</time>
      </trkpt>
      <trkpt lat="41.361220" lon="2.115900">
        <ele>14.749</ele>
        <time>2021-07-08T09:22:03Z</time>
      </trkpt>
      <trkpt lat="41.362680" lon="2.116110">
        <ele>14.715</ele>
        <time>2021-07-08T09:22:23Z</time>
      </trkpt>
      <trkpt lat="41.363590" lon="2.115900">
        <ele>22.498</ele>
        <time>2021-07-08T09:22:43Z</time>
      </trkpt>
      <trkpt lat="41.364590" lon="2.116300">
        <ele>17.223</ele>
        <time>2021-07-08T09:23:03Z</time>
      </trkpt>
      <trkpt lat="41.366180" lon="2.116540">
        <ele>19.483</ele>
        <time>2021-07-08T09:23:23Z</time>
      </trkpt>
      <trkpt lat="41.366600" lon="2.116740">
        <ele>23.711</ele>
        <time>2021-07-08T09:23:43Z</time>
      </trkpt>
      <trkpt lat="41.368110" lon="2.116850">
        <ele>26.208</ele>
        <time>2021-07-08T09:24:03Z</time>
      </trkpt>
      <trkpt lat="41.368470" lon="2.117150">
        <ele>29.719</ele>
        <time>2021-07-08T09:24:23Z</time>
      </trkpt>
      <trkpt lat="41.368550" lon="2.116810">
        <ele>32.068</ele>
        <time>2021-07-08T09:24:43Z</time>
      </trkpt>
      <trkpt lat="41.369160" lon="2.117900">
        <ele>41.382</ele>
        <time>2021-07-08T09:25:03Z</time>
      </trkpt>
      <trkpt lat="41.370520" lon="2.117040">
        <ele>43.376</ele>
        <time>2021-07-08T09:25:23Z</time>
      </trkpt>
      <trkpt lat="41.371320" lon="2.117000">
        <ele>47.160</ele>
        <time>2021-07-08T09:25:43Z</time>
      </trkpt>
      <trkpt lat="41.372260" lon="2.116320">
        <ele>50.175</ele>
        <time>2021-07-08T09:26:03Z</time>
      </trkpt>
      <trkpt lat="41.372550" lon="2.116360">
        <ele>51.241</ele>
        <time>2021-07-08T09:26:23Z</time>
      </trkpt>
      <trkpt lat="41.372730" lon="2.116170">
        <ele>51.244</ele>
        <time>2021-07-08T09:26:43Z</time>
      </trkpt>
      <trkpt lat="41.374630" lon="2.115430">
        <ele>53.277</ele>
        <time>2021-07-08T09:27:03Z</time>
      </trkpt>
      <trkpt lat="41.374550" lon="2.113820">
        <ele>49.861</ele>
        <time>2021-07-08T09:27:23Z</time>
      </trkpt>
      <trkpt lat="41.375610" lon="2.113080">
        <ele>58.027</ele>
        <time>2021-07-08T09:27:43Z</time>
      </trkpt>
      <trkpt lat="41.375570" lon="2.112680">
        <ele>60.508</ele>
        <time>2021-07-08T09:28:03Z</time>
      </trkpt>
      <trkpt lat="41.377350" lon="2.111440">
        <ele>67.254</ele>
        <time>2021-07-08T09:28:23Z</time>
      </trkpt>
      <trkpt lat="41.377470" lon="2.109620">
        <ele>65.983</ele>
        <time>2021-07-08T09:28:43Z</time>
      </trkpt>
      <trkpt lat="41.378850" lon="2.108830">
        <ele>75.937</ele>
        <time>2021-07-08T09:29:03Z</time>
      </trkpt>
      <trkpt lat="41.379850" lon="2.108060">
        <ele>73.441</ele>
        <time>2021-07-08T09:29:23Z</time>
      </trkpt>
      <trkpt lat="41.381260" lon="2.107670">
        <ele>83.365</ele>
        <time>2021-07-08T09:29:43Z</time>
      </trkpt>
      <trkpt lat="41.382210" lon="2.109210">
        <ele>85.070</ele>
        <time>2021-07-08T09:30:03Z</time>
      </trkpt>
      <trkpt lat="41.383640" lon="2.108900">
        <ele>92.366</ele>
        <time>2021-07-08T09:30:23Z</time>
      </trkpt>
      <trkpt lat="41.385530" lon="2.116270">
        <ele>74.869</ele>
        <time>2021-07-08T09:30:43Z</time>
      </trkpt>
      <trkpt lat="41.385710" lon="2.116200">
        <ele>76.775</ele>
        <time>2021-07-08T09:31:03Z</time>
      </trkpt>
      <trkpt lat="41.386290" lon="2.118540">
        <ele>69.728</ele>
        <time>2021-07-08T09:31:23Z</time>
      </trkpt>
      <trkpt lat="41.386620" lon="2.118370">
        <ele>70.820</ele>
        <time>2021-07-08T09:31:43Z</time>
      </trkpt>
      <trkpt lat="41.386800" lon="2.118590">
        <ele>71.108</ele>
        <time>2021-07-08T09:32:03Z</time>
      </trkpt>
      <trkpt lat="41.386900" lon="2.118150">
        <ele>74.634</ele>
        <time>2021-07-08T09:32:23Z</time>
      </trkpt>
      <trkpt lat="41.387450" lon="2.117760">
        <ele>78.923</ele>
        <time>2021-07-08T09:32:43Z</time>
      </trkpt>
      <trkpt lat="41.387890" lon="2.118030">
        <ele>81.567</ele>
        <time>2021-07-08T09:33:03Z</time>
      </trkpt>
      <trkpt lat="41.388000" lon="2.117690">
        <ele>81.781</ele>
        <time>2021-07-08T09:33:23Z</time>
      </trkpt>
      <trkpt lat="41.377050" lon="2.145450">
        <ele>43.065</ele>
        <time>2021-07-08T07:35:14Z</time>
      </trkpt>
      <trkpt lat="41.376630" lon="2.145950">
        <ele>40.168</ele>
        <time>2021-07-08T07:35:34Z</time>
      </trkpt>
      <trkpt lat="41.376180" lon="2.145020">
        <ele>42.814</ele>
        <time>2021-07-08T07:35:54Z</time>
      </trkpt>
      <trkpt lat="41.377070" lon="2.144080">
        <ele>40.008</ele>
        <time>2021-07-08T07:36:14Z</time>
      </trkpt>
      <trkpt lat="41.377930" lon="2.145610">
        <ele>38.733</ele>
        <time>2021-07-08T07:36:34Z</time>
      </trkpt>
      <trkpt lat="41.380920" lon="2.141880">
        <ele>41.872</ele>
        <time>2021-07-08T07:37:14Z</time>
      </trkpt>
      <trkpt lat="41.380910" lon="2.143130">
        <ele>58.741</ele>
        <time>2021-07-08T07:37:34Z</time>
      </trkpt>
      <trkpt lat="41.397950" lon="2.165820">
        <ele>50.331</ele>
        <time>2021-07-08T07:37:54Z</time>
      </trkpt>
      <trkpt lat="41.399610" lon="2.172510">
        <ele>48.467</ele>
        <time>2021-07-08T07:38:54Z</time>
      </trkpt>
      <trkpt lat="41.402750" lon="2.176700">
        <ele>40.854</ele>
        <time>2021-07-08T07:39:14Z</time>
      </trkpt>
      <trkpt lat="41.403630" lon="2.175610">
        <ele>36.980</ele>
        <time>2021-07-08T07:39:34Z</time>
      </trkpt>
      <trkpt lat="41.403470" lon="2.175400">
        <ele>40.797</ele>
        <time>2021-07-08T07:39:54Z</time>
      </trkpt>
      <trkpt lat="41.403790" lon="2.175390">
        <ele>36.237</ele>
        <time>2021-07-08T07:40:14Z</time>
      </trkpt>
      <trkpt lat="41.401210" lon="2.178680">
        <ele>26.849</ele>
        <time>2021-07-08T07:40:34Z</time>
      </trkpt>
      <trkpt lat="41.402450" lon="2.183630">
        <ele>25.613</ele>
        <time>2021-07-08T07:40:54Z</time>
      </trkpt>
      <trkpt lat="41.401100" lon="2.185410">
        <ele>16.408</ele>
        <time>2021-07-08T07:41:14Z</time>
      </trkpt>
      <trkpt lat="41.401860" lon="2.186520">
        <ele>16.580</ele>
        <time>2021-07-08T07:41:34Z</time>
      </trkpt>
      <trkpt lat="41.401280" lon="2.187020">
        <ele>14.989</ele>
        <time>2021-07-08T07:42:34Z</time>
      </trkpt>
      <trkpt lat="41.402250" lon="2.187150">
        <ele>17.918</ele>
        <time>2021-07-08T07:42:54Z</time>
      </trkpt>
      <trkpt lat="41.402620" lon="2.187890">
        <ele>12.998</ele>
        <time>2021-07-08T07:43:14Z</time>
      </trkpt>
      <trkpt lat="41.403450" lon="2.188550">
        <ele>12.224</ele>
        <time>2021-07-08T07:43:34Z</time>
      </trkpt>
      <trkpt lat="41.403460" lon="2.188980">
        <ele>10.241</ele>
        <time>2021-07-08T07:43:54Z</time>
      </trkpt>
      <trkpt lat="41.403690" lon="2.188810">
        <ele>9.957</ele>
        <time>2021-07-08T07:44:14Z</time>
      </trkpt>
      <trkpt lat="41.411240" lon="2.219450">
        <ele>3.974</ele>
        <time>2021-07-08T07:44:34Z</time>
      </trkpt>
      <trkpt lat="41.420050" lon="2.227420">
        <ele>4.676</ele>
        <time>2021-07-08T07:44:54Z</time>
      </trkpt>
      <trkpt lat="41.434410" lon="2.239250">
        <ele>8.990</ele>
        <time>2021-07-08T07:45:14Z</time>
      </trkpt>
      <trkpt lat="41.434310" lon="2.239590">
        <ele>8.919</ele>
        <time>2021-07-08T07:45:54Z</time>
      </trkpt>
      <trkpt lat="41.437050" lon="2.241590">
        <ele>6.408</ele>
        <time>2021-07-08T07:46:34Z</time>
      </trkpt>
      <trkpt lat="41.436870" lon="2.243870">
        <ele>0.054</ele>
        <time>2021-07-08T07:47:34Z</time>
      </trkpt>
      <trkpt lat="41.437330" lon="2.244040">
        <ele>0.033</ele>
        <time>2021-07-08T07:47:54Z</time>
      </trkpt>
      <trkpt lat="41.438020" lon="2.243680">
        <ele>0.062</ele>
        <time>2021-07-08T07:48:34Z</time>
      </trkpt>
      <trkpt lat="41.439680" lon="2.244800">
        <ele>4.822</ele>
        <time>2021-07-08T07:48:54Z</time>
      </trkpt>
      <trkpt lat="41.445570" lon="2.249950">
        <ele>1.518</ele>
        <time>2021-07-08T07:49:34Z</time>
      </trkpt>
      <trkpt lat="41.445880" lon="2.249540">
        <ele>4.545</ele>
        <time>2021-07-08T07:49:54Z</time>
      </trkpt>
      <trkpt lat="41.452620" lon="2.256870">
        <ele>7.721</ele>
        <time>2021-07-08T07:50:34Z</time>
      </trkpt>
      <trkpt lat="41.459950" lon="2.267480">
        <ele>5.948</ele>
        <time>2021-07-08T07:51:14Z</time>
      </trkpt>
      <trkpt lat="41.462640" lon="2.272440">
        <ele>6.818</ele>
        <time>2021-07-08T07:51:54Z</time>
      </trkpt>
      <trkpt lat="41.463170" lon="2.272950">
        <ele>6.898</ele>
        <time>2021-07-08T07:52:14Z</time>
      </trkpt>
      <trkpt lat="41.465230" lon="2.277460">
        <ele>5.717</ele>
        <time>2021-07-08T07:52:54Z</time>
      </trkpt>
      <trkpt lat="41.465100" lon="2.277940">
        <ele>6.508</ele>
        <time>2021-07-08T07:53:14Z</time>
      </trkpt>
      <trkpt lat="41.465660" lon="2.279710">
        <ele>8.938</ele>
        <time>2021-07-08T07:54:14Z</time>
      </trkpt>
      <trkpt lat="41.466010" lon="2.279690">
        <ele>10.457</ele>
        <time>2021-07-08T07:54:34Z</time>
      </trkpt>
      <trkpt lat="41.467950" lon="2.285250">
        <ele>9.426</ele>
        <time>2021-07-08T07:55:14Z</time>
      </trkpt>
      <trkpt lat="41.473210" lon="2.298380">
        <ele>7.726</ele>
        <time>2021-07-08T07:55:54Z</time>
      </trkpt>
      <trkpt lat="41.476090" lon="2.307430">
        <ele>5.662</ele>
        <time>2021-07-08T07:56:14Z</time>
      </trkpt>
      <trkpt lat="41.483670" lon="2.341180">
        <ele>1.859</ele>
        <time>2021-07-08T07:57:54Z</time>
      </trkpt>
      <trkpt lat="41.484290" lon="2.340830">
        <ele>8.525</ele>
        <time>2021-07-08T07:59:14Z</time>
      </trkpt>
      <trkpt lat="41.484430" lon="2.341280">
        <ele>7.392</ele>
        <time>2021-07-08T07:59:34Z</time>
      </trkpt>
      <trkpt lat="41.485420" lon="2.340900">
        <ele>9.986</ele>
        <time>2021-07-08T07:59:54Z</time>
      </trkpt>
      <trkpt lat="41.484620" lon="2.338240">
        <ele>14.460</ele>
        <time>2021-07-08T08:00:34Z</time>
      </trkpt>
      <trkpt lat="41.485480" lon="2.339090">
        <ele>14.726</ele>
        <time>2021-07-08T08:00:54Z</time>
      </trkpt>
      <trkpt lat="41.488520" lon="2.344400">
        <ele>14.508</ele>
        <time>2021-07-08T08:01:54Z</time>
      </trkpt>
      <trkpt lat="41.487310" lon="2.345280">
        <ele>8.395</ele>
        <time>2021-07-08T08:02:14Z</time>
      </trkpt>
      <trkpt lat="41.487720" lon="2.346370">
        <ele>9.734</ele>
        <time>2021-07-08T08:02:34Z</time>
      </trkpt>
      <trkpt lat="41.486420" lon="2.347580">
        <ele>8.363</ele>
        <time>2021-07-08T08:02:54Z</time>
      </trkpt>
      <trkpt lat="41.485810" lon="2.347780">
        <ele>7.063</ele>
        <time>2021-07-08T08:03:54Z</time>
      </trkpt>
      <trkpt lat="41.489880" lon="2.362260">
        <ele>7.919</ele>
        <time>2021-07-08T08:04:14Z</time>
      </trkpt>
      <trkpt lat="41.495820" lon="2.379990">
        <ele>6.056</ele>
        <time>2021-07-08T08:04:34Z</time>
      </trkpt>
      <trkpt lat="41.503490" lon="2.395670">
        <ele>5.942</ele>
        <time>2021-07-08T08:05:34Z</time>
      </trkpt>
      <trkpt lat="41.506470" lon="2.400880">
        <ele>5.699</ele>
        <time>2021-07-08T08:05:54Z</time>
      </trkpt>
      <trkpt lat="41.511370" lon="2.407950">
        <ele>7.473</ele>
        <time>2021-07-08T08:06:14Z</time>
      </trkpt>
      <trkpt lat="41.515000" lon="2.412580">
        <ele>8.385</ele>
        <time>2021-07-08T08:06:34Z</time>
      </trkpt>
      <trkpt lat="41.515230" lon="2.413220">
        <ele>11.013</ele>
        <time>2021-07-08T08:06:54Z</time>
      </trkpt>
      <trkpt lat="41.515710" lon="2.413480">
        <ele>9.908</ele>
        <time>2021-07-08T08:07:14Z</time>
      </trkpt>
      <trkpt lat="41.518820" lon="2.417420">
        <ele>6.294</ele>
        <time>2021-07-08T08:07:34Z</time>
      </trkpt>
      <trkpt lat="41.521770" lon="2.422020">
        <ele>10.123</ele>
        <time>2021-07-08T08:07:54Z</time>
      </trkpt>
      <trkpt lat="41.523860" lon="2.426830">
        <ele>11.452</ele>
        <time>2021-07-08T08:08:14Z</time>
      </trkpt>
      <trkpt lat="41.522570" lon="2.428290">
        <ele>8.392</ele>
        <time>2021-07-08T08:08:34Z</time>
      </trkpt>
      <trkpt lat="41.528130" lon="2.437170">
        <ele>8.138</ele>
        <time>2021-07-08T08:08:54Z</time>
      </trkpt>
      <trkpt lat="41.529040" lon="2.436280">
        <ele>9.285</ele>
        <time>2021-07-08T08:09:14Z</time>
      </trkpt>
      <trkpt lat="41.530110" lon="2.437710">
        <ele>9.111</ele>
        <time>2021-07-08T08:09:34Z</time>
      </trkpt>
      <trkpt lat="41.531820" lon="2.443310">
        <ele>3.768</ele>
        <time>2021-07-08T08:10:34Z</time>
      </trkpt>
      <trkpt lat="41.540660" lon="2.456080">
        <ele>16.996</ele>
        <time>2021-07-08T08:11:34Z</time>
      </trkpt>
      <trkpt lat="41.546750" lon="2.469490">
        <ele>9.531</ele>
        <time>2021-07-08T08:11:54Z</time>
      </trkpt>
      <trkpt lat="41.553100" lon="2.493570">
        <ele>12.124</ele>
        <time>2021-07-08T08:12:14Z</time>
      </trkpt>
      <trkpt lat="41.553830" lon="2.495170">
        <ele>13.408</ele>
        <time>2021-07-08T08:12:34Z</time>
      </trkpt>
      <trkpt lat="41.555280" lon="2.497090">
        <ele>7.656</ele>
        <time>2021-07-08T08:12:54Z</time>
      </trkpt>
      <trkpt lat="41.556610" lon="2.500200">
        <ele>11.435</ele>
        <time>2021-07-08T08:13:14Z</time>
      </trkpt>
      <trkpt lat="41.567180" lon="2.521250">
        <ele>12.284</ele>
        <time>2021-07-08T08:13:54Z</time>
      </trkpt>
      <trkpt lat="41.568490" lon="2.526260">
        <ele>14.424</ele>
        <time>2021-07-08T08:14:14Z</time>
      </trkpt>
      <trkpt lat="41.572150" lon="2.535470">
        <ele>9.560</ele>
        <time>2021-07-08T08:15:14Z</time>
      </trkpt>
      <trkpt lat="41.572810" lon="2.536380">
        <ele>23.747</ele>
        <time>2021-07-08T08:15:54Z</time>
      </trkpt>
      <trkpt lat="41.572840" lon="2.538270">
        <ele>26.213</ele>
        <time>2021-07-08T08:16:14Z</time>
      </trkpt>
      <trkpt lat="41.573900" lon="2.539800">
        <ele>15.510</ele>
        <time>2021-07-08T08:16:34Z</time>
      </trkpt>
      <trkpt lat="41.575740" lon="2.543980">
        <ele>13.029</ele>
        <time>2021-07-08T08:17:34Z</time>
      </trkpt>
      <trkpt lat="41.576350" lon="2.546520">
        <ele>18.100</ele>
        <time>2021-07-08T08:17:54Z</time>
      </trkpt>
      <trkpt lat="41.577720" lon="2.548960">
        <ele>10.820</ele>
        <time>2021-07-08T08:18:14Z</time>
      </trkpt>
      <trkpt lat="41.579640" lon="2.554660">
        <ele>10.908</ele>
        <time>2021-07-08T08:18:34Z</time>
      </trkpt>
      <trkpt lat="41.579940" lon="2.557840">
        <ele>14.319</ele>
        <time>2021-07-08T08:18:54Z</time>
      </trkpt>
      <trkpt lat="41.580640" lon="2.560100">
        <ele>22.158</ele>
        <time>2021-07-08T08:19:14Z</time>
      </trkpt>
      <trkpt lat="41.580720" lon="2.563180">
        <ele>25.087</ele>
        <time>2021-07-08T08:19:34Z</time>
      </trkpt>
      <trkpt lat="41.581250" lon="2.564720">
        <ele>21.627</ele>
        <time>2021-07-08T08:20:14Z</time>
      </trkpt>
      <trkpt lat="41.582550" lon="2.565430">
        <ele>16.543</ele>
        <time>2021-07-08T08:20:54Z</time>
      </trkpt>
      <trkpt lat="41.584120" lon="2.568690">
        <ele>13.490</ele>
        <time>2021-07-08T08:21:14Z</time>
      </trkpt>
      <trkpt lat="41.585220" lon="2.574710">
        <ele>9.616</ele>
        <time>2021-07-08T08:21:34Z</time>
      </trkpt>
      <trkpt lat="41.585060" lon="2.577150">
        <ele>20.893</ele>
        <time>2021-07-08T08:22:14Z</time>
      </trkpt>
      <trkpt lat="41.586160" lon="2.579110">
        <ele>19.628</ele>
        <time>2021-07-08T08:22:34Z</time>
      </trkpt>
      <trkpt lat="41.586580" lon="2.580840">
        <ele>12.089</ele>
        <time>2021-07-08T08:22:54Z</time>
      </trkpt>
      <trkpt lat="41.587070" lon="2.581730">
        <ele>11.917</ele>
        <time>2021-07-08T08:23:14Z</time>
      </trkpt>
      <trkpt lat="41.587890" lon="2.585390">
        <ele>11.808</ele>
        <time>2021-07-08T08:23:54Z</time>
      </trkpt>
      <trkpt lat="41.589870" lon="2.589600">
        <ele>9.899</ele>
        <time>2021-07-08T08:24:14Z</time>
      </trkpt>
      <trkpt lat="41.592410" lon="2.598680">
        <ele>24.068</ele>
        <time>2021-07-08T08:25:14Z</time>
      </trkpt>
      <trkpt lat="41.594220" lon="2.602900">
        <ele>7.567</ele>
        <time>2021-07-08T08:25:54Z</time>
      </trkpt>
      <trkpt lat="41.595420" lon="2.608550">
        <ele>12.277</ele>
        <time>2021-07-08T08:26:14Z</time>
      </trkpt>
      <trkpt lat="41.597360" lon="2.612910">
        <ele>12.193</ele>
        <time>2021-07-08T08:26:34Z</time>
      </trkpt>
      <trkpt lat="41.601570" lon="2.619530">
        <ele>33.180</ele>
        <time>2021-07-08T08:27:34Z</time>
      </trkpt>
      <trkpt lat="41.602140" lon="2.621460">
        <ele>34.416</ele>
        <time>2021-07-08T08:27:54Z</time>
      </trkpt>
      <trkpt lat="41.604090" lon="2.624170">
        <ele>27.133</ele>
        <time>2021-07-08T08:28:34Z</time>
      </trkpt>
      <trkpt lat="41.603990" lon="2.625160">
        <ele>28.781</ele>
        <time>2021-07-08T08:29:14Z</time>
      </trkpt>
      <trkpt lat="41.602680" lon="2.626280">
        <ele>31.961</ele>
        <time>2021-07-08T08:29:34Z</time>
      </trkpt>
      <trkpt lat="41.602470" lon="2.627260">
        <ele>28.317</ele>
        <time>2021-07-08T08:29:54Z</time>
      </trkpt>
      <trkpt lat="41.604200" lon="2.631140">
        <ele>20.508</ele>
        <time>2021-07-08T08:30:34Z</time>
      </trkpt>
      <trkpt lat="41.604680" lon="2.634590">
        <ele>16.855</ele>
        <time>2021-07-08T08:30:54Z</time>
      </trkpt>
      <trkpt lat="41.606650" lon="2.641740">
        <ele>29.274</ele>
        <time>2021-07-08T08:31:34Z</time>
      </trkpt>
      <trkpt lat="41.606800" lon="2.643130">
        <ele>28.983</ele>
        <time>2021-07-08T08:31:54Z</time>
      </trkpt>
      <trkpt lat="41.607380" lon="2.644660">
        <ele>20.213</ele>
        <time>2021-07-08T08:32:14Z</time>
      </trkpt>
      <trkpt lat="41.607600" lon="2.646210">
        <ele>15.819</ele>
        <time>2021-07-08T08:32:34Z</time>
      </trkpt>
      <trkpt lat="41.608210" lon="2.646910">
        <ele>15.996</ele>
        <time>2021-07-08T08:33:14Z</time>
      </trkpt>
      <trkpt lat="41.610910" lon="2.647410">
        <ele>25.312</ele>
        <time>2021-07-08T08:34:14Z</time>
      </trkpt>
      <trkpt lat="41.613350" lon="2.653660">
        <ele>16.229</ele>
        <time>2021-07-08T08:34:54Z</time>
      </trkpt>
      <trkpt lat="41.611540" lon="2.655060">
        <ele>10.072</ele>
        <time>2021-07-08T08:35:14Z</time>
      </trkpt>
      <trkpt lat="41.613920" lon="2.662200">
        <ele>14.113</ele>
        <time>2021-07-08T08:35:34Z</time>
      </trkpt>
      <trkpt lat="41.613480" lon="2.662480">
        <ele>11.514</ele>
        <time>2021-07-08T08:35:54Z</time>
      </trkpt>
      <trkpt lat="41.613180" lon="2.662120">
        <ele>10.008</ele>
        <time>2021-07-08T08:36:34Z</time>
      </trkpt>
      <trkpt lat="41.613910" lon="2.664330">
        <ele>7.954</ele>
        <time>2021-07-08T08:36:54Z</time>
      </trkpt>
      <trkpt lat="41.613780" lon="2.664590">
        <ele>6.443</ele>
        <time>2021-07-08T08:37:14Z</time>
      </trkpt>
      <trkpt lat="41.614980" lon="2.668130">
        <ele>10.762</ele>
        <time>2021-07-08T08:37:34Z</time>
      </trkpt>
      <trkpt lat="41.614620" lon="2.668500">
        <ele>6.482</ele>
        <time>2021-07-08T08:37:54Z</time>
      </trkpt>
      <trkpt lat="41.616080" lon="2.673250">
        <ele>4.268</ele>
        <time>2021-07-08T08:38:14Z</time>
      </trkpt>
      <trkpt lat="41.616520" lon="2.673260">
        <ele>4.665</ele>
        <time>2021-07-08T08:38:34Z</time>
      </trkpt>
      <trkpt lat="41.617840" lon="2.679130">
        <ele>2.221</ele>
        <time>2021-07-08T08:38:54Z</time>
      </trkpt>
      <trkpt lat="41.619500" lon="2.684830">
        <ele>4.678</ele>
        <time>2021-07-08T08:39:34Z</time>
      </trkpt>
      <trkpt lat="41.619670" lon="2.684730">
        <ele>5.052</ele>
        <time>2021-07-08T08:39:54Z</time>
      </trkpt>
      <trkpt lat="41.620420" lon="2.687030">
        <ele>4.653</ele>
        <time>2021-07-08T08:40:14Z</time>
      </trkpt>
      <trkpt lat="41.621500" lon="2.686440">
        <ele>7.408</ele>
        <time>2021-07-08T08:40:34Z</time>
      </trkpt>
      <trkpt lat="41.622010" lon="2.686530">
        <ele>7.508</ele>
        <time>2021-07-08T08:40:54Z</time>
      </trkpt>
      <trkpt lat="41.625860" lon="2.697700">
        <ele>7.062</ele>
        <time>2021-07-08T08:41:34Z</time>
      </trkpt>
      <trkpt lat="41.624550" lon="2.698570">
        <ele>4.561</ele>
        <time>2021-07-08T08:41:54Z</time>
      </trkpt>
      <trkpt lat="41.626450" lon="2.702300">
        <ele>2.940</ele>
        <time>2021-07-08T08:42:34Z</time>
      </trkpt>
      <trkpt lat="41.629140" lon="2.712660">
        <ele>2.470</ele>
        <time>2021-07-08T08:42:54Z</time>
      </trkpt>
      <trkpt lat="41.630880" lon="2.718090">
        <ele>3.086</ele>
        <time>2021-07-08T08:43:34Z</time>
      </trkpt>
      <trkpt lat="41.634640" lon="2.723590">
        <ele>6.033</ele>
        <time>2021-07-08T08:44:14Z</time>
      </trkpt>
      <trkpt lat="41.634430" lon="2.723840">
        <ele>10.299</ele>
        <time>2021-07-08T08:44:34Z</time>
      </trkpt>
      <trkpt lat="41.635210" lon="2.725020">
        <ele>12.316</ele>
        <time>2021-07-08T08:44:54Z</time>
      </trkpt>
      <trkpt lat="41.640270" lon="2.738270">
        <ele>4.674</ele>
        <time>2021-07-08T08:45:34Z</time>
      </trkpt>
      <trkpt lat="41.641780" lon="2.738370">
        <ele>6.956</ele>
        <time>2021-07-08T08:46:14Z</time>
      </trkpt>
      <trkpt lat="41.643870" lon="2.737550">
        <ele>9.821</ele>
        <time>2021-07-08T08:46:54Z</time>
      </trkpt>
      <trkpt lat="41.645420" lon="2.740760">
        <ele>10.708</ele>
        <time>2021-07-08T08:47:14Z</time>
      </trkpt>
      <trkpt lat="41.646600" lon="2.739800">
        <ele>11.774</ele>
        <time>2021-07-08T08:47:34Z</time>
      </trkpt>
      <trkpt lat="41.647050" lon="2.741130">
        <ele>10.923</ele>
        <time>2021-07-08T08:47:54Z</time>
      </trkpt>
      <trkpt lat="41.647840" lon="2.741670">
        <ele>8.092</ele>
        <time>2021-07-08T08:48:14Z</time>
      </trkpt>
      <trkpt lat="41.649670" lon="2.744500">
        <ele>6.552</ele>
        <time>2021-07-08T08:48:34Z</time>
      </trkpt>
      <trkpt lat="41.652090" lon="2.749190">
        <ele>5.038</ele>
        <time>2021-07-08T08:49:34Z</time>
      </trkpt>
      <trkpt lat="41.655100" lon="2.749740">
        <ele>4.315</ele>
        <time>2021-07-08T08:49:54Z</time>
      </trkpt>
      <trkpt lat="41.656370" lon="2.750640">
        <ele>4.361</ele>
        <time>2021-07-08T08:50:14Z</time>
      </trkpt>
      <trkpt lat="41.657880" lon="2.751170">
        <ele>7.378</ele>
        <time>2021-07-08T08:50:54Z</time>
      </trkpt>
      <trkpt lat="41.659080" lon="2.754240">
        <ele>10.533</ele>
        <time>2021-07-08T08:51:14Z</time>
      </trkpt>
      <trkpt lat="41.659280" lon="2.756550">
        <ele>6.823</ele>
        <time>2021-07-08T08:51:34Z</time>
      </trkpt>
      <trkpt lat="41.660130" lon="2.758160">
        <ele>6.015</ele>
        <time>2021-07-08T08:52:14Z</time>
      </trkpt>
      <trkpt lat="41.661170" lon="2.758870">
        <ele>7.208</ele>
        <time>2021-07-08T08:52:54Z</time>
      </trkpt>
      <trkpt lat="41.664500" lon="2.763130">
        <ele>6.510</ele>
        <time>2021-07-08T08:53:34Z</time>
      </trkpt>
      <trkpt lat="41.668120" lon="2.768900">
        <ele>8.529</ele>
        <time>2021-07-08T08:54:34Z</time>
      </trkpt>
      <trkpt lat="41.668320" lon="2.768860">
        <ele>7.198</ele>
        <time>2021-07-08T08:54:54Z</time>
      </trkpt>
      <trkpt lat="41.670740" lon="2.772690">
        <ele>12.748</ele>
        <time>2021-07-08T08:55:34Z</time>
      </trkpt>
      <trkpt lat="41.673290" lon="2.778050">
        <ele>13.394</ele>
        <time>2021-07-08T08:56:34Z</time>
      </trkpt>
      <trkpt lat="41.674540" lon="2.781540">
        <ele>24.291</ele>
        <time>2021-07-08T08:56:54Z</time>
      </trkpt>
      <trkpt lat="41.674690" lon="2.783380">
        <ele>31.317</ele>
        <time>2021-07-08T08:57:14Z</time>
      </trkpt>
      <trkpt lat="41.676340" lon="2.783160">
        <ele>30.294</ele>
        <time>2021-07-08T08:57:34Z</time>
      </trkpt>
      <trkpt lat="41.676450" lon="2.784100">
        <ele>32.096</ele>
        <time>2021-07-08T08:57:54Z</time>
      </trkpt>
      <trkpt lat="41.677350" lon="2.783530">
        <ele>30.531</ele>
        <time>2021-07-08T08:58:34Z</time>
      </trkpt>
      <trkpt lat="41.677620" lon="2.783690">
        <ele>30.124</ele>
        <time>2021-07-08T08:58:54Z</time>
      </trkpt>
      <trkpt lat="41.676790" lon="2.786650">
        <ele>19.008</ele>
        <time>2021-07-08T08:59:54Z</time>
      </trkpt>
      <trkpt lat="41.677240" lon="2.787290">
        <ele>20.796</ele>
        <time>2021-07-08T09:00:14Z</time>
      </trkpt>
      <trkpt lat="41.676850" lon="2.788030">
        <ele>16.555</ele>
        <time>2021-07-08T09:00:34Z</time>
      </trkpt>
      <trkpt lat="41.677540" lon="2.789270">
        <ele>14.794</ele>
        <time>2021-07-08T09:00:54Z</time>
      </trkpt>
      <trkpt lat="41.678310" lon="2.789380">
        <ele>15.474</ele>
        <time>2021-07-08T09:01:54Z</time>
      </trkpt>
      <trkpt lat="41.679520" lon="2.791350">
        <ele>18.720</ele>
        <time>2021-07-08T09:02:34Z</time>
      </trkpt>
      <trkpt lat="41.680980" lon="2.791330">
        <ele>17.457</ele>
        <time>2021-07-08T09:03:14Z</time>
      </trkpt>
      <trkpt lat="41.682840" lon="2.792880">
        <ele>18.093</ele>
        <time>2021-07-08T09:03:54Z</time>
      </trkpt>
      <trkpt lat="41.684570" lon="2.793810">
        <ele>19.730</ele>
        <time>2021-07-08T09:04:34Z</time>
      </trkpt>
      <trkpt lat="41.685180" lon="2.793820">
        <ele>19.197</ele>
        <time>2021-07-08T09:04:54Z</time>
      </trkpt>
      <trkpt lat="41.688220" lon="2.798940">
        <ele>27.123</ele>
        <time>2021-07-08T09:06:14Z</time>
      </trkpt>
      <trkpt lat="41.688920" lon="2.802150">
        <ele>29.025</ele>
        <time>2021-07-08T09:06:54Z</time>
      </trkpt>
      <trkpt lat="41.691660" lon="2.807350">
        <ele>46.008</ele>
        <time>2021-07-08T09:07:34Z</time>
      </trkpt>
      <trkpt lat="41.692920" lon="2.811690">
        <ele>64.916</ele>
        <time>2021-07-08T09:07:54Z</time>
      </trkpt>
      <trkpt lat="41.693940" lon="2.813800">
        <ele>47.855</ele>
        <time>2021-07-08T09:08:14Z</time>
      </trkpt>
      <trkpt lat="41.694150" lon="2.815260">
        <ele>38.334</ele>
        <time>2021-07-08T09:08:54Z</time>
      </trkpt>
      <trkpt lat="41.694480" lon="2.815630">
        <ele>39.224</ele>
        <time>2021-07-08T09:09:14Z</time>
      </trkpt>
      <trkpt lat="41.696270" lon="2.821670">
        <ele>20.780</ele>
        <time>2021-07-08T09:10:14Z</time>
      </trkpt>
      <trkpt lat="41.696780" lon="2.822090">
        <ele>18.747</ele>
        <time>2021-07-08T09:10:34Z</time>
      </trkpt>
      <trkpt lat="41.700320" lon="2.834130">
        <ele>17.283</ele>
        <time>2021-07-08T09:11:14Z</time>
      </trkpt>
      <trkpt lat="41.700770" lon="2.837560">
        <ele>18.260</ele>
        <time>2021-07-08T09:11:34Z</time>
      </trkpt>
      <trkpt lat="41.700440" lon="2.840310">
        <ele>7.062</ele>
        <time>2021-07-08T09:12:14Z</time>
      </trkpt>
      <trkpt lat="41.700620" lon="2.841650">
        <ele>9.583</ele>
        <time>2021-07-08T09:12:34Z</time>
      </trkpt>
      <trkpt lat="41.699990" lon="2.843270">
        <ele>17.011</ele>
        <time>2021-07-08T09:13:14Z</time>
      </trkpt>
      <trkpt lat="41.698440" lon="2.844530">
        <ele>13.108</ele>
        <time>2021-07-08T09:13:34Z</time>
      </trkpt>
      <trkpt lat="41.698570" lon="2.845560">
        <ele>14.043</ele>
        <time>2021-07-08T09:13:54Z</time>
      </trkpt>
      <trkpt lat="41.697900" lon="2.846130">
        <ele>16.992</ele>
        <time>2021-07-08T09:14:14Z</time>
      </trkpt>
      <trkpt lat="41.699460" lon="2.850680">
        <ele>10.621</ele>
        <time>2021-07-08T09:14:34Z</time>
      </trkpt>
      <trkpt lat="41.699710" lon="2.850550">
        <ele>12.931</ele>
        <time>2021-07-08T09:14:54Z</time>
      </trkpt>
      <trkpt lat="41.702080" lon="2.857560">
        <ele>20.787</ele>
        <time>2021-07-08T09:16:14Z</time>
      </trkpt>
      <trkpt lat="41.703170" lon="2.859140">
        <ele>28.194</ele>
        <time>2021-07-08T09:16:54Z</time>
      </trkpt>
      <trkpt lat="41.703200" lon="2.860100">
        <ele>43.480</ele>
        <time>2021-07-08T09:17:14Z</time>
      </trkpt>
      <trkpt lat="41.703560" lon="2.860920">
        <ele>43.077</ele>
        <time>2021-07-08T09:17:34Z</time>
      </trkpt>
      <trkpt lat="41.703360" lon="2.861460">
        <ele>51.027</ele>
        <time>2021-07-08T09:17:54Z</time>
      </trkpt>
      <trkpt lat="41.703770" lon="2.861940">
        <ele>49.268</ele>
        <time>2021-07-08T09:18:14Z</time>
      </trkpt>
      <trkpt lat="41.704590" lon="2.865940">
        <ele>58.214</ele>
        <time>2021-07-08T09:18:54Z</time>
      </trkpt>
      <trkpt lat="41.705600" lon="2.867340">
        <ele>62.208</ele>
        <time>2021-07-08T09:19:34Z</time>
      </trkpt>
      <trkpt lat="41.705150" lon="2.869140">
        <ele>82.869</ele>
        <time>2021-07-08T09:19:54Z</time>
      </trkpt>
      <trkpt lat="41.705550" lon="2.870370">
        <ele>90.318</ele>
        <time>2021-07-08T09:20:34Z</time>
      </trkpt>
      <trkpt lat="41.705510" lon="2.871240">
        <ele>89.687</ele>
        <time>2021-07-08T09:20:54Z</time>
      </trkpt>
      <trkpt lat="41.704960" lon="2.872440">
        <ele>91.037</ele>
        <time>2021-07-08T09:21:14Z</time>
      </trkpt>
      <trkpt lat="41.704950" lon="2.873450">
        <ele>101.323</ele>
        <time>2021-07-08T09:21:34Z</time>
      </trkpt>
      <trkpt lat="41.704450" lon="2.874440">
        <ele>97.160</ele>
        <time>2021-07-08T09:21:54Z</time>
      </trkpt>
      <trkpt lat="41.704660" lon="2.875230">
        <ele>100.396</ele>
        <time>2021-07-08T09:22:14Z</time>
      </trkpt>
      <trkpt lat="41.704510" lon="2.876680">
        <ele>95.943</ele>
        <time>2021-07-08T09:22:34Z</time>
      </trkpt>
      <trkpt lat="41.705500" lon="2.877460">
        <ele>85.127</ele>
        <time>2021-07-08T09:23:14Z</time>
      </trkpt>
      <trkpt lat="41.706900" lon="2.876290">
        <ele>86.868</ele>
        <time>2021-07-08T09:23:54Z</time>
      </trkpt>
      <trkpt lat="41.706830" lon="2.875390">
        <ele>95.614</ele>
        <time>2021-07-08T09:24:14Z</time>
      </trkpt>
      <trkpt lat="41.707330" lon="2.875090">
        <ele>80.008</ele>
        <time>2021-07-08T09:24:34Z</time>
      </trkpt>
      <trkpt lat="41.707630" lon="2.873840">
        <ele>85.089</ele>
        <time>2021-07-08T09:25:14Z</time>
      </trkpt>
      <trkpt lat="41.708140" lon="2.873370">
        <ele>86.728</ele>
        <time>2021-07-08T09:25:34Z</time>
      </trkpt>
      <trkpt lat="41.708790" lon="2.875980">
        <ele>73.097</ele>
        <time>2021-07-08T09:26:14Z</time>
      </trkpt>
      <trkpt lat="41.709430" lon="2.876030">
        <ele>82.447</ele>
        <time>2021-07-08T09:26:34Z</time>
      </trkpt>
      <trkpt lat="41.710150" lon="2.876970">
        <ele>60.623</ele>
        <time>2021-07-08T09:27:14Z</time>
      </trkpt>
      <trkpt lat="41.711400" lon="2.876140">
        <ele>62.530</ele>
        <time>2021-07-08T09:27:54Z</time>
      </trkpt>
      <trkpt lat="41.712440" lon="2.877330">
        <ele>72.996</ele>
        <time>2021-07-08T09:28:14Z</time>
      </trkpt>
      <trkpt lat="41.713870" lon="2.877830">
        <ele>91.623</ele>
        <time>2021-07-08T09:28:34Z</time>
      </trkpt>
      <trkpt lat="41.713930" lon="2.878240">
        <ele>89.011</ele>
        <time>2021-07-08T09:28:54Z</time>
      </trkpt>
      <trkpt lat="41.711730" lon="2.878810">
        <ele>100.421</ele>
        <time>2021-07-08T09:29:54Z</time>
      </trkpt>
      <trkpt lat="41.710890" lon="2.880000">
        <ele>104.403</ele>
        <time>2021-07-08T09:30:14Z</time>
      </trkpt>
      <trkpt lat="41.711010" lon="2.881750">
        <ele>115.808</ele>
        <time>2021-07-08T09:30:34Z</time>
      </trkpt>
      <trkpt lat="41.712640" lon="2.883250">
        <ele>122.688</ele>
        <time>2021-07-08T09:31:14Z</time>
      </trkpt>
      <trkpt lat="41.711590" lon="2.885350">
        <ele>117.627</ele>
        <time>2021-07-08T09:32:14Z</time>
      </trkpt>
      <trkpt lat="41.711530" lon="2.886170">
        <ele>116.686</ele>
        <time>2021-07-08T09:32:34Z</time>
      </trkpt>
      <trkpt lat="41.712510" lon="2.887270">
        <ele>122.276</ele>
        <time>2021-07-08T09:32:54Z</time>
      </trkpt>
      <trkpt lat="41.714410" lon="2.887610">
        <ele>136.742</ele>
        <time>2021-07-08T09:33:34Z</time>
      </trkpt>
      <trkpt lat="41.714590" lon="2.887960">
        <ele>139.449</ele>
        <time>2021-07-08T09:33:54Z</time>
      </trkpt>
      <trkpt lat="41.714400" lon="2.888590">
        <ele>138.935</ele>
        <time>2021-07-08T09:34:14Z</time>
      </trkpt>
      <trkpt lat="41.713200" lon="2.888720">
        <ele>136.772</ele>
        <time>2021-07-08T09:34:34Z</time>
      </trkpt>
      <trkpt lat="41.711690" lon="2.890190">
        <ele>143.798</ele>
        <time>2021-07-08T09:35:14Z</time>
      </trkpt>
      <trkpt lat="41.711860" lon="2.893020">
        <ele>159.415</ele>
        <time>2021-07-08T09:35:34Z</time>
      </trkpt>
      <trkpt lat="41.712180" lon="2.893450">
        <ele>159.826</ele>
        <time>2021-07-08T09:35:54Z</time>
      </trkpt>
      <trkpt lat="41.712850" lon="2.893480">
        <ele>165.908</ele>
        <time>2021-07-08T09:36:14Z</time>
      </trkpt>
      <trkpt lat="41.713650" lon="2.892780">
        <ele>176.276</ele>
        <time>2021-07-08T09:37:14Z</time>
      </trkpt>
      <trkpt lat="41.714230" lon="2.893540">
        <ele>166.625</ele>
        <time>2021-07-08T09:37:34Z</time>
      </trkpt>
      <trkpt lat="41.715740" lon="2.893550">
        <ele>178.284</ele>
        <time>2021-07-08T09:37:54Z</time>
      </trkpt>
      <trkpt lat="41.716570" lon="2.894290">
        <ele>175.314</ele>
        <time>2021-07-08T09:38:14Z</time>
      </trkpt>
      <trkpt lat="41.717260" lon="2.894110">
        <ele>180.690</ele>
        <time>2021-07-08T09:38:34Z</time>
      </trkpt>
      <trkpt lat="41.717670" lon="2.895250">
        <ele>170.677</ele>
        <time>2021-07-08T09:39:14Z</time>
      </trkpt>
      <trkpt lat="41.718800" lon="2.895780">
        <ele>183.383</ele>
        <time>2021-07-08T09:39:54Z</time>
      </trkpt>
      <trkpt lat="41.718900" lon="2.897120">
        <ele>174.380</ele>
        <time>2021-07-08T09:40:14Z</time>
      </trkpt>
      <trkpt lat="41.720090" lon="2.898380">
        <ele>174.067</ele>
        <time>2021-07-08T09:40:54Z</time>
      </trkpt>
      <trkpt lat="41.720420" lon="2.901770">
        <ele>167.481</ele>
        <time>2021-07-08T09:41:14Z</time>
      </trkpt>
      <trkpt lat="41.720170" lon="2.903660">
        <ele>160.319</ele>
        <time>2021-07-08T09:41:34Z</time>
      </trkpt>
      <trkpt lat="41.719370" lon="2.906230">
        <ele>142.308</ele>
        <time>2021-07-08T09:41:54Z</time>
      </trkpt>
      <trkpt lat="41.719280" lon="2.910860">
        <ele>129.453</ele>
        <time>2021-07-08T09:42:14Z</time>
      </trkpt>
      <trkpt lat="41.719910" lon="2.912060">
        <ele>128.632</ele>
        <time>2021-07-08T09:42:34Z</time>
      </trkpt>
      <trkpt lat="41.721060" lon="2.912870">
        <ele>130.811</ele>
        <time>2021-07-08T09:43:14Z</time>
      </trkpt>
      <trkpt lat="41.721890" lon="2.912980">
        <ele>130.591</ele>
        <time>2021-07-08T09:43:34Z</time>
      </trkpt>
      <trkpt lat="41.722680" lon="2.912000">
        <ele>124.277</ele>
        <time>2021-07-08T09:43:54Z</time>
      </trkpt>
      <trkpt lat="41.723650" lon="2.912200">
        <ele>118.964</ele>
        <time>2021-07-08T09:44:34Z</time>
      </trkpt>
      <trkpt lat="41.723710" lon="2.912810">
        <ele>114.270</ele>
        <time>2021-07-08T09:44:54Z</time>
      </trkpt>
      <trkpt lat="41.722680" lon="2.914280">
        <ele>113.757</ele>
        <time>2021-07-08T09:45:34Z</time>
      </trkpt>
      <trkpt lat="41.723090" lon="2.915540">
        <ele>104.548</ele>
        <time>2021-07-08T09:45:54Z</time>
      </trkpt>
      <trkpt lat="41.722870" lon="2.916360">
        <ele>105.061</ele>
        <time>2021-07-08T09:46:14Z</time>
      </trkpt>
      <trkpt lat="41.723230" lon="2.917640">
        <ele>94.517</ele>
        <time>2021-07-08T09:46:34Z</time>
      </trkpt>
      <trkpt lat="41.722880" lon="2.919260">
        <ele>84.708</ele>
        <time>2021-07-08T09:47:14Z</time>
      </trkpt>
      <trkpt lat="41.726360" lon="2.922250">
        <ele>55.321</ele>
        <time>2021-07-08T09:47:54Z</time>
      </trkpt>
      <trkpt lat="41.727430" lon="2.922340">
        <ele>45.560</ele>
        <time>2021-07-08T09:48:14Z</time>
      </trkpt>
      <trkpt lat="41.727750" lon="2.922710">
        <ele>39.469</ele>
        <time>2021-07-08T09:48:34Z</time>
      </trkpt>
      <trkpt lat="41.725890" lon="2.924510">
        <ele>33.419</ele>
        <time>2021-07-08T09:49:34Z</time>
      </trkpt>
      <trkpt lat="41.725180" lon="2.924290">
        <ele>32.915</ele>
        <time>2021-07-08T09:49:54Z</time>
      </trkpt>
      <trkpt lat="41.724510" lon="2.924840">
        <ele>24.362</ele>
        <time>2021-07-08T09:50:14Z</time>
      </trkpt>
      <trkpt lat="41.723210" lon="2.924820">
        <ele>23.148</ele>
        <time>2021-07-08T09:50:54Z</time>
      </trkpt>
      <trkpt lat="41.722140" lon="2.927440">
        <ele>14.995</ele>
        <time>2021-07-08T09:51:14Z</time>
      </trkpt>
      <trkpt lat="41.720770" lon="2.928960">
        <ele>12.925</ele>
        <time>2021-07-08T09:51:34Z</time>
      </trkpt>
      <trkpt lat="41.720150" lon="2.929250">
        <ele>12.926</ele>
        <time>2021-07-08T09:51:54Z</time>
      </trkpt>
      <trkpt lat="41.721180" lon="2.931190">
        <ele>10.708</ele>
        <time>2021-07-08T09:52:14Z</time>
      </trkpt>
      <trkpt lat="41.720250" lon="2.932200">
        <ele>11.308</ele>
        <time>2021-07-08T09:52:54Z</time>
      </trkpt>
      <trkpt lat="41.720800" lon="2.932770">
        <ele>7.949</ele>
        <time>2021-07-08T09:53:14Z</time>
      </trkpt>
      <trkpt lat="41.720160" lon="2.933470">
        <ele>7.568</ele>
        <time>2021-07-08T09:53:34Z</time>
      </trkpt>
      <trkpt lat="41.720640" lon="2.934430">
        <ele>16.727</ele>
        <time>2021-07-08T09:53:54Z</time>
      </trkpt>
      <trkpt lat="41.720690" lon="2.935230">
        <ele>22.537</ele>
        <time>2021-07-08T09:54:14Z</time>
      </trkpt>
      <trkpt lat="41.722220" lon="2.937370">
        <ele>15.913</ele>
        <time>2021-07-08T09:55:14Z</time>
      </trkpt>
      <trkpt lat="41.722820" lon="2.937140">
        <ele>22.650</ele>
        <time>2021-07-08T09:55:34Z</time>
      </trkpt>
      <trkpt lat="41.723540" lon="2.937600">
        <ele>24.986</ele>
        <time>2021-07-08T09:55:54Z</time>
      </trkpt>
      <trkpt lat="41.723830" lon="2.937270">
        <ele>34.943</ele>
        <time>2021-07-08T09:56:14Z</time>
      </trkpt>
      <trkpt lat="41.723300" lon="2.936340">
        <ele>42.777</ele>
        <time>2021-07-08T09:56:54Z</time>
      </trkpt>
      <trkpt lat="41.724720" lon="2.937100">
        <ele>52.261</ele>
        <time>2021-07-08T09:57:34Z</time>
      </trkpt>
      <trkpt lat="41.725520" lon="2.938080">
        <ele>60.627</ele>
        <time>2021-07-08T09:58:14Z</time>
      </trkpt>
      <trkpt lat="41.726260" lon="2.938110">
        <ele>64.008</ele>
        <time>2021-07-08T09:58:34Z</time>
      </trkpt>
      <trkpt lat="41.726190" lon="2.938480">
        <ele>70.684</ele>
        <time>2021-07-08T09:58:54Z</time>
      </trkpt>
      <trkpt lat="41.725410" lon="2.938320">
        <ele>66.163</ele>
        <time>2021-07-08T09:59:14Z</time>
      </trkpt>
      <trkpt lat="41.725240" lon="2.938660">
        <ele>69.162</ele>
        <time>2021-07-08T09:59:34Z</time>
      </trkpt>
      <trkpt lat="41.726530" lon="2.940400">
        <ele>93.782</ele>
        <time>2021-07-08T10:00:34Z</time>
      </trkpt>
      <trkpt lat="41.726230" lon="2.940870">
        <ele>79.368</ele>
        <time>2021-07-08T10:00:54Z</time>
      </trkpt>
      <trkpt lat="41.726440" lon="2.941400">
        <ele>95.445</ele>
        <time>2021-07-08T10:01:14Z</time>
      </trkpt>
      <trkpt lat="41.726270" lon="2.942250">
        <ele>88.251</ele>
        <time>2021-07-08T10:01:34Z</time>
      </trkpt>
      <trkpt lat="41.726700" lon="2.943890">
        <ele>95.418</ele>
        <time>2021-07-08T10:01:54Z</time>
      </trkpt>
      <trkpt lat="41.727590" lon="2.943870">
        <ele>108.681</ele>
        <time>2021-07-08T10:02:34Z</time>
      </trkpt>
      <trkpt lat="41.728610" lon="2.944390">
        <ele>95.461</ele>
        <time>2021-07-08T10:02:54Z</time>
      </trkpt>
      <trkpt lat="41.728820" lon="2.943830">
        <ele>104.417</ele>
        <time>2021-07-08T10:03:14Z</time>
      </trkpt>
      <trkpt lat="41.729800" lon="2.942920">
        <ele>85.008</ele>
        <time>2021-07-08T10:03:54Z</time>
      </trkpt>
      <trkpt lat="41.729280" lon="2.941850">
        <ele>89.495</ele>
        <time>2021-07-08T10:04:14Z</time>
      </trkpt>
      <trkpt lat="41.729700" lon="2.941290">
        <ele>85.474</ele>
        <time>2021-07-08T10:04:34Z</time>
      </trkpt>
      <trkpt lat="41.730920" lon="2.942020">
        <ele>80.883</ele>
        <time>2021-07-08T10:05:14Z</time>
      </trkpt>
      <trkpt lat="41.731380" lon="2.943230">
        <ele>64.633</ele>
        <time>2021-07-08T10:05:34Z</time>
      </trkpt>
      <trkpt lat="41.731900" lon="2.943210">
        <ele>75.899</ele>
        <time>2021-07-08T10:06:14Z</time>
      </trkpt>
      <trkpt lat="41.731790" lon="2.943810">
        <ele>74.056</ele>
        <time>2021-07-08T10:06:34Z</time>
      </trkpt>
      <trkpt lat="41.731240" lon="2.944320">
        <ele>59.542</ele>
        <time>2021-07-08T10:06:54Z</time>
      </trkpt>
      <trkpt lat="41.730990" lon="2.945220">
        <ele>52.379</ele>
        <time>2021-07-08T10:07:34Z</time>
      </trkpt>
      <trkpt lat="41.731230" lon="2.945770">
        <ele>60.037</ele>
        <time>2021-07-08T10:07:54Z</time>
      </trkpt>
      <trkpt lat="41.731160" lon="2.946790">
        <ele>42.749</ele>
        <time>2021-07-08T10:08:14Z</time>
      </trkpt>
      <trkpt lat="41.731660" lon="2.947680">
        <ele>55.713</ele>
        <time>2021-07-08T10:08:54Z</time>
      </trkpt>
      <trkpt lat="41.731490" lon="2.948700">
        <ele>43.808</ele>
        <time>2021-07-08T10:09:14Z</time>
      </trkpt>
      <trkpt lat="41.731790" lon="2.950420">
        <ele>37.660</ele>
        <time>2021-07-08T10:09:34Z</time>
      </trkpt>
      <trkpt lat="41.733300" lon="2.949620">
        <ele>56.219</ele>
        <time>2021-07-08T10:10:34Z</time>
      </trkpt>
      <trkpt lat="41.734020" lon="2.949730">
        <ele>34.568</ele>
        <time>2021-07-08T10:10:54Z</time>
      </trkpt>
      <trkpt lat="41.734830" lon="2.948460">
        <ele>33.758</ele>
        <time>2021-07-08T10:11:34Z</time>
      </trkpt>
      <trkpt lat="41.735160" lon="2.946510">
        <ele>36.674</ele>
        <time>2021-07-08T10:11:54Z</time>
      </trkpt>
      <trkpt lat="41.735720" lon="2.945520">
        <ele>34.881</ele>
        <time>2021-07-08T10:12:14Z</time>
      </trkpt>
      <trkpt lat="41.736320" lon="2.945480">
        <ele>33.727</ele>
        <time>2021-07-08T10:12:34Z</time>
      </trkpt>
      <trkpt lat="41.736370" lon="2.946740">
        <ele>34.044</ele>
        <time>2021-07-08T10:13:14Z</time>
      </trkpt>
      <trkpt lat="41.737120" lon="2.946980">
        <ele>44.429</ele>
        <time>2021-07-08T10:14:14Z</time>
      </trkpt>
      <trkpt lat="41.737330" lon="2.948040">
        <ele>50.000</ele>
        <time>2021-07-08T10:14:54Z</time>
      </trkpt>
      <trkpt lat="41.736760" lon="2.949110">
        <ele>51.120</ele>
        <time>2021-07-08T10:15:34Z</time>
      </trkpt>
      <trkpt lat="41.736820" lon="2.949870">
        <ele>57.608</ele>
        <time>2021-07-08T10:15:54Z</time>
      </trkpt>
      <trkpt lat="41.737680" lon="2.950320">
        <ele>48.949</ele>
        <time>2021-07-08T10:16:14Z</time>
      </trkpt>
      <trkpt lat="41.738070" lon="2.949830">
        <ele>61.868</ele>
        <time>2021-07-08T10:16:34Z</time>
      </trkpt>
      <trkpt lat="41.738980" lon="2.949780">
        <ele>55.237</ele>
        <time>2021-07-08T10:17:14Z</time>
      </trkpt>
      <trkpt lat="41.739360" lon="2.950730">
        <ele>38.677</ele>
        <time>2021-07-08T10:17:34Z</time>
      </trkpt>
      <trkpt lat="41.740130" lon="2.950020">
        <ele>43.283</ele>
        <time>2021-07-08T10:18:14Z</time>
      </trkpt>
      <trkpt lat="41.740560" lon="2.950290">
        <ele>41.380</ele>
        <time>2021-07-08T10:18:34Z</time>
      </trkpt>
      <trkpt lat="41.739960" lon="2.951700">
        <ele>42.286</ele>
        <time>2021-07-08T10:18:54Z</time>
      </trkpt>
      <trkpt lat="41.739960" lon="2.952630">
        <ele>53.493</ele>
        <time>2021-07-08T10:19:14Z</time>
      </trkpt>
      <trkpt lat="41.738510" lon="2.952230">
        <ele>46.366</ele>
        <time>2021-07-08T10:20:14Z</time>
      </trkpt>
      <trkpt lat="41.738850" lon="2.953610">
        <ele>64.229</ele>
        <time>2021-07-08T10:20:34Z</time>
      </trkpt>
      <trkpt lat="41.738660" lon="2.956540">
        <ele>71.521</ele>
        <time>2021-07-08T10:21:14Z</time>
      </trkpt>
      <trkpt lat="41.739420" lon="2.956460">
        <ele>91.208</ele>
        <time>2021-07-08T10:21:54Z</time>
      </trkpt>
      <trkpt lat="41.740080" lon="2.957020">
        <ele>74.563</ele>
        <time>2021-07-08T10:22:14Z</time>
      </trkpt>
      <trkpt lat="41.740680" lon="2.956420">
        <ele>89.892</ele>
        <time>2021-07-08T10:22:34Z</time>
      </trkpt>
      <trkpt lat="41.741540" lon="2.956220">
        <ele>93.491</ele>
        <time>2021-07-08T10:22:54Z</time>
      </trkpt>
      <trkpt lat="41.741780" lon="2.956880">
        <ele>92.241</ele>
        <time>2021-07-08T10:23:14Z</time>
      </trkpt>
      <trkpt lat="41.741710" lon="2.958640">
        <ele>84.217</ele>
        <time>2021-07-08T10:23:54Z</time>
      </trkpt>
      <trkpt lat="41.742870" lon="2.958570">
        <ele>106.414</ele>
        <time>2021-07-08T10:24:54Z</time>
      </trkpt>
      <trkpt lat="41.743110" lon="2.960330">
        <ele>101.720</ele>
        <time>2021-07-08T10:25:14Z</time>
      </trkpt>
      <trkpt lat="41.743640" lon="2.960960">
        <ele>99.327</ele>
        <time>2021-07-08T10:25:54Z</time>
      </trkpt>
      <trkpt lat="41.744460" lon="2.960850">
        <ele>127.757</ele>
        <time>2021-07-08T10:26:14Z</time>
      </trkpt>
      <trkpt lat="41.745930" lon="2.962950">
        <ele>109.100</ele>
        <time>2021-07-08T10:26:34Z</time>
      </trkpt>
      <trkpt lat="41.746680" lon="2.961940">
        <ele>106.820</ele>
        <time>2021-07-08T10:27:14Z</time>
      </trkpt>
      <trkpt lat="41.747240" lon="2.961910">
        <ele>93.508</ele>
        <time>2021-07-08T10:27:34Z</time>
      </trkpt>
      <trkpt lat="41.747530" lon="2.961450">
        <ele>92.722</ele>
        <time>2021-07-08T10:27:54Z</time>
      </trkpt>
      <trkpt lat="41.747010" lon="2.959970">
        <ele>98.791</ele>
        <time>2021-07-08T10:28:34Z</time>
      </trkpt>
      <trkpt lat="41.747800" lon="2.959570">
        <ele>79.520</ele>
        <time>2021-07-08T10:29:34Z</time>
      </trkpt>
      <trkpt lat="41.748430" lon="2.957290">
        <ele>77.260</ele>
        <time>2021-07-08T10:30:34Z</time>
      </trkpt>
      <trkpt lat="41.749010" lon="2.956620">
        <ele>76.636</ele>
        <time>2021-07-08T10:30:54Z</time>
      </trkpt>
      <trkpt lat="41.749510" lon="2.957340">
        <ele>72.963</ele>
        <time>2021-07-08T10:31:14Z</time>
      </trkpt>
      <trkpt lat="41.750220" lon="2.957280">
        <ele>78.249</ele>
        <time>2021-07-08T10:31:54Z</time>
      </trkpt>
      <trkpt lat="41.749660" lon="2.958190">
        <ele>70.546</ele>
        <time>2021-07-08T10:32:34Z</time>
      </trkpt>
      <trkpt lat="41.749680" lon="2.959740">
        <ele>74.179</ele>
        <time>2021-07-08T10:33:14Z</time>
      </trkpt>
      <trkpt lat="41.750480" lon="2.960480">
        <ele>91.605</ele>
        <time>2021-07-08T10:33:54Z</time>
      </trkpt>
      <trkpt lat="41.749960" lon="2.961400">
        <ele>83.225</ele>
        <time>2021-07-08T10:34:54Z</time>
      </trkpt>
      <trkpt lat="41.750640" lon="2.962400">
        <ele>108.708</ele>
        <time>2021-07-08T10:35:14Z</time>
      </trkpt>
      <trkpt lat="41.750360" lon="2.963450">
        <ele>98.124</ele>
        <time>2021-07-08T10:35:34Z</time>
      </trkpt>
      <trkpt lat="41.751070" lon="2.965190">
        <ele>116.483</ele>
        <time>2021-07-08T10:36:34Z</time>
      </trkpt>
      <trkpt lat="41.750840" lon="2.965920">
        <ele>119.442</ele>
        <time>2021-07-08T10:36:54Z</time>
      </trkpt>
      <trkpt lat="41.750400" lon="2.966300">
        <ele>112.442</ele>
        <time>2021-07-08T10:37:14Z</time>
      </trkpt>
      <trkpt lat="41.751510" lon="2.967820">
        <ele>113.958</ele>
        <time>2021-07-08T10:37:54Z</time>
      </trkpt>
      <trkpt lat="41.752490" lon="2.965490">
        <ele>118.725</ele>
        <time>2021-07-08T10:38:34Z</time>
      </trkpt>
      <trkpt lat="41.753040" lon="2.965460">
        <ele>96.031</ele>
        <time>2021-07-08T10:39:14Z</time>
      </trkpt>
      <trkpt lat="41.753570" lon="2.964890">
        <ele>108.318</ele>
        <time>2021-07-08T10:39:34Z</time>
      </trkpt>
      <trkpt lat="41.754220" lon="2.965110">
        <ele>91.868</ele>
        <time>2021-07-08T10:40:14Z</time>
      </trkpt>
      <trkpt lat="41.754660" lon="2.964510">
        <ele>85.742</ele>
        <time>2021-07-08T10:40:34Z</time>
      </trkpt>
      <trkpt lat="41.754840" lon="2.963170">
        <ele>91.326</ele>
        <time>2021-07-08T10:41:14Z</time>
      </trkpt>
      <trkpt lat="41.755830" lon="2.962960">
        <ele>84.408</ele>
        <time>2021-07-08T10:41:54Z</time>
      </trkpt>
      <trkpt lat="41.756060" lon="2.965390">
        <ele>89.633</ele>
        <time>2021-07-08T10:42:34Z</time>
      </trkpt>
      <trkpt lat="41.755200" lon="2.967130">
        <ele>86.422</ele>
        <time>2021-07-08T10:43:14Z</time>
      </trkpt>
      <trkpt lat="41.755890" lon="2.968310">
        <ele>95.231</ele>
        <time>2021-07-08T10:43:54Z</time>
      </trkpt>
      <trkpt lat="41.755710" lon="2.969570">
        <ele>82.831</ele>
        <time>2021-07-08T10:44:34Z</time>
      </trkpt>
      <trkpt lat="41.756070" lon="2.970110">
        <ele>93.267</ele>
        <time>2021-07-08T10:44:54Z</time>
      </trkpt>
      <trkpt lat="41.755980" lon="2.972190">
        <ele>95.114</ele>
        <time>2021-07-08T10:45:54Z</time>
      </trkpt>
      <trkpt lat="41.755140" lon="2.972740">
        <ele>84.590</ele>
        <time>2021-07-08T10:46:14Z</time>
      </trkpt>
      <trkpt lat="41.755400" lon="2.973910">
        <ele>88.527</ele>
        <time>2021-07-08T10:46:34Z</time>
      </trkpt>
      <trkpt lat="41.756840" lon="2.973320">
        <ele>89.387</ele>
        <time>2021-07-08T10:47:34Z</time>
      </trkpt>
      <trkpt lat="41.757650" lon="2.972450">
        <ele>86.442</ele>
        <time>2021-07-08T10:48:14Z</time>
      </trkpt>
      <trkpt lat="41.757640" lon="2.971410">
        <ele>99.626</ele>
        <time>2021-07-08T10:48:34Z</time>
      </trkpt>
      <trkpt lat="41.757850" lon="2.971220">
        <ele>101.808</ele>
        <time>2021-07-08T10:48:54Z</time>
      </trkpt>
      <trkpt lat="41.758490" lon="2.972120">
        <ele>101.465</ele>
        <time>2021-07-08T10:49:14Z</time>
      </trkpt>
      <trkpt lat="41.758860" lon="2.973410">
        <ele>112.434</ele>
        <time>2021-07-08T10:49:34Z</time>
      </trkpt>
      <trkpt lat="41.758310" lon="2.975780">
        <ele>111.413</ele>
        <time>2021-07-08T10:49:54Z</time>
      </trkpt>
      <trkpt lat="41.758980" lon="2.976890">
        <ele>111.343</ele>
        <time>2021-07-08T10:50:34Z</time>
      </trkpt>
      <trkpt lat="41.759580" lon="2.975490">
        <ele>118.069</ele>
        <time>2021-07-08T10:51:34Z</time>
      </trkpt>
      <trkpt lat="41.760030" lon="2.975540">
        <ele>99.886</ele>
        <time>2021-07-08T10:51:54Z</time>
      </trkpt>
      <trkpt lat="41.760280" lon="2.975150">
        <ele>106.112</ele>
        <time>2021-07-08T10:52:14Z</time>
      </trkpt>
      <trkpt lat="41.761010" lon="2.975340">
        <ele>91.899</ele>
        <time>2021-07-08T10:52:34Z</time>
      </trkpt>
      <trkpt lat="41.761210" lon="2.974660">
        <ele>99.214</ele>
        <time>2021-07-08T10:52:54Z</time>
      </trkpt>
      <trkpt lat="41.762030" lon="2.974370">
        <ele>85.754</ele>
        <time>2021-07-08T10:53:34Z</time>
      </trkpt>
      <trkpt lat="41.762270" lon="2.973000">
        <ele>90.709</ele>
        <time>2021-07-08T10:54:34Z</time>
      </trkpt>
      <trkpt lat="41.763100" lon="2.973710">
        <ele>76.908</ele>
        <time>2021-07-08T10:54:54Z</time>
      </trkpt>
      <trkpt lat="41.763500" lon="2.973480">
        <ele>83.298</ele>
        <time>2021-07-08T10:55:14Z</time>
      </trkpt>
      <trkpt lat="41.763950" lon="2.973920">
        <ele>75.517</ele>
        <time>2021-07-08T10:55:34Z</time>
      </trkpt>
      <trkpt lat="41.764400" lon="2.973770">
        <ele>76.656</ele>
        <time>2021-07-08T10:55:54Z</time>
      </trkpt>
      <trkpt lat="41.764800" lon="2.974660">
        <ele>65.876</ele>
        <time>2021-07-08T10:56:14Z</time>
      </trkpt>
      <trkpt lat="41.765790" lon="2.974760">
        <ele>63.872</ele>
        <time>2021-07-08T10:57:14Z</time>
      </trkpt>
      <trkpt lat="41.765650" lon="2.975490">
        <ele>64.649</ele>
        <time>2021-07-08T10:57:54Z</time>
      </trkpt>
      <trkpt lat="41.765890" lon="2.976170">
        <ele>76.885</ele>
        <time>2021-07-08T10:58:34Z</time>
      </trkpt>
      <trkpt lat="41.764630" lon="2.976080">
        <ele>70.132</ele>
        <time>2021-07-08T10:59:34Z</time>
      </trkpt>
      <trkpt lat="41.764310" lon="2.976480">
        <ele>70.726</ele>
        <time>2021-07-08T10:59:54Z</time>
      </trkpt>
      <trkpt lat="41.764930" lon="2.979200">
        <ele>96.947</ele>
        <time>2021-07-08T11:00:34Z</time>
      </trkpt>
      <trkpt lat="41.764000" lon="2.978580">
        <ele>88.711</ele>
        <time>2021-07-08T11:01:14Z</time>
      </trkpt>
      <trkpt lat="41.763390" lon="2.979230">
        <ele>94.508</ele>
        <time>2021-07-08T11:01:54Z</time>
      </trkpt>
      <trkpt lat="41.763180" lon="2.980940">
        <ele>102.799</ele>
        <time>2021-07-08T11:02:14Z</time>
      </trkpt>
      <trkpt lat="41.763570" lon="2.981640">
        <ele>117.318</ele>
        <time>2021-07-08T11:02:34Z</time>
      </trkpt>
      <trkpt lat="41.763600" lon="2.982460">
        <ele>124.057</ele>
        <time>2021-07-08T11:03:14Z</time>
      </trkpt>
      <trkpt lat="41.763250" lon="2.982550">
        <ele>112.147</ele>
        <time>2021-07-08T11:03:34Z</time>
      </trkpt>
      <trkpt lat="41.762970" lon="2.983370">
        <ele>115.993</ele>
        <time>2021-07-08T11:03:54Z</time>
      </trkpt>
      <trkpt lat="41.763550" lon="2.984180">
        <ele>131.680</ele>
        <time>2021-07-08T11:04:34Z</time>
      </trkpt>
      <trkpt lat="41.763770" lon="2.985550">
        <ele>141.046</ele>
        <time>2021-07-08T11:05:14Z</time>
      </trkpt>
      <trkpt lat="41.763510" lon="2.986110">
        <ele>143.583</ele>
        <time>2021-07-08T11:05:34Z</time>
      </trkpt>
      <trkpt lat="41.762930" lon="2.986030">
        <ele>131.043</ele>
        <time>2021-07-08T11:05:54Z</time>
      </trkpt>
      <trkpt lat="41.762570" lon="2.988240">
        <ele>140.764</ele>
        <time>2021-07-08T11:06:34Z</time>
      </trkpt>
      <trkpt lat="41.762970" lon="2.988960">
        <ele>138.110</ele>
        <time>2021-07-08T11:06:54Z</time>
      </trkpt>
      <trkpt lat="41.763510" lon="2.988810">
        <ele>146.508</ele>
        <time>2021-07-08T11:07:14Z</time>
      </trkpt>
      <trkpt lat="41.764030" lon="2.988100">
        <ele>157.681</ele>
        <time>2021-07-08T11:07:34Z</time>
      </trkpt>
      <trkpt lat="41.764280" lon="2.988210">
        <ele>156.850</ele>
        <time>2021-07-08T11:07:54Z</time>
      </trkpt>
      <trkpt lat="41.764140" lon="2.989890">
        <ele>153.899</ele>
        <time>2021-07-08T11:08:14Z</time>
      </trkpt>
      <trkpt lat="41.763710" lon="2.990560">
        <ele>150.349</ele>
        <time>2021-07-08T11:08:34Z</time>
      </trkpt>
      <trkpt lat="41.764270" lon="2.992230">
        <ele>148.725</ele>
        <time>2021-07-08T11:09:14Z</time>
      </trkpt>
      <trkpt lat="41.765500" lon="2.991710">
        <ele>150.582</ele>
        <time>2021-07-08T11:09:34Z</time>
      </trkpt>
      <trkpt lat="41.765940" lon="2.992470">
        <ele>132.688</ele>
        <time>2021-07-08T11:09:54Z</time>
      </trkpt>
      <trkpt lat="41.766990" lon="2.991910">
        <ele>141.785</ele>
        <time>2021-07-08T11:10:14Z</time>
      </trkpt>
      <trkpt lat="41.768110" lon="2.992460">
        <ele>120.234</ele>
        <time>2021-07-08T11:10:34Z</time>
      </trkpt>
      <trkpt lat="41.768980" lon="2.991770">
        <ele>122.455</ele>
        <time>2021-07-08T11:10:54Z</time>
      </trkpt>
      <trkpt lat="41.769760" lon="2.991830">
        <ele>119.510</ele>
        <time>2021-07-08T11:11:34Z</time>
      </trkpt>
      <trkpt lat="41.768520" lon="2.993710">
        <ele>113.408</ele>
        <time>2021-07-08T11:12:14Z</time>
      </trkpt>
      <trkpt lat="41.768340" lon="2.994880">
        <ele>130.050</ele>
        <time>2021-07-08T11:12:34Z</time>
      </trkpt>
      <trkpt lat="41.767840" lon="2.994860">
        <ele>121.999</ele>
        <time>2021-07-08T11:12:54Z</time>
      </trkpt>
      <trkpt lat="41.767460" lon="2.996600">
        <ele>133.078</ele>
        <time>2021-07-08T11:13:54Z</time>
      </trkpt>
      <trkpt lat="41.767730" lon="2.997230">
        <ele>144.848</ele>
        <time>2021-07-08T11:14:14Z</time>
      </trkpt>
      <trkpt lat="41.767180" lon="2.998420">
        <ele>138.174</ele>
        <time>2021-07-08T11:14:54Z</time>
      </trkpt>
      <trkpt lat="41.768730" lon="3.000460">
        <ele>130.811</ele>
        <time>2021-07-08T11:15:54Z</time>
      </trkpt>
      <trkpt lat="41.769930" lon="3.000760">
        <ele>134.297</ele>
        <time>2021-07-08T11:16:34Z</time>
      </trkpt>
      <trkpt lat="41.770950" lon="3.001590">
        <ele>133.524</ele>
        <time>2021-07-08T11:17:14Z</time>
      </trkpt>
      <trkpt lat="41.772080" lon="3.003230">
        <ele>116.136</ele>
        <time>2021-07-08T11:17:34Z</time>
      </trkpt>
      <trkpt lat="41.772520" lon="3.003390">
        <ele>122.917</ele>
        <time>2021-07-08T11:17:54Z</time>
      </trkpt>
      <trkpt lat="41.772440" lon="3.004410">
        <ele>108.318</ele>
        <time>2021-07-08T11:18:14Z</time>
      </trkpt>
      <trkpt lat="41.773870" lon="3.005820">
        <ele>106.008</ele>
        <time>2021-07-08T11:19:14Z</time>
      </trkpt>
      <trkpt lat="41.774510" lon="3.005820">
        <ele>107.230</ele>
        <time>2021-07-08T11:19:34Z</time>
      </trkpt>
      <trkpt lat="41.775520" lon="3.006580">
        <ele>107.529</ele>
        <time>2021-07-08T11:20:14Z</time>
      </trkpt>
      <trkpt lat="41.775830" lon="3.007320">
        <ele>107.618</ele>
        <time>2021-07-08T11:20:54Z</time>
      </trkpt>
      <trkpt lat="41.774350" lon="3.008650">
        <ele>98.978</ele>
        <time>2021-07-08T11:21:34Z</time>
      </trkpt>
      <trkpt lat="41.774010" lon="3.009570">
        <ele>112.774</ele>
        <time>2021-07-08T11:21:54Z</time>
      </trkpt>
      <trkpt lat="41.773260" lon="3.009440">
        <ele>108.841</ele>
        <time>2021-07-08T11:22:34Z</time>
      </trkpt>
      <trkpt lat="41.773190" lon="3.010630">
        <ele>101.697</ele>
        <time>2021-07-08T11:22:54Z</time>
      </trkpt>
      <trkpt lat="41.773570" lon="3.011750">
        <ele>115.984</ele>
        <time>2021-07-08T11:23:14Z</time>
      </trkpt>
      <trkpt lat="41.776110" lon="3.013360">
        <ele>124.984</ele>
        <time>2021-07-08T11:23:34Z</time>
      </trkpt>
      <trkpt lat="41.778550" lon="3.012090">
        <ele>102.207</ele>
        <time>2021-07-08T11:24:14Z</time>
      </trkpt>
      <trkpt lat="41.779790" lon="3.012940">
        <ele>92.417</ele>
        <time>2021-07-08T11:24:54Z</time>
      </trkpt>
      <trkpt lat="41.780010" lon="3.014020">
        <ele>86.408</ele>
        <time>2021-07-08T11:25:14Z</time>
      </trkpt>
      <trkpt lat="41.779170" lon="3.014660">
        <ele>85.995</ele>
        <time>2021-07-08T11:25:34Z</time>
      </trkpt>
      <trkpt lat="41.778440" lon="3.015800">
        <ele>75.194</ele>
        <time>2021-07-08T11:25:54Z</time>
      </trkpt>
      <trkpt lat="41.777840" lon="3.016120">
        <ele>78.213</ele>
        <time>2021-07-08T11:26:14Z</time>
      </trkpt>
      <trkpt lat="41.777460" lon="3.017640">
        <ele>62.313</ele>
        <time>2021-07-08T11:26:54Z</time>
      </trkpt>
      <trkpt lat="41.777860" lon="3.018090">
        <ele>49.299</ele>
        <time>2021-07-08T11:27:14Z</time>
      </trkpt>
      <trkpt lat="41.777940" lon="3.019260">
        <ele>54.586</ele>
        <time>2021-07-08T11:27:34Z</time>
      </trkpt>
      <trkpt lat="41.778480" lon="3.020080">
        <ele>47.582</ele>
        <time>2021-07-08T11:27:54Z</time>
      </trkpt>
      <trkpt lat="41.778380" lon="3.021060">
        <ele>44.939</ele>
        <time>2021-07-08T11:28:14Z</time>
      </trkpt>
      <trkpt lat="41.779230" lon="3.021730">
        <ele>28.731</ele>
        <time>2021-07-08T11:28:34Z</time>
      </trkpt>
      <trkpt lat="41.779520" lon="3.022380">
        <ele>25.561</ele>
        <time>2021-07-08T11:28:54Z</time>
      </trkpt>
      <trkpt lat="41.779450" lon="3.023620">
        <ele>22.007</ele>
        <time>2021-07-08T11:29:14Z</time>
      </trkpt>
      <trkpt lat="41.780190" lon="3.023800">
        <ele>15.108</ele>
        <time>2021-07-08T11:29:34Z</time>
      </trkpt>
      <trkpt lat="41.780500" lon="3.024360">
        <ele>13.650</ele>
        <time>2021-07-08T11:29:54Z</time>
      </trkpt>
      <trkpt lat="41.780430" lon="3.025980">
        <ele>11.879</ele>
        <time>2021-07-08T11:30:14Z</time>
      </trkpt>
      <trkpt lat="41.780770" lon="3.026260">
        <ele>9.268</ele>
        <time>2021-07-08T11:30:34Z</time>
      </trkpt>
      <trkpt lat="41.780540" lon="3.027180">
        <ele>11.148</ele>
        <time>2021-07-08T11:30:54Z</time>
      </trkpt>
      <trkpt lat="41.779410" lon="3.028810">
        <ele>14.414</ele>
        <time>2021-07-08T11:31:14Z</time>
      </trkpt>
      <trkpt lat="41.781350" lon="3.032100">
        <ele>10.481</ele>
        <time>2021-07-08T11:31:34Z</time>
      </trkpt>
      <trkpt lat="41.781370" lon="3.034430">
        <ele>10.987</ele>
        <time>2021-07-08T11:31:54Z</time>
      </trkpt>
      <trkpt lat="41.781990" lon="3.034550">
        <ele>11.294</ele>
        <time>2021-07-08T11:32:14Z</time>
      </trkpt>
      <trkpt lat="41.782300" lon="3.035260">
        <ele>9.319</ele>
        <time>2021-07-08T11:32:34Z</time>
      </trkpt>
      <trkpt lat="41.787500" lon="3.041540">
        <ele>37.109</ele>
        <time>2021-07-08T11:33:54Z</time>
      </trkpt>
      <trkpt lat="41.787700" lon="3.044260">
        <ele>26.819</ele>
        <time>2021-07-08T11:34:34Z</time>
      </trkpt>
      <trkpt lat="41.787370" lon="3.045110">
        <ele>16.508</ele>
        <time>2021-07-08T11:34:54Z</time>
      </trkpt>
      <trkpt lat="41.787770" lon="3.045400">
        <ele>7.498</ele>
        <time>2021-07-08T11:35:14Z</time>
      </trkpt>
      <trkpt lat="41.788200" lon="3.045120">
        <ele>12.767</ele>
        <time>2021-07-08T11:35:34Z</time>
      </trkpt>
      <trkpt lat="41.788750" lon="3.045350">
        <ele>10.576</ele>
        <time>2021-07-08T11:35:54Z</time>
      </trkpt>
      <trkpt lat="41.790810" lon="3.048840">
        <ele>6.376</ele>
        <time>2021-07-08T11:36:34Z</time>
      </trkpt>
      <trkpt lat="41.792460" lon="3.048460">
        <ele>10.072</ele>
        <time>2021-07-08T11:37:54Z</time>
      </trkpt>
      <trkpt lat="41.800040" lon="3.051170">
        <ele>33.349</ele>
        <time>2021-07-08T11:38:34Z</time>
      </trkpt>
      <trkpt lat="41.800210" lon="3.051960">
        <ele>34.365</ele>
        <time>2021-07-08T11:39:14Z</time>
      </trkpt>
      <trkpt lat="41.800820" lon="3.052040">
        <ele>30.592</ele>
        <time>2021-07-08T11:39:34Z</time>
      </trkpt>
      <trkpt lat="41.801760" lon="3.053040">
        <ele>27.213</ele>
        <time>2021-07-08T11:39:54Z</time>
      </trkpt>
      <trkpt lat="41.803940" lon="3.053650">
        <ele>9.543</ele>
        <time>2021-07-08T11:40:34Z</time>
      </trkpt>
      <trkpt lat="41.803910" lon="3.054090">
        <ele>9.607</ele>
        <time>2021-07-08T11:40:54Z</time>
      </trkpt>
      <trkpt lat="41.805300" lon="3.055200">
        <ele>1.308</ele>
        <time>2021-07-08T11:41:34Z</time>
      </trkpt>
      <trkpt lat="41.804600" lon="3.059930">
        <ele>4.828</ele>
        <time>2021-07-08T11:42:34Z</time>
      </trkpt>
      <trkpt lat="41.805200" lon="3.060170">
        <ele>5.327</ele>
        <time>2021-07-08T11:42:54Z</time>
      </trkpt>
      <trkpt lat="41.804530" lon="3.063410">
        <ele>6.296</ele>
        <time>2021-07-08T11:43:34Z</time>
      </trkpt>
      <trkpt lat="41.805080" lon="3.063440">
        <ele>5.946</ele>
        <time>2021-07-08T11:43:54Z</time>
      </trkpt>
      <trkpt lat="41.805080" lon="3.063440">
        <ele>5.955</ele>
        <time>2021-07-08T07:35:26Z</time>
      </trkpt>
      <trkpt lat="41.804670" lon="3.063350">
        <ele>5.307</ele>
        <time>2021-07-08T07:35:46Z</time>
      </trkpt>
      <trkpt lat="41.804610" lon="3.062860">
        <ele>3.917</ele>
        <time>2021-07-08T07:36:06Z</time>
      </trkpt>
      <trkpt lat="41.805120" lon="3.060580">
        <ele>5.508</ele>
        <time>2021-07-08T07:36:26Z</time>
      </trkpt>
      <trkpt lat="41.806060" lon="3.060760">
        <ele>7.242</ele>
        <time>2021-07-08T07:36:46Z</time>
      </trkpt>
      <trkpt lat="41.806290" lon="3.060050">
        <ele>6.111</ele>
        <time>2021-07-08T07:37:06Z</time>
      </trkpt>
      <trkpt lat="41.807730" lon="3.057430">
        <ele>6.220</ele>
        <time>2021-07-08T07:37:26Z</time>
      </trkpt>
      <trkpt lat="41.810310" lon="3.059970">
        <ele>6.070</ele>
        <time>2021-07-08T07:37:46Z</time>
      </trkpt>
      <trkpt lat="41.810220" lon="3.061790">
        <ele>9.391</ele>
        <time>2021-07-08T07:38:06Z</time>
      </trkpt>
      <trkpt lat="41.809520" lon="3.066250">
        <ele>19.761</ele>
        <time>2021-07-08T07:38:26Z</time>
      </trkpt>
      <trkpt lat="41.814580" lon="3.068020">
        <ele>13.965</ele>
        <time>2021-07-08T07:39:06Z</time>
      </trkpt>
      <trkpt lat="41.819840" lon="3.070740">
        <ele>10.361</ele>
        <time>2021-07-08T07:40:06Z</time>
      </trkpt>
      <trkpt lat="41.820270" lon="3.070380">
        <ele>11.358</ele>
        <time>2021-07-08T07:40:26Z</time>
      </trkpt>
      <trkpt lat="41.820130" lon="3.070190">
        <ele>10.152</ele>
        <time>2021-07-08T07:40:46Z</time>
      </trkpt>
      <trkpt lat="41.820510" lon="3.069090">
        <ele>9.617</ele>
        <time>2021-07-08T07:41:06Z</time>
      </trkpt>
      <trkpt lat="41.823220" lon="3.071610">
        <ele>19.308</ele>
        <time>2021-07-08T07:41:26Z</time>
      </trkpt>
      <trkpt lat="41.823740" lon="3.072990">
        <ele>20.022</ele>
        <time>2021-07-08T07:41:46Z</time>
      </trkpt>
      <trkpt lat="41.825800" lon="3.080240">
        <ele>30.491</ele>
        <time>2021-07-08T07:42:06Z</time>
      </trkpt>
      <trkpt lat="41.826790" lon="3.081340">
        <ele>32.540</ele>
        <time>2021-07-08T07:42:26Z</time>
      </trkpt>
      <trkpt lat="41.827800" lon="3.083160">
        <ele>34.740</ele>
        <time>2021-07-08T07:42:46Z</time>
      </trkpt>
      <trkpt lat="41.828530" lon="3.083580">
        <ele>39.021</ele>
        <time>2021-07-08T07:43:06Z</time>
      </trkpt>
      <trkpt lat="41.831400" lon="3.084150">
        <ele>36.271</ele>
        <time>2021-07-08T07:43:26Z</time>
      </trkpt>
      <trkpt lat="41.833430" lon="3.085690">
        <ele>32.675</ele>
        <time>2021-07-08T07:43:46Z</time>
      </trkpt>
      <trkpt lat="41.834060" lon="3.085830">
        <ele>30.571</ele>
        <time>2021-07-08T07:44:06Z</time>
      </trkpt>
      <trkpt lat="41.835620" lon="3.085710">
        <ele>25.497</ele>
        <time>2021-07-08T07:44:26Z</time>
      </trkpt>
      <trkpt lat="41.836340" lon="3.085910">
        <ele>26.123</ele>
        <time>2021-07-08T07:44:46Z</time>
      </trkpt>
      <trkpt lat="41.836370" lon="3.086180">
        <ele>25.225</ele>
        <time>2021-07-08T07:45:06Z</time>
      </trkpt>
      <trkpt lat="41.836890" lon="3.086630">
        <ele>31.408</ele>
        <time>2021-07-08T07:45:26Z</time>
      </trkpt>
      <trkpt lat="41.837870" lon="3.089110">
        <ele>40.386</ele>
        <time>2021-07-08T07:46:06Z</time>
      </trkpt>
      <trkpt lat="41.838150" lon="3.089140">
        <ele>36.275</ele>
        <time>2021-07-08T07:46:26Z</time>
      </trkpt>
      <trkpt lat="41.838600" lon="3.090020">
        <ele>31.164</ele>
        <time>2021-07-08T07:46:46Z</time>
      </trkpt>
      <trkpt lat="41.840210" lon="3.091980">
        <ele>11.794</ele>
        <time>2021-07-08T07:47:06Z</time>
      </trkpt>
      <trkpt lat="41.840930" lon="3.092580">
        <ele>7.855</ele>
        <time>2021-07-08T07:47:26Z</time>
      </trkpt>
      <trkpt lat="41.841670" lon="3.093950">
        <ele>7.825</ele>
        <time>2021-07-08T07:47:46Z</time>
      </trkpt>
      <trkpt lat="41.841060" lon="3.094620">
        <ele>3.959</ele>
        <time>2021-07-08T07:48:06Z</time>
      </trkpt>
      <trkpt lat="41.841340" lon="3.095470">
        <ele>5.525</ele>
        <time>2021-07-08T07:48:26Z</time>
      </trkpt>
      <trkpt lat="41.840680" lon="3.095500">
        <ele>5.891</ele>
        <time>2021-07-08T07:48:46Z</time>
      </trkpt>
      <trkpt lat="41.842110" lon="3.097670">
        <ele>5.581</ele>
        <time>2021-07-08T07:49:06Z</time>
      </trkpt>
      <trkpt lat="41.844500" lon="3.100770">
        <ele>11.919</ele>
        <time>2021-07-08T07:49:26Z</time>
      </trkpt>
      <trkpt lat="41.845860" lon="3.103400">
        <ele>12.008</ele>
        <time>2021-07-08T07:49:46Z</time>
      </trkpt>
      <trkpt lat="41.846930" lon="3.106040">
        <ele>5.616</ele>
        <time>2021-07-08T07:50:06Z</time>
      </trkpt>
      <trkpt lat="41.848460" lon="3.111800">
        <ele>11.795</ele>
        <time>2021-07-08T07:50:26Z</time>
      </trkpt>
      <trkpt lat="41.848840" lon="3.114200">
        <ele>3.734</ele>
        <time>2021-07-08T07:50:46Z</time>
      </trkpt>
      <trkpt lat="41.849090" lon="3.117660">
        <ele>10.384</ele>
        <time>2021-07-08T07:51:06Z</time>
      </trkpt>
      <trkpt lat="41.848990" lon="3.117860">
        <ele>10.435</ele>
        <time>2021-07-08T07:51:26Z</time>
      </trkpt>
      <trkpt lat="41.849090" lon="3.121460">
        <ele>6.765</ele>
        <time>2021-07-08T07:51:46Z</time>
      </trkpt>
      <trkpt lat="41.848870" lon="3.122680">
        <ele>8.359</ele>
        <time>2021-07-08T07:52:06Z</time>
      </trkpt>
      <trkpt lat="41.853560" lon="3.124290">
        <ele>1.315</ele>
        <time>2021-07-08T07:52:26Z</time>
      </trkpt>
      <trkpt lat="41.853680" lon="3.123800">
        <ele>1.895</ele>
        <time>2021-07-08T07:52:46Z</time>
      </trkpt>
      <trkpt lat="41.853940" lon="3.123990">
        <ele>1.249</ele>
        <time>2021-07-08T07:53:06Z</time>
      </trkpt>
      <trkpt lat="41.856620" lon="3.124470">
        <ele>4.023</ele>
        <time>2021-07-08T07:53:26Z</time>
      </trkpt>
      <trkpt lat="41.856920" lon="3.124710">
        <ele>4.008</ele>
        <time>2021-07-08T07:53:46Z</time>
      </trkpt>
      <trkpt lat="41.857320" lon="3.127900">
        <ele>7.876</ele>
        <time>2021-07-08T07:54:06Z</time>
      </trkpt>
      <trkpt lat="41.858520" lon="3.129080">
        <ele>8.495</ele>
        <time>2021-07-08T07:54:26Z</time>
      </trkpt>
      <trkpt lat="41.857930" lon="3.129420">
        <ele>8.954</ele>
        <time>2021-07-08T07:54:46Z</time>
      </trkpt>
      <trkpt lat="41.859180" lon="3.132320">
        <ele>11.464</ele>
        <time>2021-07-08T07:55:06Z</time>
      </trkpt>
      <trkpt lat="41.859750" lon="3.133040">
        <ele>12.045</ele>
        <time>2021-07-08T07:55:26Z</time>
      </trkpt>
      <trkpt lat="41.860100" lon="3.133060">
        <ele>11.725</ele>
        <time>2021-07-08T07:55:46Z</time>
      </trkpt>
      <trkpt lat="41.862620" lon="3.134700">
        <ele>16.439</ele>
        <time>2021-07-08T07:56:06Z</time>
      </trkpt>
      <trkpt lat="41.863700" lon="3.135870">
        <ele>16.125</ele>
        <time>2021-07-08T07:56:26Z</time>
      </trkpt>
      <trkpt lat="41.863700" lon="3.136140">
        <ele>16.573</ele>
        <time>2021-07-08T07:56:46Z</time>
      </trkpt>
      <trkpt lat="41.864610" lon="3.136790">
        <ele>16.285</ele>
        <time>2021-07-08T07:57:06Z</time>
      </trkpt>
      <trkpt lat="41.867560" lon="3.140930">
        <ele>13.513</ele>
        <time>2021-07-08T07:57:26Z</time>
      </trkpt>
      <trkpt lat="41.868220" lon="3.142600">
        <ele>17.708</ele>
        <time>2021-07-08T07:58:06Z</time>
      </trkpt>
      <trkpt lat="41.869170" lon="3.142440">
        <ele>19.844</ele>
        <time>2021-07-08T07:58:26Z</time>
      </trkpt>
      <trkpt lat="41.870300" lon="3.143860">
        <ele>26.093</ele>
        <time>2021-07-08T07:58:46Z</time>
      </trkpt>
      <trkpt lat="41.872940" lon="3.144860">
        <ele>15.412</ele>
        <time>2021-07-08T07:59:06Z</time>
      </trkpt>
      <trkpt lat="41.874290" lon="3.146480">
        <ele>18.152</ele>
        <time>2021-07-08T07:59:46Z</time>
      </trkpt>
      <trkpt lat="41.874470" lon="3.146440">
        <ele>18.493</ele>
        <time>2021-07-08T08:00:06Z</time>
      </trkpt>
      <trkpt lat="41.874780" lon="3.147380">
        <ele>19.353</ele>
        <time>2021-07-08T08:00:26Z</time>
      </trkpt>
      <trkpt lat="41.875830" lon="3.147130">
        <ele>23.617</ele>
        <time>2021-07-08T08:00:46Z</time>
      </trkpt>
      <trkpt lat="41.879770" lon="3.147110">
        <ele>22.033</ele>
        <time>2021-07-08T08:01:26Z</time>
      </trkpt>
      <trkpt lat="41.882310" lon="3.147640">
        <ele>29.566</ele>
        <time>2021-07-08T08:01:46Z</time>
      </trkpt>
      <trkpt lat="41.884300" lon="3.147120">
        <ele>30.629</ele>
        <time>2021-07-08T08:02:06Z</time>
      </trkpt>
      <trkpt lat="41.885110" lon="3.147120">
        <ele>30.921</ele>
        <time>2021-07-08T08:02:26Z</time>
      </trkpt>
      <trkpt lat="41.886110" lon="3.148220">
        <ele>29.608</ele>
        <time>2021-07-08T08:02:46Z</time>
      </trkpt>
      <trkpt lat="41.886360" lon="3.148300">
        <ele>29.283</ele>
        <time>2021-07-08T08:03:06Z</time>
      </trkpt>
      <trkpt lat="41.886980" lon="3.147960">
        <ele>30.142</ele>
        <time>2021-07-08T08:03:26Z</time>
      </trkpt>
      <trkpt lat="41.889670" lon="3.150450">
        <ele>28.331</ele>
        <time>2021-07-08T08:03:46Z</time>
      </trkpt>
      <trkpt lat="41.891800" lon="3.151610">
        <ele>29.751</ele>
        <time>2021-07-08T08:04:06Z</time>
      </trkpt>
      <trkpt lat="41.892710" lon="3.151780">
        <ele>31.982</ele>
        <time>2021-07-08T08:04:26Z</time>
      </trkpt>
      <trkpt lat="41.892840" lon="3.152110">
        <ele>28.792</ele>
        <time>2021-07-08T08:04:46Z</time>
      </trkpt>
      <trkpt lat="41.894160" lon="3.152820">
        <ele>30.666</ele>
        <time>2021-07-08T08:05:06Z</time>
      </trkpt>
      <trkpt lat="41.897660" lon="3.151830">
        <ele>32.442</ele>
        <time>2021-07-08T08:05:46Z</time>
      </trkpt>
      <trkpt lat="41.900230" lon="3.150690">
        <ele>37.973</ele>
        <time>2021-07-08T08:06:06Z</time>
      </trkpt>
      <trkpt lat="41.900530" lon="3.151040">
        <ele>39.085</ele>
        <time>2021-07-08T08:06:26Z</time>
      </trkpt>
      <trkpt lat="41.902280" lon="3.151870">
        <ele>36.313</ele>
        <time>2021-07-08T08:06:46Z</time>
      </trkpt>
      <trkpt lat="41.904360" lon="3.152420">
        <ele>40.608</ele>
        <time>2021-07-08T08:07:06Z</time>
      </trkpt>
      <trkpt lat="41.904370" lon="3.153060">
        <ele>37.724</ele>
        <time>2021-07-08T08:07:26Z</time>
      </trkpt>
      <trkpt lat="41.904960" lon="3.153910">
        <ele>39.953</ele>
        <time>2021-07-08T08:07:46Z</time>
      </trkpt>
      <trkpt lat="41.906310" lon="3.154340">
        <ele>37.552</ele>
        <time>2021-07-08T08:08:26Z</time>
      </trkpt>
      <trkpt lat="41.907390" lon="3.155260">
        <ele>39.082</ele>
        <time>2021-07-08T08:08:46Z</time>
      </trkpt>
      <trkpt lat="41.908040" lon="3.155450">
        <ele>40.993</ele>
        <time>2021-07-08T08:09:06Z</time>
      </trkpt>
      <trkpt lat="41.909940" lon="3.155270">
        <ele>44.783</ele>
        <time>2021-07-08T08:09:46Z</time>
      </trkpt>
      <trkpt lat="41.910630" lon="3.156050">
        <ele>43.657</ele>
        <time>2021-07-08T08:10:26Z</time>
      </trkpt>
      <trkpt lat="41.910900" lon="3.155900">
        <ele>45.863</ele>
        <time>2021-07-08T08:10:46Z</time>
      </trkpt>
      <trkpt lat="41.912190" lon="3.156370">
        <ele>50.898</ele>
        <time>2021-07-08T08:11:06Z</time>
      </trkpt>
      <trkpt lat="41.915460" lon="3.157040">
        <ele>58.815</ele>
        <time>2021-07-08T08:11:26Z</time>
      </trkpt>
      <trkpt lat="41.915600" lon="3.156890">
        <ele>58.826</ele>
        <time>2021-07-08T08:11:46Z</time>
      </trkpt>
      <trkpt lat="41.916040" lon="3.157390">
        <ele>59.908</ele>
        <time>2021-07-08T08:12:06Z</time>
      </trkpt>
      <trkpt lat="41.916230" lon="3.157270">
        <ele>60.126</ele>
        <time>2021-07-08T08:12:26Z</time>
      </trkpt>
      <trkpt lat="41.917220" lon="3.157470">
        <ele>60.155</ele>
        <time>2021-07-08T08:12:46Z</time>
      </trkpt>
      <trkpt lat="41.919190" lon="3.157460">
        <ele>65.014</ele>
        <time>2021-07-08T08:13:06Z</time>
      </trkpt>
      <trkpt lat="41.922430" lon="3.154600">
        <ele>56.884</ele>
        <time>2021-07-08T08:13:26Z</time>
      </trkpt>
      <trkpt lat="41.923590" lon="3.155020">
        <ele>57.465</ele>
        <time>2021-07-08T08:13:46Z</time>
      </trkpt>
      <trkpt lat="41.924040" lon="3.153310">
        <ele>52.685</ele>
        <time>2021-07-08T08:14:06Z</time>
      </trkpt>
      <trkpt lat="41.924400" lon="3.153030">
        <ele>51.229</ele>
        <time>2021-07-08T08:14:26Z</time>
      </trkpt>
      <trkpt lat="41.926070" lon="3.153490">
        <ele>43.295</ele>
        <time>2021-07-08T08:15:26Z</time>
      </trkpt>
      <trkpt lat="41.926040" lon="3.154630">
        <ele>48.874</ele>
        <time>2021-07-08T08:15:46Z</time>
      </trkpt>
      <trkpt lat="41.929750" lon="3.156160">
        <ele>37.056</ele>
        <time>2021-07-08T08:16:26Z</time>
      </trkpt>
      <trkpt lat="41.930360" lon="3.155610">
        <ele>38.421</ele>
        <time>2021-07-08T08:16:46Z</time>
      </trkpt>
      <trkpt lat="41.931170" lon="3.155740">
        <ele>41.408</ele>
        <time>2021-07-08T08:17:06Z</time>
      </trkpt>
      <trkpt lat="41.930850" lon="3.154690">
        <ele>38.964</ele>
        <time>2021-07-08T08:17:26Z</time>
      </trkpt>
      <trkpt lat="41.931530" lon="3.154210">
        <ele>38.813</ele>
        <time>2021-07-08T08:17:46Z</time>
      </trkpt>
      <trkpt lat="41.933680" lon="3.153930">
        <ele>35.962</ele>
        <time>2021-07-08T08:18:06Z</time>
      </trkpt>
      <trkpt lat="41.935470" lon="3.153300">
        <ele>40.032</ele>
        <time>2021-07-08T08:18:26Z</time>
      </trkpt>
      <trkpt lat="41.935640" lon="3.153510">
        <ele>39.173</ele>
        <time>2021-07-08T08:18:46Z</time>
      </trkpt>
      <trkpt lat="41.937030" lon="3.152630">
        <ele>34.473</ele>
        <time>2021-07-08T08:19:06Z</time>
      </trkpt>
      <trkpt lat="41.938420" lon="3.152460">
        <ele>31.817</ele>
        <time>2021-07-08T08:19:26Z</time>
      </trkpt>
      <trkpt lat="41.939710" lon="3.151680">
        <ele>34.093</ele>
        <time>2021-07-08T08:19:46Z</time>
      </trkpt>
      <trkpt lat="41.942660" lon="3.152450">
        <ele>31.082</ele>
        <time>2021-07-08T08:20:26Z</time>
      </trkpt>
      <trkpt lat="41.943530" lon="3.152100">
        <ele>27.243</ele>
        <time>2021-07-08T08:20:46Z</time>
      </trkpt>
      <trkpt lat="41.944670" lon="3.152230">
        <ele>29.017</ele>
        <time>2021-07-08T08:21:06Z</time>
      </trkpt>
      <trkpt lat="41.945850" lon="3.151530">
        <ele>28.408</ele>
        <time>2021-07-08T08:21:26Z</time>
      </trkpt>
      <trkpt lat="41.946480" lon="3.151430">
        <ele>23.835</ele>
        <time>2021-07-08T08:21:46Z</time>
      </trkpt>
      <trkpt lat="41.948440" lon="3.152030">
        <ele>32.854</ele>
        <time>2021-07-08T08:22:06Z</time>
      </trkpt>
      <trkpt lat="41.950780" lon="3.151480">
        <ele>24.313</ele>
        <time>2021-07-08T08:22:26Z</time>
      </trkpt>
      <trkpt lat="41.951200" lon="3.152070">
        <ele>22.873</ele>
        <time>2021-07-08T08:22:46Z</time>
      </trkpt>
      <trkpt lat="41.953000" lon="3.152060">
        <ele>21.654</ele>
        <time>2021-07-08T08:23:06Z</time>
      </trkpt>
      <trkpt lat="41.954010" lon="3.151630">
        <ele>23.394</ele>
        <time>2021-07-08T08:23:26Z</time>
      </trkpt>
      <trkpt lat="41.955040" lon="3.150160">
        <ele>19.928</ele>
        <time>2021-07-08T08:23:46Z</time>
      </trkpt>
      <trkpt lat="41.956750" lon="3.149410">
        <ele>19.174</ele>
        <time>2021-07-08T08:24:26Z</time>
      </trkpt>
      <trkpt lat="41.958390" lon="3.149210">
        <ele>15.352</ele>
        <time>2021-07-08T08:25:06Z</time>
      </trkpt>
      <trkpt lat="41.959010" lon="3.148770">
        <ele>15.253</ele>
        <time>2021-07-08T08:25:26Z</time>
      </trkpt>
      <trkpt lat="41.961090" lon="3.153190">
        <ele>29.908</ele>
        <time>2021-07-08T08:25:46Z</time>
      </trkpt>
      <trkpt lat="41.964340" lon="3.150810">
        <ele>24.008</ele>
        <time>2021-07-08T08:26:06Z</time>
      </trkpt>
      <trkpt lat="41.964890" lon="3.150690">
        <ele>22.092</ele>
        <time>2021-07-08T08:26:26Z</time>
      </trkpt>
      <trkpt lat="41.964990" lon="3.150400">
        <ele>22.031</ele>
        <time>2021-07-08T08:26:46Z</time>
      </trkpt>
      <trkpt lat="41.967440" lon="3.148490">
        <ele>23.630</ele>
        <time>2021-07-08T08:27:26Z</time>
      </trkpt>
      <trkpt lat="41.967890" lon="3.148310">
        <ele>24.090</ele>
        <time>2021-07-08T08:27:46Z</time>
      </trkpt>
      <trkpt lat="41.972970" lon="3.149240">
        <ele>15.571</ele>
        <time>2021-07-08T08:28:06Z</time>
      </trkpt>
      <trkpt lat="41.973780" lon="3.150080">
        <ele>17.141</ele>
        <time>2021-07-08T08:28:26Z</time>
      </trkpt>
      <trkpt lat="41.973830" lon="3.150350">
        <ele>17.095</ele>
        <time>2021-07-08T08:28:46Z</time>
      </trkpt>
      <trkpt lat="41.973610" lon="3.150930">
        <ele>17.071</ele>
        <time>2021-07-08T08:29:06Z</time>
      </trkpt>
      <trkpt lat="41.973860" lon="3.151330">
        <ele>17.643</ele>
        <time>2021-07-08T08:29:26Z</time>
      </trkpt>
      <trkpt lat="41.974100" lon="3.151310">
        <ele>18.764</ele>
        <time>2021-07-08T08:29:46Z</time>
      </trkpt>
      <trkpt lat="41.974420" lon="3.150950">
        <ele>17.710</ele>
        <time>2021-07-08T08:30:06Z</time>
      </trkpt>
      <trkpt lat="41.985460" lon="3.154730">
        <ele>10.408</ele>
        <time>2021-07-08T08:30:46Z</time>
      </trkpt>
      <trkpt lat="41.986760" lon="3.154660">
        <ele>8.411</ele>
        <time>2021-07-08T08:31:06Z</time>
      </trkpt>
      <trkpt lat="41.995550" lon="3.149330">
        <ele>2.670</ele>
        <time>2021-07-08T08:31:26Z</time>
      </trkpt>
      <trkpt lat="42.018200" lon="3.141780">
        <ele>4.459</ele>
        <time>2021-07-08T08:31:46Z</time>
      </trkpt>
      <trkpt lat="42.018930" lon="3.141390">
        <ele>5.039</ele>
        <time>2021-07-08T08:32:06Z</time>
      </trkpt>
      <trkpt lat="42.032080" lon="3.125290">
        <ele>8.060</ele>
        <time>2021-07-08T08:32:46Z</time>
      </trkpt>
      <trkpt lat="42.033270" lon="3.124610">
        <ele>9.080</ele>
        <time>2021-07-08T08:33:26Z</time>
      </trkpt>
      <trkpt lat="42.033700" lon="3.124890">
        <ele>10.144</ele>
        <time>2021-07-08T08:33:46Z</time>
      </trkpt>
      <trkpt lat="42.034140" lon="3.124690">
        <ele>10.920</ele>
        <time>2021-07-08T08:34:06Z</time>
      </trkpt>
      <trkpt lat="42.038450" lon="3.127880">
        <ele>11.619</ele>
        <time>2021-07-08T08:34:46Z</time>
      </trkpt>
      <trkpt lat="42.038560" lon="3.126180">
        <ele>10.909</ele>
        <time>2021-07-08T08:35:06Z</time>
      </trkpt>
      <trkpt lat="42.039220" lon="3.124510">
        <ele>10.219</ele>
        <time>2021-07-08T08:35:26Z</time>
      </trkpt>
      <trkpt lat="42.041570" lon="3.123920">
        <ele>17.708</ele>
        <time>2021-07-08T08:35:46Z</time>
      </trkpt>
      <trkpt lat="42.043390" lon="3.119110">
        <ele>13.818</ele>
        <time>2021-07-08T08:36:06Z</time>
      </trkpt>
      <trkpt lat="42.045640" lon="3.116340">
        <ele>14.457</ele>
        <time>2021-07-08T08:36:26Z</time>
      </trkpt>
      <trkpt lat="42.045640" lon="3.115350">
        <ele>13.636</ele>
        <time>2021-07-08T08:36:46Z</time>
      </trkpt>
      <trkpt lat="42.046540" lon="3.115470">
        <ele>17.826</ele>
        <time>2021-07-08T08:37:06Z</time>
      </trkpt>
      <trkpt lat="42.046850" lon="3.114540">
        <ele>17.027</ele>
        <time>2021-07-08T08:37:26Z</time>
      </trkpt>
      <trkpt lat="42.047490" lon="3.114360">
        <ele>20.977</ele>
        <time>2021-07-08T08:37:46Z</time>
      </trkpt>
      <trkpt lat="42.048300" lon="3.113530">
        <ele>24.581</ele>
        <time>2021-07-08T08:38:06Z</time>
      </trkpt>
      <trkpt lat="42.049250" lon="3.112950">
        <ele>25.297</ele>
        <time>2021-07-08T08:38:26Z</time>
      </trkpt>
      <trkpt lat="42.049940" lon="3.111910">
        <ele>24.764</ele>
        <time>2021-07-08T08:38:46Z</time>
      </trkpt>
      <trkpt lat="42.050270" lon="3.110830">
        <ele>22.906</ele>
        <time>2021-07-08T08:39:06Z</time>
      </trkpt>
      <trkpt lat="42.051390" lon="3.109720">
        <ele>23.016</ele>
        <time>2021-07-08T08:39:26Z</time>
      </trkpt>
      <trkpt lat="42.052040" lon="3.109590">
        <ele>24.708</ele>
        <time>2021-07-08T08:39:46Z</time>
      </trkpt>
      <trkpt lat="42.052550" lon="3.108860">
        <ele>25.563</ele>
        <time>2021-07-08T08:40:06Z</time>
      </trkpt>
      <trkpt lat="42.052640" lon="3.107970">
        <ele>26.142</ele>
        <time>2021-07-08T08:40:26Z</time>
      </trkpt>
      <trkpt lat="42.053730" lon="3.106750">
        <ele>22.471</ele>
        <time>2021-07-08T08:40:46Z</time>
      </trkpt>
      <trkpt lat="42.054690" lon="3.106120">
        <ele>19.711</ele>
        <time>2021-07-08T08:41:06Z</time>
      </trkpt>
      <trkpt lat="42.056160" lon="3.103600">
        <ele>10.012</ele>
        <time>2021-07-08T08:41:26Z</time>
      </trkpt>
      <trkpt lat="42.056730" lon="3.103130">
        <ele>9.372</ele>
        <time>2021-07-08T08:41:46Z</time>
      </trkpt>
      <trkpt lat="42.059340" lon="3.102640">
        <ele>9.686</ele>
        <time>2021-07-08T08:42:26Z</time>
      </trkpt>
      <trkpt lat="42.061280" lon="3.101390">
        <ele>10.012</ele>
        <time>2021-07-08T08:42:46Z</time>
      </trkpt>
      <trkpt lat="42.066210" lon="3.099110">
        <ele>14.296</ele>
        <time>2021-07-08T08:43:46Z</time>
      </trkpt>
      <trkpt lat="42.072260" lon="3.097820">
        <ele>14.231</ele>
        <time>2021-07-08T08:44:06Z</time>
      </trkpt>
      <trkpt lat="42.075090" lon="3.097440">
        <ele>12.924</ele>
        <time>2021-07-08T08:44:26Z</time>
      </trkpt>
      <trkpt lat="42.077280" lon="3.097440">
        <ele>12.208</ele>
        <time>2021-07-08T08:44:46Z</time>
      </trkpt>
      <trkpt lat="42.078290" lon="3.097200">
        <ele>10.146</ele>
        <time>2021-07-08T08:45:06Z</time>
      </trkpt>
      <trkpt lat="42.079990" lon="3.095010">
        <ele>23.095</ele>
        <time>2021-07-08T08:45:26Z</time>
      </trkpt>
      <trkpt lat="42.082650" lon="3.095690">
        <ele>19.584</ele>
        <time>2021-07-08T08:46:06Z</time>
      </trkpt>
      <trkpt lat="42.083580" lon="3.095230">
        <ele>19.054</ele>
        <time>2021-07-08T08:46:26Z</time>
      </trkpt>
      <trkpt lat="42.083940" lon="3.093660">
        <ele>14.725</ele>
        <time>2021-07-08T08:46:46Z</time>
      </trkpt>
      <trkpt lat="42.084070" lon="3.092000">
        <ele>9.085</ele>
        <time>2021-07-08T08:47:06Z</time>
      </trkpt>
      <trkpt lat="42.084290" lon="3.091740">
        <ele>8.669</ele>
        <time>2021-07-08T08:47:26Z</time>
      </trkpt>
      <trkpt lat="42.085970" lon="3.091670">
        <ele>8.095</ele>
        <time>2021-07-08T08:48:06Z</time>
      </trkpt>
      <trkpt lat="42.086940" lon="3.090820">
        <ele>8.055</ele>
        <time>2021-07-08T08:48:26Z</time>
      </trkpt>
      <trkpt lat="42.088760" lon="3.090430">
        <ele>8.007</ele>
        <time>2021-07-08T08:48:46Z</time>
      </trkpt>
      <trkpt lat="42.089470" lon="3.089940">
        <ele>8.017</ele>
        <time>2021-07-08T08:49:06Z</time>
      </trkpt>
      <trkpt lat="42.091330" lon="3.089420">
        <ele>8.908</ele>
        <time>2021-07-08T08:49:26Z</time>
      </trkpt>
      <trkpt lat="42.092770" lon="3.088490">
        <ele>8.092</ele>
        <time>2021-07-08T08:49:46Z</time>
      </trkpt>
      <trkpt lat="42.096530" lon="3.087150">
        <ele>7.611</ele>
        <time>2021-07-08T08:50:06Z</time>
      </trkpt>
      <trkpt lat="42.097430" lon="3.086460">
        <ele>7.210</ele>
        <time>2021-07-08T08:50:26Z</time>
      </trkpt>
      <trkpt lat="42.098760" lon="3.086170">
        <ele>7.040</ele>
        <time>2021-07-08T08:50:46Z</time>
      </trkpt>
      <trkpt lat="42.099700" lon="3.086440">
        <ele>7.821</ele>
        <time>2021-07-08T08:51:06Z</time>
      </trkpt>
      <trkpt lat="42.100760" lon="3.085960">
        <ele>7.171</ele>
        <time>2021-07-08T08:51:26Z</time>
      </trkpt>
      <trkpt lat="42.101890" lon="3.085860">
        <ele>7.145</ele>
        <time>2021-07-08T08:51:46Z</time>
      </trkpt>
      <trkpt lat="42.102920" lon="3.085440">
        <ele>9.381</ele>
        <time>2021-07-08T08:52:06Z</time>
      </trkpt>
      <trkpt lat="42.103440" lon="3.085570">
        <ele>13.644</ele>
        <time>2021-07-08T08:52:26Z</time>
      </trkpt>
      <trkpt lat="42.103600" lon="3.086470">
        <ele>17.905</ele>
        <time>2021-07-08T08:52:46Z</time>
      </trkpt>
      <trkpt lat="42.103790" lon="3.086620">
        <ele>18.815</ele>
        <time>2021-07-08T08:53:06Z</time>
      </trkpt>
      <trkpt lat="42.105370" lon="3.085800">
        <ele>20.708</ele>
        <time>2021-07-08T08:53:26Z</time>
      </trkpt>
      <trkpt lat="42.107740" lon="3.085720">
        <ele>7.271</ele>
        <time>2021-07-08T08:53:46Z</time>
      </trkpt>
      <trkpt lat="42.113760" lon="3.082390">
        <ele>5.070</ele>
        <time>2021-07-08T08:54:06Z</time>
      </trkpt>
      <trkpt lat="42.116090" lon="3.080710">
        <ele>5.029</ele>
        <time>2021-07-08T08:54:26Z</time>
      </trkpt>
      <trkpt lat="42.117960" lon="3.080510">
        <ele>5.079</ele>
        <time>2021-07-08T08:54:46Z</time>
      </trkpt>
      <trkpt lat="42.120470" lon="3.079180">
        <ele>4.350</ele>
        <time>2021-07-08T08:55:26Z</time>
      </trkpt>
      <trkpt lat="42.123140" lon="3.078490">
        <ele>4.030</ele>
        <time>2021-07-08T08:55:46Z</time>
      </trkpt>
      <trkpt lat="42.124760" lon="3.078520">
        <ele>4.084</ele>
        <time>2021-07-08T08:56:06Z</time>
      </trkpt>
      <trkpt lat="42.125070" lon="3.079020">
        <ele>4.080</ele>
        <time>2021-07-08T08:56:26Z</time>
      </trkpt>
      <trkpt lat="42.128050" lon="3.079020">
        <ele>4.087</ele>
        <time>2021-07-08T08:57:06Z</time>
      </trkpt>
      <trkpt lat="42.128360" lon="3.079250">
        <ele>4.042</ele>
        <time>2021-07-08T08:57:26Z</time>
      </trkpt>
      <trkpt lat="42.129170" lon="3.078740">
        <ele>4.026</ele>
        <time>2021-07-08T08:57:46Z</time>
      </trkpt>
      <trkpt lat="42.131340" lon="3.078080">
        <ele>5.008</ele>
        <time>2021-07-08T08:58:06Z</time>
      </trkpt>
      <trkpt lat="42.132280" lon="3.075590">
        <ele>6.055</ele>
        <time>2021-07-08T08:58:26Z</time>
      </trkpt>
      <trkpt lat="42.133080" lon="3.075390">
        <ele>7.094</ele>
        <time>2021-07-08T08:58:46Z</time>
      </trkpt>
      <trkpt lat="42.133200" lon="3.074980">
        <ele>7.093</ele>
        <time>2021-07-08T08:59:06Z</time>
      </trkpt>
      <trkpt lat="42.133450" lon="3.074860">
        <ele>7.013</ele>
        <time>2021-07-08T08:59:26Z</time>
      </trkpt>
      <trkpt lat="42.133420" lon="3.074650">
        <ele>7.214</ele>
        <time>2021-07-08T08:59:46Z</time>
      </trkpt>
      <trkpt lat="42.135100" lon="3.073720">
        <ele>6.964</ele>
        <time>2021-07-08T09:00:06Z</time>
      </trkpt>
      <trkpt lat="42.136390" lon="3.072400">
        <ele>7.448</ele>
        <time>2021-07-08T09:00:26Z</time>
      </trkpt>
      <trkpt lat="42.140240" lon="3.071630">
        <ele>5.184</ele>
        <time>2021-07-08T09:01:06Z</time>
      </trkpt>
      <trkpt lat="42.142690" lon="3.071680">
        <ele>5.028</ele>
        <time>2021-07-08T09:01:26Z</time>
      </trkpt>
      <trkpt lat="42.143510" lon="3.071270">
        <ele>3.689</ele>
        <time>2021-07-08T09:01:46Z</time>
      </trkpt>
      <trkpt lat="42.145330" lon="3.069700">
        <ele>4.717</ele>
        <time>2021-07-08T09:02:06Z</time>
      </trkpt>
      <trkpt lat="42.147900" lon="3.068910">
        <ele>4.008</ele>
        <time>2021-07-08T09:02:46Z</time>
      </trkpt>
      <trkpt lat="42.148790" lon="3.068990">
        <ele>4.079</ele>
        <time>2021-07-08T09:03:06Z</time>
      </trkpt>
      <trkpt lat="42.150300" lon="3.068760">
        <ele>4.078</ele>
        <time>2021-07-08T09:03:26Z</time>
      </trkpt>
      <trkpt lat="42.154110" lon="3.067690">
        <ele>5.027</ele>
        <time>2021-07-08T09:04:06Z</time>
      </trkpt>
      <trkpt lat="42.155120" lon="3.067990">
        <ele>5.017</ele>
        <time>2021-07-08T09:04:26Z</time>
      </trkpt>
      <trkpt lat="42.155800" lon="3.068800">
        <ele>5.078</ele>
        <time>2021-07-08T09:04:46Z</time>
      </trkpt>
      <trkpt lat="42.156570" lon="3.069160">
        <ele>5.048</ele>
        <time>2021-07-08T09:05:06Z</time>
      </trkpt>
      <trkpt lat="42.159600" lon="3.068960">
        <ele>5.012</ele>
        <time>2021-07-08T09:05:26Z</time>
      </trkpt>
      <trkpt lat="42.160570" lon="3.068690">
        <ele>5.078</ele>
        <time>2021-07-08T09:05:46Z</time>
      </trkpt>
      <trkpt lat="42.161890" lon="3.069170">
        <ele>5.036</ele>
        <time>2021-07-08T09:06:06Z</time>
      </trkpt>
      <trkpt lat="42.164070" lon="3.069600">
        <ele>5.017</ele>
        <time>2021-07-08T09:06:26Z</time>
      </trkpt>
      <trkpt lat="42.164560" lon="3.069900">
        <ele>5.018</ele>
        <time>2021-07-08T09:06:46Z</time>
      </trkpt>
      <trkpt lat="42.165280" lon="3.070820">
        <ele>5.008</ele>
        <time>2021-07-08T09:07:06Z</time>
      </trkpt>
      <trkpt lat="42.166620" lon="3.072070">
        <ele>5.070</ele>
        <time>2021-07-08T09:07:26Z</time>
      </trkpt>
      <trkpt lat="42.170840" lon="3.074160">
        <ele>6.079</ele>
        <time>2021-07-08T09:07:46Z</time>
      </trkpt>
      <trkpt lat="42.171960" lon="3.073890">
        <ele>7.048</ele>
        <time>2021-07-08T09:08:26Z</time>
      </trkpt>
      <trkpt lat="42.173240" lon="3.075260">
        <ele>6.048</ele>
        <time>2021-07-08T09:09:06Z</time>
      </trkpt>
      <trkpt lat="42.174970" lon="3.080140">
        <ele>5.689</ele>
        <time>2021-07-08T09:09:26Z</time>
      </trkpt>
      <trkpt lat="42.175880" lon="3.081170">
        <ele>5.899</ele>
        <time>2021-07-08T09:09:46Z</time>
      </trkpt>
      <trkpt lat="42.176940" lon="3.083370">
        <ele>5.083</ele>
        <time>2021-07-08T09:10:06Z</time>
      </trkpt>
      <trkpt lat="42.181350" lon="3.085120">
        <ele>5.479</ele>
        <time>2021-07-08T09:10:46Z</time>
      </trkpt>
      <trkpt lat="42.182560" lon="3.086200">
        <ele>4.954</ele>
        <time>2021-07-08T09:11:06Z</time>
      </trkpt>
      <trkpt lat="42.185180" lon="3.086060">
        <ele>5.056</ele>
        <time>2021-07-08T09:11:46Z</time>
      </trkpt>
      <trkpt lat="42.186300" lon="3.086620">
        <ele>5.311</ele>
        <time>2021-07-08T09:12:06Z</time>
      </trkpt>
      <trkpt lat="42.186650" lon="3.086980">
        <ele>5.808</ele>
        <time>2021-07-08T09:12:26Z</time>
      </trkpt>
      <trkpt lat="42.186800" lon="3.086900">
        <ele>5.612</ele>
        <time>2021-07-08T09:12:46Z</time>
      </trkpt>
      <trkpt lat="42.186880" lon="3.086410">
        <ele>5.571</ele>
        <time>2021-07-08T09:13:06Z</time>
      </trkpt>
      <trkpt lat="42.187640" lon="3.084860">
        <ele>3.350</ele>
        <time>2021-07-08T09:13:26Z</time>
      </trkpt>
      <trkpt lat="42.188110" lon="3.084580">
        <ele>4.030</ele>
        <time>2021-07-08T09:13:46Z</time>
      </trkpt>
      <trkpt lat="42.188650" lon="3.084750">
        <ele>3.261</ele>
        <time>2021-07-08T09:14:06Z</time>
      </trkpt>
      <trkpt lat="42.188540" lon="3.083400">
        <ele>4.041</ele>
        <time>2021-07-08T09:14:26Z</time>
      </trkpt>
      <trkpt lat="42.190080" lon="3.083150">
        <ele>4.075</ele>
        <time>2021-07-08T09:14:46Z</time>
      </trkpt>
      <trkpt lat="42.191240" lon="3.082280">
        <ele>3.071</ele>
        <time>2021-07-08T09:15:26Z</time>
      </trkpt>
      <trkpt lat="42.191430" lon="3.082420">
        <ele>3.058</ele>
        <time>2021-07-08T09:15:46Z</time>
      </trkpt>
      <trkpt lat="42.191550" lon="3.082300">
        <ele>3.052</ele>
        <time>2021-07-08T09:16:06Z</time>
      </trkpt>
      <trkpt lat="42.211220" lon="3.085550">
        <ele>2.017</ele>
        <time>2021-07-08T09:16:26Z</time>
      </trkpt>
      <trkpt lat="42.212080" lon="3.085880">
        <ele>1.408</ele>
        <time>2021-07-08T09:16:46Z</time>
      </trkpt>
      <trkpt lat="42.216510" lon="3.088720">
        <ele>1.052</ele>
        <time>2021-07-08T09:17:06Z</time>
      </trkpt>
      <trkpt lat="42.218070" lon="3.088450">
        <ele>1.041</ele>
        <time>2021-07-08T09:17:26Z</time>
      </trkpt>
      <trkpt lat="42.220040" lon="3.088590">
        <ele>1.020</ele>
        <time>2021-07-08T09:17:46Z</time>
      </trkpt>
      <trkpt lat="42.222390" lon="3.087420">
        <ele>1.070</ele>
        <time>2021-07-08T09:18:26Z</time>
      </trkpt>
      <trkpt lat="42.224620" lon="3.087700">
        <ele>1.521</ele>
        <time>2021-07-08T09:19:06Z</time>
      </trkpt>
      <trkpt lat="42.228150" lon="3.085630">
        <ele>2.031</ele>
        <time>2021-07-08T09:19:26Z</time>
      </trkpt>
      <trkpt lat="42.230010" lon="3.090950">
        <ele>2.015</ele>
        <time>2021-07-08T09:20:06Z</time>
      </trkpt>
      <trkpt lat="42.229960" lon="3.091170">
        <ele>2.091</ele>
        <time>2021-07-08T09:20:26Z</time>
      </trkpt>
      <trkpt lat="42.230260" lon="3.091290">
        <ele>2.035</ele>
        <time>2021-07-08T09:20:46Z</time>
      </trkpt>
      <trkpt lat="42.235790" lon="3.089430">
        <ele>3.086</ele>
        <time>2021-07-08T09:21:26Z</time>
      </trkpt>
      <trkpt lat="42.238460" lon="3.087390">
        <ele>3.014</ele>
        <time>2021-07-08T09:21:46Z</time>
      </trkpt>
      <trkpt lat="42.239450" lon="3.086360">
        <ele>4.008</ele>
        <time>2021-07-08T09:22:06Z</time>
      </trkpt>
      <trkpt lat="42.243430" lon="3.083550">
        <ele>4.170</ele>
        <time>2021-07-08T09:22:26Z</time>
      </trkpt>
      <trkpt lat="42.245960" lon="3.082510">
        <ele>5.049</ele>
        <time>2021-07-08T09:22:46Z</time>
      </trkpt>
      <trkpt lat="42.247530" lon="3.082200">
        <ele>5.028</ele>
        <time>2021-07-08T09:23:06Z</time>
      </trkpt>
      <trkpt lat="42.251290" lon="3.079530">
        <ele>7.818</ele>
        <time>2021-07-08T09:23:26Z</time>
      </trkpt>
      <trkpt lat="42.251500" lon="3.081130">
        <ele>7.699</ele>
        <time>2021-07-08T09:23:46Z</time>
      </trkpt>
      <trkpt lat="42.252600" lon="3.084790">
        <ele>7.689</ele>
        <time>2021-07-08T09:24:06Z</time>
      </trkpt>
      <trkpt lat="42.253060" lon="3.085590">
        <ele>7.853</ele>
        <time>2021-07-08T09:24:26Z</time>
      </trkpt>
      <trkpt lat="42.254080" lon="3.086520">
        <ele>8.329</ele>
        <time>2021-07-08T09:24:46Z</time>
      </trkpt>
      <trkpt lat="42.254170" lon="3.086810">
        <ele>7.527</ele>
        <time>2021-07-08T09:25:06Z</time>
      </trkpt>
      <trkpt lat="42.254050" lon="3.087600">
        <ele>6.668</ele>
        <time>2021-07-08T09:25:26Z</time>
      </trkpt>
      <trkpt lat="42.249540" lon="3.099780">
        <ele>4.014</ele>
        <time>2021-07-08T09:25:46Z</time>
      </trkpt>
      <trkpt lat="42.248950" lon="3.100530">
        <ele>4.508</ele>
        <time>2021-07-08T09:26:06Z</time>
      </trkpt>
      <trkpt lat="42.246720" lon="3.102090">
        <ele>4.779</ele>
        <time>2021-07-08T09:26:26Z</time>
      </trkpt>
      <trkpt lat="42.245390" lon="3.103330">
        <ele>4.848</ele>
        <time>2021-07-08T09:26:46Z</time>
      </trkpt>
      <trkpt lat="42.245810" lon="3.103030">
        <ele>6.537</ele>
        <time>2021-07-08T09:27:06Z</time>
      </trkpt>
      <trkpt lat="42.245550" lon="3.103460">
        <ele>5.557</ele>
        <time>2021-07-08T09:27:26Z</time>
      </trkpt>
      <trkpt lat="42.246410" lon="3.104240">
        <ele>5.798</ele>
        <time>2021-07-08T09:27:46Z</time>
      </trkpt>
      <trkpt lat="42.247830" lon="3.106760">
        <ele>3.098</ele>
        <time>2021-07-08T09:28:26Z</time>
      </trkpt>
      <trkpt lat="42.247980" lon="3.106770">
        <ele>3.032</ele>
        <time>2021-07-08T09:28:46Z</time>
      </trkpt>
      <trkpt lat="42.250860" lon="3.111520">
        <ele>2.178</ele>
        <time>2021-07-08T09:29:06Z</time>
      </trkpt>
      <trkpt lat="42.249750" lon="3.112640">
        <ele>2.052</ele>
        <time>2021-07-08T09:29:26Z</time>
      </trkpt>
      <trkpt lat="42.248670" lon="3.115080">
        <ele>2.053</ele>
        <time>2021-07-08T09:29:46Z</time>
      </trkpt>
      <trkpt lat="42.249450" lon="3.115760">
        <ele>2.008</ele>
        <time>2021-07-08T09:30:06Z</time>
      </trkpt>
      <trkpt lat="42.248510" lon="3.117690">
        <ele>2.008</ele>
        <time>2021-07-08T09:30:26Z</time>
      </trkpt>
      <trkpt lat="42.247400" lon="3.120890">
        <ele>2.032</ele>
        <time>2021-07-08T09:30:46Z</time>
      </trkpt>
      <trkpt lat="42.246780" lon="3.123210">
        <ele>2.081</ele>
        <time>2021-07-08T09:31:06Z</time>
      </trkpt>
      <trkpt lat="42.246970" lon="3.123080">
        <ele>2.060</ele>
        <time>2021-07-08T09:31:26Z</time>
      </trkpt>
      <trkpt lat="42.247080" lon="3.123910">
        <ele>2.010</ele>
        <time>2021-07-08T09:31:46Z</time>
      </trkpt>
      <trkpt lat="42.246940" lon="3.124020">
        <ele>2.031</ele>
        <time>2021-07-08T09:32:06Z</time>
      </trkpt>
      <trkpt lat="42.247050" lon="3.124130">
        <ele>2.061</ele>
        <time>2021-07-08T09:32:26Z</time>
      </trkpt>
      <trkpt lat="42.247240" lon="3.123910">
        <ele>2.085</ele>
        <time>2021-07-08T09:32:46Z</time>
      </trkpt>
      <trkpt lat="42.247080" lon="3.123910">
        <ele>2.051</ele>
        <time>2021-07-08T09:33:06Z</time>
      </trkpt>
      <trkpt lat="42.246970" lon="3.123080">
        <ele>2.053</ele>
        <time>2021-07-08T09:33:26Z</time>
      </trkpt>
      <trkpt lat="42.247090" lon="3.123000">
        <ele>1.904</ele>
        <time>2021-07-08T09:33:46Z</time>
      </trkpt>
      <trkpt lat="42.252230" lon="3.128980">
        <ele>2.014</ele>
        <time>2021-07-08T09:34:06Z</time>
      </trkpt>
      <trkpt lat="42.253130" lon="3.130260">
        <ele>2.008</ele>
        <time>2021-07-08T09:34:26Z</time>
      </trkpt>
      <trkpt lat="42.262730" lon="3.125350">
        <ele>1.072</ele>
        <time>2021-07-08T09:34:46Z</time>
      </trkpt>
      <trkpt lat="42.264870" lon="3.128020">
        <ele>1.031</ele>
        <time>2021-07-08T09:35:06Z</time>
      </trkpt>
      <trkpt lat="42.266150" lon="3.127250">
        <ele>1.120</ele>
        <time>2021-07-08T09:35:46Z</time>
      </trkpt>
      <trkpt lat="42.266540" lon="3.127960">
        <ele>1.360</ele>
        <time>2021-07-08T09:36:06Z</time>
      </trkpt>
      <trkpt lat="42.267500" lon="3.128580">
        <ele>1.071</ele>
        <time>2021-07-08T09:36:26Z</time>
      </trkpt>
      <trkpt lat="42.269130" lon="3.130870">
        <ele>1.121</ele>
        <time>2021-07-08T09:37:06Z</time>
      </trkpt>
      <trkpt lat="42.269700" lon="3.130500">
        <ele>3.015</ele>
        <time>2021-07-08T09:37:26Z</time>
      </trkpt>
      <trkpt lat="42.271230" lon="3.132970">
        <ele>5.221</ele>
        <time>2021-07-08T09:37:46Z</time>
      </trkpt>
      <trkpt lat="42.271660" lon="3.134040">
        <ele>2.921</ele>
        <time>2021-07-08T09:38:06Z</time>
      </trkpt>
      <trkpt lat="42.271720" lon="3.135130">
        <ele>1.441</ele>
        <time>2021-07-08T09:38:26Z</time>
      </trkpt>
      <trkpt lat="42.271620" lon="3.135260">
        <ele>1.005</ele>
        <time>2021-07-08T09:38:46Z</time>
      </trkpt>
      <trkpt lat="42.271780" lon="3.135700">
        <ele>2.108</ele>
        <time>2021-07-08T09:39:06Z</time>
      </trkpt>
      <trkpt lat="42.271550" lon="3.141470">
        <ele>3.049</ele>
        <time>2021-07-08T09:39:46Z</time>
      </trkpt>
      <trkpt lat="42.270860" lon="3.143320">
        <ele>2.188</ele>
        <time>2021-07-08T09:40:06Z</time>
      </trkpt>
      <trkpt lat="42.270700" lon="3.145730">
        <ele>2.097</ele>
        <time>2021-07-08T09:40:26Z</time>
      </trkpt>
      <trkpt lat="42.267860" lon="3.146550">
        <ele>1.047</ele>
        <time>2021-07-08T09:40:46Z</time>
      </trkpt>
      <trkpt lat="42.267590" lon="3.146390">
        <ele>1.038</ele>
        <time>2021-07-08T09:41:06Z</time>
      </trkpt>
      <trkpt lat="42.267480" lon="3.146570">
        <ele>1.038</ele>
        <time>2021-07-08T09:41:26Z</time>
      </trkpt>
      <trkpt lat="42.267590" lon="3.146880">
        <ele>1.022</ele>
        <time>2021-07-08T09:41:46Z</time>
      </trkpt>
      <trkpt lat="42.266650" lon="3.150430">
        <ele>1.038</ele>
        <time>2021-07-08T09:42:06Z</time>
      </trkpt>
      <trkpt lat="42.262750" lon="3.152640">
        <ele>1.099</ele>
        <time>2021-07-08T09:42:26Z</time>
      </trkpt>
      <trkpt lat="42.262590" lon="3.152430">
        <ele>1.007</ele>
        <time>2021-07-08T09:42:46Z</time>
      </trkpt>
      <trkpt lat="42.261580" lon="3.153150">
        <ele>1.027</ele>
        <time>2021-07-08T09:43:06Z</time>
      </trkpt>
      <trkpt lat="42.262840" lon="3.156030">
        <ele>1.208</ele>
        <time>2021-07-08T09:43:26Z</time>
      </trkpt>
      <trkpt lat="42.264670" lon="3.162210">
        <ele>1.886</ele>
        <time>2021-07-08T09:43:46Z</time>
      </trkpt>
      <trkpt lat="42.265170" lon="3.163070">
        <ele>1.615</ele>
        <time>2021-07-08T09:44:06Z</time>
      </trkpt>
      <trkpt lat="42.265190" lon="3.167270">
        <ele>1.234</ele>
        <time>2021-07-08T09:44:26Z</time>
      </trkpt>
      <trkpt lat="42.264710" lon="3.170850">
        <ele>1.024</ele>
        <time>2021-07-08T09:44:46Z</time>
      </trkpt>
      <trkpt lat="42.264980" lon="3.171180">
        <ele>2.035</ele>
        <time>2021-07-08T09:45:06Z</time>
      </trkpt>
      <trkpt lat="42.264640" lon="3.172180">
        <ele>2.015</ele>
        <time>2021-07-08T09:45:26Z</time>
      </trkpt>
      <trkpt lat="42.264780" lon="3.172300">
        <ele>2.069</ele>
        <time>2021-07-08T09:45:46Z</time>
      </trkpt>
      <trkpt lat="42.264990" lon="3.172140">
        <ele>2.035</ele>
        <time>2021-07-08T09:46:06Z</time>
      </trkpt>
      <trkpt lat="42.265990" lon="3.172630">
        <ele>3.331</ele>
        <time>2021-07-08T09:46:26Z</time>
      </trkpt>
      <trkpt lat="42.266560" lon="3.173780">
        <ele>5.661</ele>
        <time>2021-07-08T09:46:46Z</time>
      </trkpt>
      <trkpt lat="42.267150" lon="3.173900">
        <ele>7.007</ele>
        <time>2021-07-08T09:47:06Z</time>
      </trkpt>
      <trkpt lat="42.267180" lon="3.174130">
        <ele>7.008</ele>
        <time>2021-07-08T09:47:26Z</time>
      </trkpt>
      <trkpt lat="42.268050" lon="3.174730">
        <ele>9.060</ele>
        <time>2021-07-08T09:47:46Z</time>
      </trkpt>
      <trkpt lat="42.268150" lon="3.175300">
        <ele>10.059</ele>
        <time>2021-07-08T09:48:06Z</time>
      </trkpt>
      <trkpt lat="42.268590" lon="3.175030">
        <ele>9.148</ele>
        <time>2021-07-08T09:48:26Z</time>
      </trkpt>
      <trkpt lat="42.269570" lon="3.174920">
        <ele>11.078</ele>
        <time>2021-07-08T09:48:46Z</time>
      </trkpt>
      <trkpt lat="42.271010" lon="3.175290">
        <ele>12.169</ele>
        <time>2021-07-08T09:49:06Z</time>
      </trkpt>
      <trkpt lat="42.273170" lon="3.175420">
        <ele>14.259</ele>
        <time>2021-07-08T09:49:26Z</time>
      </trkpt>
      <trkpt lat="42.276490" lon="3.176830">
        <ele>20.653</ele>
        <time>2021-07-08T09:50:06Z</time>
      </trkpt>
      <trkpt lat="42.277980" lon="3.177160">
        <ele>23.279</ele>
        <time>2021-07-08T09:50:26Z</time>
      </trkpt>
      <trkpt lat="42.280930" lon="3.179330">
        <ele>31.364</ele>
        <time>2021-07-08T09:50:46Z</time>
      </trkpt>
      <trkpt lat="42.284830" lon="3.180350">
        <ele>40.206</ele>
        <time>2021-07-08T09:51:06Z</time>
      </trkpt>
      <trkpt lat="42.287870" lon="3.180670">
        <ele>53.916</ele>
        <time>2021-07-08T09:51:26Z</time>
      </trkpt>
      <trkpt lat="42.288730" lon="3.181780">
        <ele>60.608</ele>
        <time>2021-07-08T09:51:46Z</time>
      </trkpt>
      <trkpt lat="42.289390" lon="3.182220">
        <ele>65.463</ele>
        <time>2021-07-08T09:52:06Z</time>
      </trkpt>
      <trkpt lat="42.289350" lon="3.183190">
        <ele>70.572</ele>
        <time>2021-07-08T09:52:26Z</time>
      </trkpt>
      <trkpt lat="42.290680" lon="3.183450">
        <ele>81.011</ele>
        <time>2021-07-08T09:52:46Z</time>
      </trkpt>
      <trkpt lat="42.291240" lon="3.184690">
        <ele>87.221</ele>
        <time>2021-07-08T09:53:06Z</time>
      </trkpt>
      <trkpt lat="42.291970" lon="3.184620">
        <ele>93.222</ele>
        <time>2021-07-08T09:53:26Z</time>
      </trkpt>
      <trkpt lat="42.293010" lon="3.185540">
        <ele>99.492</ele>
        <time>2021-07-08T09:53:46Z</time>
      </trkpt>
      <trkpt lat="42.293640" lon="3.185630">
        <ele>106.066</ele>
        <time>2021-07-08T09:54:06Z</time>
      </trkpt>
      <trkpt lat="42.293860" lon="3.186180">
        <ele>107.322</ele>
        <time>2021-07-08T09:54:26Z</time>
      </trkpt>
      <trkpt lat="42.294460" lon="3.186500">
        <ele>113.592</ele>
        <time>2021-07-08T09:54:46Z</time>
      </trkpt>
      <trkpt lat="42.294810" lon="3.187330">
        <ele>117.973</ele>
        <time>2021-07-08T09:55:06Z</time>
      </trkpt>
      <trkpt lat="42.295890" lon="3.188460">
        <ele>126.120</ele>
        <time>2021-07-08T09:55:46Z</time>
      </trkpt>
      <trkpt lat="42.295830" lon="3.188700">
        <ele>127.508</ele>
        <time>2021-07-08T09:56:06Z</time>
      </trkpt>
      <trkpt lat="42.295150" lon="3.189290">
        <ele>130.336</ele>
        <time>2021-07-08T09:56:26Z</time>
      </trkpt>
      <trkpt lat="42.295400" lon="3.190750">
        <ele>138.315</ele>
        <time>2021-07-08T09:57:06Z</time>
      </trkpt>
      <trkpt lat="42.296570" lon="3.192410">
        <ele>155.924</ele>
        <time>2021-07-08T09:57:26Z</time>
      </trkpt>
      <trkpt lat="42.296580" lon="3.192680">
        <ele>156.354</ele>
        <time>2021-07-08T09:57:46Z</time>
      </trkpt>
      <trkpt lat="42.295290" lon="3.192610">
        <ele>160.965</ele>
        <time>2021-07-08T09:58:06Z</time>
      </trkpt>
      <trkpt lat="42.294190" lon="3.192940">
        <ele>167.565</ele>
        <time>2021-07-08T09:58:26Z</time>
      </trkpt>
      <trkpt lat="42.293920" lon="3.193260">
        <ele>169.529</ele>
        <time>2021-07-08T09:58:46Z</time>
      </trkpt>
      <trkpt lat="42.293840" lon="3.193910">
        <ele>173.595</ele>
        <time>2021-07-08T09:59:06Z</time>
      </trkpt>
      <trkpt lat="42.294000" lon="3.194460">
        <ele>178.194</ele>
        <time>2021-07-08T09:59:26Z</time>
      </trkpt>
      <trkpt lat="42.294800" lon="3.195550">
        <ele>185.757</ele>
        <time>2021-07-08T09:59:46Z</time>
      </trkpt>
      <trkpt lat="42.295940" lon="3.196330">
        <ele>195.422</ele>
        <time>2021-07-08T10:00:06Z</time>
      </trkpt>
      <trkpt lat="42.296410" lon="3.197380">
        <ele>203.508</ele>
        <time>2021-07-08T10:00:46Z</time>
      </trkpt>
      <trkpt lat="42.296210" lon="3.197920">
        <ele>205.526</ele>
        <time>2021-07-08T10:01:06Z</time>
      </trkpt>
      <trkpt lat="42.295620" lon="3.198660">
        <ele>209.495</ele>
        <time>2021-07-08T10:01:26Z</time>
      </trkpt>
      <trkpt lat="42.294860" lon="3.199190">
        <ele>211.254</ele>
        <time>2021-07-08T10:01:46Z</time>
      </trkpt>
      <trkpt lat="42.294830" lon="3.199480">
        <ele>211.754</ele>
        <time>2021-07-08T10:02:06Z</time>
      </trkpt>
      <trkpt lat="42.296340" lon="3.200180">
        <ele>225.745</ele>
        <time>2021-07-08T10:02:26Z</time>
      </trkpt>
      <trkpt lat="42.297050" lon="3.201190">
        <ele>233.635</ele>
        <time>2021-07-08T10:02:46Z</time>
      </trkpt>
      <trkpt lat="42.297080" lon="3.201470">
        <ele>235.259</ele>
        <time>2021-07-08T10:03:06Z</time>
      </trkpt>
      <trkpt lat="42.296100" lon="3.202430">
        <ele>241.215</ele>
        <time>2021-07-08T10:03:26Z</time>
      </trkpt>
      <trkpt lat="42.295810" lon="3.203650">
        <ele>248.242</ele>
        <time>2021-07-08T10:03:46Z</time>
      </trkpt>
      <trkpt lat="42.296020" lon="3.204700">
        <ele>254.822</ele>
        <time>2021-07-08T10:04:06Z</time>
      </trkpt>
      <trkpt lat="42.295940" lon="3.205330">
        <ele>259.914</ele>
        <time>2021-07-08T10:04:26Z</time>
      </trkpt>
      <trkpt lat="42.295090" lon="3.205390">
        <ele>260.408</ele>
        <time>2021-07-08T10:04:46Z</time>
      </trkpt>
      <trkpt lat="42.294120" lon="3.206920">
        <ele>267.431</ele>
        <time>2021-07-08T10:05:06Z</time>
      </trkpt>
      <trkpt lat="42.293500" lon="3.207510">
        <ele>270.160</ele>
        <time>2021-07-08T10:05:26Z</time>
      </trkpt>
      <trkpt lat="42.292800" lon="3.207520">
        <ele>270.739</ele>
        <time>2021-07-08T10:05:46Z</time>
      </trkpt>
      <trkpt lat="42.291230" lon="3.208180">
        <ele>278.149</ele>
        <time>2021-07-08T10:06:26Z</time>
      </trkpt>
      <trkpt lat="42.290120" lon="3.207730">
        <ele>276.680</ele>
        <time>2021-07-08T10:06:46Z</time>
      </trkpt>
      <trkpt lat="42.289610" lon="3.208740">
        <ele>278.230</ele>
        <time>2021-07-08T10:07:26Z</time>
      </trkpt>
      <trkpt lat="42.289310" lon="3.209810">
        <ele>280.424</ele>
        <time>2021-07-08T10:07:46Z</time>
      </trkpt>
      <trkpt lat="42.288340" lon="3.210890">
        <ele>280.740</ele>
        <time>2021-07-08T10:08:06Z</time>
      </trkpt>
      <trkpt lat="42.288640" lon="3.212020">
        <ele>283.532</ele>
        <time>2021-07-08T10:08:26Z</time>
      </trkpt>
      <trkpt lat="42.288630" lon="3.212690">
        <ele>280.692</ele>
        <time>2021-07-08T10:08:46Z</time>
      </trkpt>
      <trkpt lat="42.288960" lon="3.214380">
        <ele>285.611</ele>
        <time>2021-07-08T10:09:06Z</time>
      </trkpt>
      <trkpt lat="42.288830" lon="3.215310">
        <ele>284.108</ele>
        <time>2021-07-08T10:09:26Z</time>
      </trkpt>
      <trkpt lat="42.288410" lon="3.216150">
        <ele>285.430</ele>
        <time>2021-07-08T10:09:46Z</time>
      </trkpt>
      <trkpt lat="42.288440" lon="3.216430">
        <ele>283.249</ele>
        <time>2021-07-08T10:10:06Z</time>
      </trkpt>
      <trkpt lat="42.288990" lon="3.216800">
        <ele>284.298</ele>
        <time>2021-07-08T10:10:26Z</time>
      </trkpt>
      <trkpt lat="42.290320" lon="3.216920">
        <ele>279.998</ele>
        <time>2021-07-08T10:10:46Z</time>
      </trkpt>
      <trkpt lat="42.291370" lon="3.217880">
        <ele>280.139</ele>
        <time>2021-07-08T10:11:06Z</time>
      </trkpt>
      <trkpt lat="42.291630" lon="3.219290">
        <ele>280.369</ele>
        <time>2021-07-08T10:11:26Z</time>
      </trkpt>
      <trkpt lat="42.291340" lon="3.219740">
        <ele>278.173</ele>
        <time>2021-07-08T10:11:46Z</time>
      </trkpt>
      <trkpt lat="42.290890" lon="3.219540">
        <ele>278.399</ele>
        <time>2021-07-08T10:12:06Z</time>
      </trkpt>
      <trkpt lat="42.290400" lon="3.219680">
        <ele>277.844</ele>
        <time>2021-07-08T10:12:26Z</time>
      </trkpt>
      <trkpt lat="42.290170" lon="3.220520">
        <ele>276.205</ele>
        <time>2021-07-08T10:12:46Z</time>
      </trkpt>
      <trkpt lat="42.288800" lon="3.221420">
        <ele>273.715</ele>
        <time>2021-07-08T10:13:26Z</time>
      </trkpt>
      <trkpt lat="42.287250" lon="3.221820">
        <ele>275.408</ele>
        <time>2021-07-08T10:13:46Z</time>
      </trkpt>
      <trkpt lat="42.287060" lon="3.222020">
        <ele>274.361</ele>
        <time>2021-07-08T10:14:06Z</time>
      </trkpt>
      <trkpt lat="42.287250" lon="3.222340">
        <ele>275.960</ele>
        <time>2021-07-08T10:14:26Z</time>
      </trkpt>
      <trkpt lat="42.288820" lon="3.222540">
        <ele>268.969</ele>
        <time>2021-07-08T10:14:46Z</time>
      </trkpt>
      <trkpt lat="42.291760" lon="3.223760">
        <ele>265.359</ele>
        <time>2021-07-08T10:15:46Z</time>
      </trkpt>
      <trkpt lat="42.292290" lon="3.224330">
        <ele>264.760</ele>
        <time>2021-07-08T10:16:06Z</time>
      </trkpt>
      <trkpt lat="42.292530" lon="3.225290">
        <ele>264.970</ele>
        <time>2021-07-08T10:16:26Z</time>
      </trkpt>
      <trkpt lat="42.293360" lon="3.225260">
        <ele>262.174</ele>
        <time>2021-07-08T10:16:46Z</time>
      </trkpt>
      <trkpt lat="42.293560" lon="3.225460">
        <ele>262.180</ele>
        <time>2021-07-08T10:17:06Z</time>
      </trkpt>
      <trkpt lat="42.293950" lon="3.226880">
        <ele>260.522</ele>
        <time>2021-07-08T10:17:26Z</time>
      </trkpt>
      <trkpt lat="42.293780" lon="3.228900">
        <ele>259.362</ele>
        <time>2021-07-08T10:17:46Z</time>
      </trkpt>
      <trkpt lat="42.292490" lon="3.230350">
        <ele>248.708</ele>
        <time>2021-07-08T10:18:06Z</time>
      </trkpt>
      <trkpt lat="42.291600" lon="3.230540">
        <ele>243.408</ele>
        <time>2021-07-08T10:18:46Z</time>
      </trkpt>
      <trkpt lat="42.291600" lon="3.230890">
        <ele>244.029</ele>
        <time>2021-07-08T10:19:06Z</time>
      </trkpt>
      <trkpt lat="42.291950" lon="3.231270">
        <ele>243.788</ele>
        <time>2021-07-08T10:19:26Z</time>
      </trkpt>
      <trkpt lat="42.292020" lon="3.231640">
        <ele>244.847</ele>
        <time>2021-07-08T10:19:46Z</time>
      </trkpt>
      <trkpt lat="42.291330" lon="3.232480">
        <ele>242.747</ele>
        <time>2021-07-08T10:20:26Z</time>
      </trkpt>
      <trkpt lat="42.291360" lon="3.233130">
        <ele>243.148</ele>
        <time>2021-07-08T10:20:46Z</time>
      </trkpt>
      <trkpt lat="42.291610" lon="3.233320">
        <ele>244.228</ele>
        <time>2021-07-08T10:21:06Z</time>
      </trkpt>
      <trkpt lat="42.292640" lon="3.233090">
        <ele>242.312</ele>
        <time>2021-07-08T10:21:26Z</time>
      </trkpt>
      <trkpt lat="42.293270" lon="3.233200">
        <ele>242.698</ele>
        <time>2021-07-08T10:21:46Z</time>
      </trkpt>
      <trkpt lat="42.293770" lon="3.234160">
        <ele>244.567</ele>
        <time>2021-07-08T10:22:06Z</time>
      </trkpt>
      <trkpt lat="42.294570" lon="3.234680">
        <ele>244.481</ele>
        <time>2021-07-08T10:22:26Z</time>
      </trkpt>
      <trkpt lat="42.295450" lon="3.234600">
        <ele>243.019</ele>
        <time>2021-07-08T10:22:46Z</time>
      </trkpt>
      <trkpt lat="42.296720" lon="3.235050">
        <ele>243.608</ele>
        <time>2021-07-08T10:23:06Z</time>
      </trkpt>
      <trkpt lat="42.296920" lon="3.235360">
        <ele>244.543</ele>
        <time>2021-07-08T10:23:26Z</time>
      </trkpt>
      <trkpt lat="42.296430" lon="3.237090">
        <ele>246.412</ele>
        <time>2021-07-08T10:23:46Z</time>
      </trkpt>
      <trkpt lat="42.295630" lon="3.237280">
        <ele>237.731</ele>
        <time>2021-07-08T10:24:26Z</time>
      </trkpt>
      <trkpt lat="42.296000" lon="3.238690">
        <ele>230.851</ele>
        <time>2021-07-08T10:24:46Z</time>
      </trkpt>
      <trkpt lat="42.295670" lon="3.240070">
        <ele>224.672</ele>
        <time>2021-07-08T10:25:06Z</time>
      </trkpt>
      <trkpt lat="42.295650" lon="3.240800">
        <ele>220.962</ele>
        <time>2021-07-08T10:25:26Z</time>
      </trkpt>
      <trkpt lat="42.294820" lon="3.242260">
        <ele>213.886</ele>
        <time>2021-07-08T10:25:46Z</time>
      </trkpt>
      <trkpt lat="42.294660" lon="3.243460">
        <ele>205.362</ele>
        <time>2021-07-08T10:26:06Z</time>
      </trkpt>
      <trkpt lat="42.294110" lon="3.244340">
        <ele>202.417</ele>
        <time>2021-07-08T10:26:26Z</time>
      </trkpt>
      <trkpt lat="42.293830" lon="3.244480">
        <ele>204.787</ele>
        <time>2021-07-08T10:26:46Z</time>
      </trkpt>
      <trkpt lat="42.293630" lon="3.245500">
        <ele>200.415</ele>
        <time>2021-07-08T10:27:06Z</time>
      </trkpt>
      <trkpt lat="42.293280" lon="3.245850">
        <ele>199.008</ele>
        <time>2021-07-08T10:27:26Z</time>
      </trkpt>
      <trkpt lat="42.293510" lon="3.246410">
        <ele>196.168</ele>
        <time>2021-07-08T10:27:46Z</time>
      </trkpt>
      <trkpt lat="42.292710" lon="3.248200">
        <ele>187.367</ele>
        <time>2021-07-08T10:28:26Z</time>
      </trkpt>
      <trkpt lat="42.292000" lon="3.248980">
        <ele>174.916</ele>
        <time>2021-07-08T10:28:46Z</time>
      </trkpt>
      <trkpt lat="42.291930" lon="3.249700">
        <ele>164.756</ele>
        <time>2021-07-08T10:29:06Z</time>
      </trkpt>
      <trkpt lat="42.292200" lon="3.251080">
        <ele>154.817</ele>
        <time>2021-07-08T10:29:26Z</time>
      </trkpt>
      <trkpt lat="42.291710" lon="3.252300">
        <ele>145.247</ele>
        <time>2021-07-08T10:29:46Z</time>
      </trkpt>
      <trkpt lat="42.291560" lon="3.253280">
        <ele>133.791</ele>
        <time>2021-07-08T10:30:06Z</time>
      </trkpt>
      <trkpt lat="42.291060" lon="3.254180">
        <ele>123.467</ele>
        <time>2021-07-08T10:30:26Z</time>
      </trkpt>
      <trkpt lat="42.290420" lon="3.254560">
        <ele>120.374</ele>
        <time>2021-07-08T10:30:46Z</time>
      </trkpt>
      <trkpt lat="42.290090" lon="3.255300">
        <ele>111.656</ele>
        <time>2021-07-08T10:31:06Z</time>
      </trkpt>
      <trkpt lat="42.290230" lon="3.256410">
        <ele>109.621</ele>
        <time>2021-07-08T10:31:26Z</time>
      </trkpt>
      <trkpt lat="42.291520" lon="3.258940">
        <ele>97.908</ele>
        <time>2021-07-08T10:31:46Z</time>
      </trkpt>
      <trkpt lat="42.291380" lon="3.259800">
        <ele>89.934</ele>
        <time>2021-07-08T10:32:06Z</time>
      </trkpt>
      <trkpt lat="42.290630" lon="3.260570">
        <ele>81.223</ele>
        <time>2021-07-08T10:32:46Z</time>
      </trkpt>
      <trkpt lat="42.290580" lon="3.261290">
        <ele>79.182</ele>
        <time>2021-07-08T10:33:06Z</time>
      </trkpt>
      <trkpt lat="42.290850" lon="3.262010">
        <ele>79.952</ele>
        <time>2021-07-08T10:33:26Z</time>
      </trkpt>
      <trkpt lat="42.291040" lon="3.263250">
        <ele>78.513</ele>
        <time>2021-07-08T10:33:46Z</time>
      </trkpt>
      <trkpt lat="42.290740" lon="3.264440">
        <ele>67.493</ele>
        <time>2021-07-08T10:34:06Z</time>
      </trkpt>
      <trkpt lat="42.290730" lon="3.265230">
        <ele>64.097</ele>
        <time>2021-07-08T10:34:26Z</time>
      </trkpt>
      <trkpt lat="42.289860" lon="3.266810">
        <ele>47.553</ele>
        <time>2021-07-08T10:34:46Z</time>
      </trkpt>
      <trkpt lat="42.289020" lon="3.267550">
        <ele>38.375</ele>
        <time>2021-07-08T10:35:06Z</time>
      </trkpt>
      <trkpt lat="42.288070" lon="3.269010">
        <ele>16.328</ele>
        <time>2021-07-08T10:35:26Z</time>
      </trkpt>
      <trkpt lat="42.288110" lon="3.270090">
        <ele>13.420</ele>
        <time>2021-07-08T10:35:46Z</time>
      </trkpt>
      <trkpt lat="42.288320" lon="3.270240">
        <ele>11.108</ele>
        <time>2021-07-08T10:36:06Z</time>
      </trkpt>
      <trkpt lat="42.288460" lon="3.271370">
        <ele>9.534</ele>
        <time>2021-07-08T10:36:26Z</time>
      </trkpt>
      <trkpt lat="42.289380" lon="3.272920">
        <ele>6.753</ele>
        <time>2021-07-08T10:36:46Z</time>
      </trkpt>
      <trkpt lat="42.289220" lon="3.274960">
        <ele>4.032</ele>
        <time>2021-07-08T10:37:06Z</time>
      </trkpt>
      <trkpt lat="42.289650" lon="3.274260">
        <ele>5.012</ele>
        <time>2021-07-08T10:37:26Z</time>
      </trkpt>
      <trkpt lat="42.289900" lon="3.274180">
        <ele>6.283</ele>
        <time>2021-07-08T10:37:46Z</time>
      </trkpt>
      <trkpt lat="42.290080" lon="3.275160">
        <ele>5.013</ele>
        <time>2021-07-08T10:38:06Z</time>
      </trkpt>
      <trkpt lat="42.289740" lon="3.277060">
        <ele>3.337</ele>
        <time>2021-07-08T10:38:26Z</time>
      </trkpt>
      <trkpt lat="42.289310" lon="3.277660">
        <ele>1.773</ele>
        <time>2021-07-08T10:38:46Z</time>
      </trkpt>
      <trkpt lat="42.288740" lon="3.277960">
        <ele>1.796</ele>
        <time>2021-07-08T10:39:06Z</time>
      </trkpt>
      <trkpt lat="42.289030" lon="3.279290">
        <ele>2.131</ele>
        <time>2021-07-08T10:39:26Z</time>
      </trkpt>
      <trkpt lat="42.288710" lon="3.280300">
        <ele>2.224</ele>
        <time>2021-07-08T10:39:46Z</time>
      </trkpt>
      <trkpt lat="42.288740" lon="3.280930">
        <ele>2.808</ele>
        <time>2021-07-08T10:40:06Z</time>
      </trkpt>
      <trkpt lat="42.289330" lon="3.281740">
        <ele>11.276</ele>
        <time>2021-07-08T10:40:26Z</time>
      </trkpt>
      <trkpt lat="42.290440" lon="3.282340">
        <ele>29.995</ele>
        <time>2021-07-08T10:40:46Z</time>
      </trkpt>
      <trkpt lat="42.291030" lon="3.283110">
        <ele>37.654</ele>
        <time>2021-07-08T10:41:06Z</time>
      </trkpt>
      <trkpt lat="42.291730" lon="3.283210">
        <ele>40.044</ele>
        <time>2021-07-08T10:41:26Z</time>
      </trkpt>
      <trkpt lat="42.291730" lon="3.283210">
        <ele>40.011</ele>
        <time>2021-07-08T07:35:40Z</time>
      </trkpt>
      <trkpt lat="42.291670" lon="3.282110">
        <ele>42.021</ele>
        <time>2021-07-08T07:36:00Z</time>
      </trkpt>
      <trkpt lat="42.291430" lon="3.281450">
        <ele>40.303</ele>
        <time>2021-07-08T07:36:20Z</time>
      </trkpt>
      <trkpt lat="42.291740" lon="3.281220">
        <ele>38.508</ele>
        <time>2021-07-08T07:36:40Z</time>
      </trkpt>
      <trkpt lat="42.291490" lon="3.280770">
        <ele>34.838</ele>
        <time>2021-07-08T07:37:00Z</time>
      </trkpt>
      <trkpt lat="42.291000" lon="3.280490">
        <ele>29.067</ele>
        <time>2021-07-08T07:37:20Z</time>
      </trkpt>
      <trkpt lat="42.291000" lon="3.280130">
        <ele>26.956</ele>
        <time>2021-07-08T07:37:40Z</time>
      </trkpt>
      <trkpt lat="42.291270" lon="3.279470">
        <ele>21.466</ele>
        <time>2021-07-08T07:38:00Z</time>
      </trkpt>
      <trkpt lat="42.291180" lon="3.279070">
        <ele>17.148</ele>
        <time>2021-07-08T07:38:20Z</time>
      </trkpt>
      <trkpt lat="42.290900" lon="3.278760">
        <ele>11.861</ele>
        <time>2021-07-08T07:38:40Z</time>
      </trkpt>
      <trkpt lat="42.290840" lon="3.278430">
        <ele>10.430</ele>
        <time>2021-07-08T07:39:00Z</time>
      </trkpt>
      <trkpt lat="42.289660" lon="3.278060">
        <ele>2.081</ele>
        <time>2021-07-08T07:39:20Z</time>
      </trkpt>
      <trkpt lat="42.289310" lon="3.277660">
        <ele>1.758</ele>
        <time>2021-07-08T07:39:40Z</time>
      </trkpt>
      <trkpt lat="42.289800" lon="3.276920">
        <ele>4.452</ele>
        <time>2021-07-08T07:40:00Z</time>
      </trkpt>
      <trkpt lat="42.290080" lon="3.275160">
        <ele>5.017</ele>
        <time>2021-07-08T07:40:20Z</time>
      </trkpt>
      <trkpt lat="42.289970" lon="3.274240">
        <ele>6.508</ele>
        <time>2021-07-08T07:40:40Z</time>
      </trkpt>
      <trkpt lat="42.290330" lon="3.273890">
        <ele>10.652</ele>
        <time>2021-07-08T07:41:00Z</time>
      </trkpt>
      <trkpt lat="42.290880" lon="3.272590">
        <ele>18.531</ele>
        <time>2021-07-08T07:41:20Z</time>
      </trkpt>
      <trkpt lat="42.290730" lon="3.272330">
        <ele>20.530</ele>
        <time>2021-07-08T07:41:40Z</time>
      </trkpt>
      <trkpt lat="42.290180" lon="3.272290">
        <ele>20.890</ele>
        <time>2021-07-08T07:42:00Z</time>
      </trkpt>
      <trkpt lat="42.289280" lon="3.271530">
        <ele>26.222</ele>
        <time>2021-07-08T07:42:20Z</time>
      </trkpt>
      <trkpt lat="42.288940" lon="3.270140">
        <ele>37.775</ele>
        <time>2021-07-08T07:42:40Z</time>
      </trkpt>
      <trkpt lat="42.289100" lon="3.269840">
        <ele>39.184</ele>
        <time>2021-07-08T07:43:00Z</time>
      </trkpt>
      <trkpt lat="42.289290" lon="3.269810">
        <ele>41.225</ele>
        <time>2021-07-08T07:43:20Z</time>
      </trkpt>
      <trkpt lat="42.290370" lon="3.269910">
        <ele>48.912</ele>
        <time>2021-07-08T07:43:40Z</time>
      </trkpt>
      <trkpt lat="42.291180" lon="3.270280">
        <ele>54.832</ele>
        <time>2021-07-08T07:44:00Z</time>
      </trkpt>
      <trkpt lat="42.292060" lon="3.270160">
        <ele>61.205</ele>
        <time>2021-07-08T07:44:20Z</time>
      </trkpt>
      <trkpt lat="42.292860" lon="3.269660">
        <ele>68.908</ele>
        <time>2021-07-08T07:44:40Z</time>
      </trkpt>
      <trkpt lat="42.292670" lon="3.268750">
        <ele>71.848</ele>
        <time>2021-07-08T07:45:00Z</time>
      </trkpt>
      <trkpt lat="42.292650" lon="3.267000">
        <ele>83.257</ele>
        <time>2021-07-08T07:45:20Z</time>
      </trkpt>
      <trkpt lat="42.292380" lon="3.266150">
        <ele>86.716</ele>
        <time>2021-07-08T07:45:40Z</time>
      </trkpt>
      <trkpt lat="42.292500" lon="3.265600">
        <ele>88.536</ele>
        <time>2021-07-08T07:46:00Z</time>
      </trkpt>
      <trkpt lat="42.293050" lon="3.264560">
        <ele>96.228</ele>
        <time>2021-07-08T07:46:20Z</time>
      </trkpt>
      <trkpt lat="42.292820" lon="3.263770">
        <ele>97.411</ele>
        <time>2021-07-08T07:46:40Z</time>
      </trkpt>
      <trkpt lat="42.292870" lon="3.263080">
        <ele>100.040</ele>
        <time>2021-07-08T07:47:00Z</time>
      </trkpt>
      <trkpt lat="42.293210" lon="3.262660">
        <ele>101.381</ele>
        <time>2021-07-08T07:47:20Z</time>
      </trkpt>
      <trkpt lat="42.294180" lon="3.262050">
        <ele>109.026</ele>
        <time>2021-07-08T07:47:40Z</time>
      </trkpt>
      <trkpt lat="42.294140" lon="3.261810">
        <ele>110.147</ele>
        <time>2021-07-08T07:48:00Z</time>
      </trkpt>
      <trkpt lat="42.293340" lon="3.261020">
        <ele>113.211</ele>
        <time>2021-07-08T07:48:20Z</time>
      </trkpt>
      <trkpt lat="42.293310" lon="3.260650">
        <ele>113.508</ele>
        <time>2021-07-08T07:48:40Z</time>
      </trkpt>
      <trkpt lat="42.293610" lon="3.259900">
        <ele>115.459</ele>
        <time>2021-07-08T07:49:00Z</time>
      </trkpt>
      <trkpt lat="42.293980" lon="3.259580">
        <ele>116.298</ele>
        <time>2021-07-08T07:49:20Z</time>
      </trkpt>
      <trkpt lat="42.294860" lon="3.259700">
        <ele>121.177</ele>
        <time>2021-07-08T07:49:40Z</time>
      </trkpt>
      <trkpt lat="42.295070" lon="3.259610">
        <ele>123.017</ele>
        <time>2021-07-08T07:50:00Z</time>
      </trkpt>
      <trkpt lat="42.294850" lon="3.258140">
        <ele>125.959</ele>
        <time>2021-07-08T07:50:20Z</time>
      </trkpt>
      <trkpt lat="42.295430" lon="3.257230">
        <ele>131.242</ele>
        <time>2021-07-08T07:50:40Z</time>
      </trkpt>
      <trkpt lat="42.296060" lon="3.256580">
        <ele>137.621</ele>
        <time>2021-07-08T07:51:00Z</time>
      </trkpt>
      <trkpt lat="42.295970" lon="3.256270">
        <ele>139.032</ele>
        <time>2021-07-08T07:51:20Z</time>
      </trkpt>
      <trkpt lat="42.295560" lon="3.255800">
        <ele>141.434</ele>
        <time>2021-07-08T07:51:40Z</time>
      </trkpt>
      <trkpt lat="42.294500" lon="3.255950">
        <ele>145.555</ele>
        <time>2021-07-08T07:52:00Z</time>
      </trkpt>
      <trkpt lat="42.294100" lon="3.255880">
        <ele>148.710</ele>
        <time>2021-07-08T07:52:20Z</time>
      </trkpt>
      <trkpt lat="42.293920" lon="3.254950">
        <ele>155.808</ele>
        <time>2021-07-08T07:52:40Z</time>
      </trkpt>
      <trkpt lat="42.293290" lon="3.254880">
        <ele>157.470</ele>
        <time>2021-07-08T07:53:00Z</time>
      </trkpt>
      <trkpt lat="42.293100" lon="3.254680">
        <ele>159.779</ele>
        <time>2021-07-08T07:53:20Z</time>
      </trkpt>
      <trkpt lat="42.292970" lon="3.253190">
        <ele>165.398</ele>
        <time>2021-07-08T07:53:40Z</time>
      </trkpt>
      <trkpt lat="42.293480" lon="3.251500">
        <ele>172.828</ele>
        <time>2021-07-08T07:54:00Z</time>
      </trkpt>
      <trkpt lat="42.293380" lon="3.250230">
        <ele>176.420</ele>
        <time>2021-07-08T07:54:20Z</time>
      </trkpt>
      <trkpt lat="42.294130" lon="3.249060">
        <ele>183.313</ele>
        <time>2021-07-08T07:54:40Z</time>
      </trkpt>
      <trkpt lat="42.294570" lon="3.248840">
        <ele>187.992</ele>
        <time>2021-07-08T07:55:00Z</time>
      </trkpt>
      <trkpt lat="42.294570" lon="3.248150">
        <ele>188.733</ele>
        <time>2021-07-08T07:55:20Z</time>
      </trkpt>
      <trkpt lat="42.295140" lon="3.247580">
        <ele>194.327</ele>
        <time>2021-07-08T07:55:40Z</time>
      </trkpt>
      <trkpt lat="42.295210" lon="3.246420">
        <ele>201.268</ele>
        <time>2021-07-08T07:56:00Z</time>
      </trkpt>
      <trkpt lat="42.294850" lon="3.245370">
        <ele>203.514</ele>
        <time>2021-07-08T07:56:20Z</time>
      </trkpt>
      <trkpt lat="42.295410" lon="3.244250">
        <ele>211.508</ele>
        <time>2021-07-08T07:56:40Z</time>
      </trkpt>
      <trkpt lat="42.295740" lon="3.244060">
        <ele>213.619</ele>
        <time>2021-07-08T07:57:00Z</time>
      </trkpt>
      <trkpt lat="42.296180" lon="3.244130">
        <ele>218.778</ele>
        <time>2021-07-08T07:57:20Z</time>
      </trkpt>
      <trkpt lat="42.296320" lon="3.243980">
        <ele>219.837</ele>
        <time>2021-07-08T07:57:40Z</time>
      </trkpt>
      <trkpt lat="42.295710" lon="3.242870">
        <ele>220.717</ele>
        <time>2021-07-08T07:58:00Z</time>
      </trkpt>
      <trkpt lat="42.296410" lon="3.240730">
        <ele>233.439</ele>
        <time>2021-07-08T07:58:20Z</time>
      </trkpt>
      <trkpt lat="42.296620" lon="3.239450">
        <ele>238.512</ele>
        <time>2021-07-08T07:58:40Z</time>
      </trkpt>
      <trkpt lat="42.296640" lon="3.238820">
        <ele>241.471</ele>
        <time>2021-07-08T07:59:00Z</time>
      </trkpt>
      <trkpt lat="42.296270" lon="3.237630">
        <ele>242.232</ele>
        <time>2021-07-08T07:59:20Z</time>
      </trkpt>
      <trkpt lat="42.296660" lon="3.236460">
        <ele>245.145</ele>
        <time>2021-07-08T07:59:40Z</time>
      </trkpt>
      <trkpt lat="42.296820" lon="3.236430">
        <ele>241.947</ele>
        <time>2021-07-08T08:00:00Z</time>
      </trkpt>
      <trkpt lat="42.296940" lon="3.236620">
        <ele>240.711</ele>
        <time>2021-07-08T08:00:20Z</time>
      </trkpt>
      <trkpt lat="42.296640" lon="3.236880">
        <ele>245.808</ele>
        <time>2021-07-08T08:00:40Z</time>
      </trkpt>
      <trkpt lat="42.296520" lon="3.237270">
        <ele>248.861</ele>
        <time>2021-07-08T08:01:00Z</time>
      </trkpt>
      <trkpt lat="42.296970" lon="3.237340">
        <ele>254.250</ele>
        <time>2021-07-08T08:01:20Z</time>
      </trkpt>
      <trkpt lat="42.297280" lon="3.238030">
        <ele>259.259</ele>
        <time>2021-07-08T08:01:40Z</time>
      </trkpt>
      <trkpt lat="42.297790" lon="3.238700">
        <ele>265.089</ele>
        <time>2021-07-08T08:02:00Z</time>
      </trkpt>
      <trkpt lat="42.298910" lon="3.241030">
        <ele>280.741</ele>
        <time>2021-07-08T08:02:20Z</time>
      </trkpt>
      <trkpt lat="42.299070" lon="3.240870">
        <ele>283.014</ele>
        <time>2021-07-08T08:02:40Z</time>
      </trkpt>
      <trkpt lat="42.299270" lon="3.240000">
        <ele>286.893</ele>
        <time>2021-07-08T08:03:00Z</time>
      </trkpt>
      <trkpt lat="42.299120" lon="3.238710">
        <ele>291.614</ele>
        <time>2021-07-08T08:03:20Z</time>
      </trkpt>
      <trkpt lat="42.299350" lon="3.238070">
        <ele>294.747</ele>
        <time>2021-07-08T08:03:40Z</time>
      </trkpt>
      <trkpt lat="42.299930" lon="3.237720">
        <ele>296.229</ele>
        <time>2021-07-08T08:04:00Z</time>
      </trkpt>
      <trkpt lat="42.300680" lon="3.237700">
        <ele>294.621</ele>
        <time>2021-07-08T08:04:20Z</time>
      </trkpt>
      <trkpt lat="42.302380" lon="3.236310">
        <ele>280.708</ele>
        <time>2021-07-08T08:04:40Z</time>
      </trkpt>
      <trkpt lat="42.302840" lon="3.236170">
        <ele>281.481</ele>
        <time>2021-07-08T08:05:00Z</time>
      </trkpt>
      <trkpt lat="42.303110" lon="3.236260">
        <ele>280.160</ele>
        <time>2021-07-08T08:05:20Z</time>
      </trkpt>
      <trkpt lat="42.303200" lon="3.237660">
        <ele>279.519</ele>
        <time>2021-07-08T08:05:40Z</time>
      </trkpt>
      <trkpt lat="42.304000" lon="3.236580">
        <ele>273.269</ele>
        <time>2021-07-08T08:06:00Z</time>
      </trkpt>
      <trkpt lat="42.304280" lon="3.236530">
        <ele>272.021</ele>
        <time>2021-07-08T08:06:20Z</time>
      </trkpt>
      <trkpt lat="42.304280" lon="3.237640">
        <ele>272.054</ele>
        <time>2021-07-08T08:06:40Z</time>
      </trkpt>
      <trkpt lat="42.304440" lon="3.237910">
        <ele>271.013</ele>
        <time>2021-07-08T08:07:00Z</time>
      </trkpt>
      <trkpt lat="42.305310" lon="3.236330">
        <ele>280.294</ele>
        <time>2021-07-08T08:07:20Z</time>
      </trkpt>
      <trkpt lat="42.306050" lon="3.235620">
        <ele>285.453</ele>
        <time>2021-07-08T08:07:40Z</time>
      </trkpt>
      <trkpt lat="42.305510" lon="3.237270">
        <ele>287.404</ele>
        <time>2021-07-08T08:08:00Z</time>
      </trkpt>
      <trkpt lat="42.306200" lon="3.237970">
        <ele>288.214</ele>
        <time>2021-07-08T08:08:20Z</time>
      </trkpt>
      <trkpt lat="42.306510" lon="3.237490">
        <ele>286.208</ele>
        <time>2021-07-08T08:08:40Z</time>
      </trkpt>
      <trkpt lat="42.307020" lon="3.237170">
        <ele>286.632</ele>
        <time>2021-07-08T08:09:00Z</time>
      </trkpt>
      <trkpt lat="42.308160" lon="3.235920">
        <ele>289.161</ele>
        <time>2021-07-08T08:09:20Z</time>
      </trkpt>
      <trkpt lat="42.308850" lon="3.235570">
        <ele>290.130</ele>
        <time>2021-07-08T08:09:40Z</time>
      </trkpt>
      <trkpt lat="42.309190" lon="3.234330">
        <ele>278.460</ele>
        <time>2021-07-08T08:10:00Z</time>
      </trkpt>
      <trkpt lat="42.309190" lon="3.233370">
        <ele>271.732</ele>
        <time>2021-07-08T08:10:20Z</time>
      </trkpt>
      <trkpt lat="42.309450" lon="3.231980">
        <ele>262.145</ele>
        <time>2021-07-08T08:10:40Z</time>
      </trkpt>
      <trkpt lat="42.310010" lon="3.230220">
        <ele>255.364</ele>
        <time>2021-07-08T08:11:00Z</time>
      </trkpt>
      <trkpt lat="42.310490" lon="3.229910">
        <ele>250.615</ele>
        <time>2021-07-08T08:11:20Z</time>
      </trkpt>
      <trkpt lat="42.311490" lon="3.229910">
        <ele>237.958</ele>
        <time>2021-07-08T08:11:40Z</time>
      </trkpt>
      <trkpt lat="42.312180" lon="3.229440">
        <ele>228.652</ele>
        <time>2021-07-08T08:12:00Z</time>
      </trkpt>
      <trkpt lat="42.312180" lon="3.227870">
        <ele>217.017</ele>
        <time>2021-07-08T08:12:20Z</time>
      </trkpt>
      <trkpt lat="42.312470" lon="3.227780">
        <ele>214.208</ele>
        <time>2021-07-08T08:12:40Z</time>
      </trkpt>
      <trkpt lat="42.313310" lon="3.226870">
        <ele>210.522</ele>
        <time>2021-07-08T08:13:00Z</time>
      </trkpt>
      <trkpt lat="42.313950" lon="3.226510">
        <ele>212.361</ele>
        <time>2021-07-08T08:13:20Z</time>
      </trkpt>
      <trkpt lat="42.313990" lon="3.227370">
        <ele>203.140</ele>
        <time>2021-07-08T08:13:40Z</time>
      </trkpt>
      <trkpt lat="42.314480" lon="3.227610">
        <ele>205.740</ele>
        <time>2021-07-08T08:14:00Z</time>
      </trkpt>
      <trkpt lat="42.315310" lon="3.227170">
        <ele>208.372</ele>
        <time>2021-07-08T08:14:20Z</time>
      </trkpt>
      <trkpt lat="42.315540" lon="3.226880">
        <ele>210.415</ele>
        <time>2021-07-08T08:14:40Z</time>
      </trkpt>
      <trkpt lat="42.316490" lon="3.226940">
        <ele>212.114</ele>
        <time>2021-07-08T08:15:00Z</time>
      </trkpt>
      <trkpt lat="42.317460" lon="3.226680">
        <ele>219.845</ele>
        <time>2021-07-08T08:15:20Z</time>
      </trkpt>
      <trkpt lat="42.317430" lon="3.226180">
        <ele>221.944</ele>
        <time>2021-07-08T08:15:40Z</time>
      </trkpt>
      <trkpt lat="42.317690" lon="3.225040">
        <ele>225.605</ele>
        <time>2021-07-08T08:16:00Z</time>
      </trkpt>
      <trkpt lat="42.319380" lon="3.224530">
        <ele>229.915</ele>
        <time>2021-07-08T08:16:20Z</time>
      </trkpt>
      <trkpt lat="42.321490" lon="3.221210">
        <ele>244.408</ele>
        <time>2021-07-08T08:16:40Z</time>
      </trkpt>
      <trkpt lat="42.322420" lon="3.220120">
        <ele>242.671</ele>
        <time>2021-07-08T08:17:00Z</time>
      </trkpt>
      <trkpt lat="42.322760" lon="3.219990">
        <ele>240.930</ele>
        <time>2021-07-08T08:17:20Z</time>
      </trkpt>
      <trkpt lat="42.323510" lon="3.220410">
        <ele>236.419</ele>
        <time>2021-07-08T08:17:40Z</time>
      </trkpt>
      <trkpt lat="42.324050" lon="3.219990">
        <ele>235.159</ele>
        <time>2021-07-08T08:18:00Z</time>
      </trkpt>
      <trkpt lat="42.324950" lon="3.219960">
        <ele>231.461</ele>
        <time>2021-07-08T08:18:20Z</time>
      </trkpt>
      <trkpt lat="42.325930" lon="3.219560">
        <ele>225.834</ele>
        <time>2021-07-08T08:18:40Z</time>
      </trkpt>
      <trkpt lat="42.326900" lon="3.219390">
        <ele>216.983</ele>
        <time>2021-07-08T08:19:00Z</time>
      </trkpt>
      <trkpt lat="42.327060" lon="3.219210">
        <ele>214.414</ele>
        <time>2021-07-08T08:19:20Z</time>
      </trkpt>
      <trkpt lat="42.327150" lon="3.218420">
        <ele>211.389</ele>
        <time>2021-07-08T08:19:40Z</time>
      </trkpt>
      <trkpt lat="42.327630" lon="3.218820">
        <ele>206.206</ele>
        <time>2021-07-08T08:20:00Z</time>
      </trkpt>
      <trkpt lat="42.328480" lon="3.218920">
        <ele>201.826</ele>
        <time>2021-07-08T08:20:20Z</time>
      </trkpt>
      <trkpt lat="42.328610" lon="3.217790">
        <ele>191.108</ele>
        <time>2021-07-08T08:20:40Z</time>
      </trkpt>
      <trkpt lat="42.329100" lon="3.217000">
        <ele>184.625</ele>
        <time>2021-07-08T08:21:00Z</time>
      </trkpt>
      <trkpt lat="42.329170" lon="3.216440">
        <ele>181.954</ele>
        <time>2021-07-08T08:21:20Z</time>
      </trkpt>
      <trkpt lat="42.330090" lon="3.215050">
        <ele>178.583</ele>
        <time>2021-07-08T08:21:40Z</time>
      </trkpt>
      <trkpt lat="42.330770" lon="3.214530">
        <ele>175.233</ele>
        <time>2021-07-08T08:22:00Z</time>
      </trkpt>
      <trkpt lat="42.332900" lon="3.213140">
        <ele>164.035</ele>
        <time>2021-07-08T08:22:20Z</time>
      </trkpt>
      <trkpt lat="42.333870" lon="3.212780">
        <ele>161.368</ele>
        <time>2021-07-08T08:22:40Z</time>
      </trkpt>
      <trkpt lat="42.334800" lon="3.212890">
        <ele>153.327</ele>
        <time>2021-07-08T08:23:00Z</time>
      </trkpt>
      <trkpt lat="42.335560" lon="3.212550">
        <ele>147.118</ele>
        <time>2021-07-08T08:23:20Z</time>
      </trkpt>
      <trkpt lat="42.336320" lon="3.212070">
        <ele>144.871</ele>
        <time>2021-07-08T08:23:40Z</time>
      </trkpt>
      <trkpt lat="42.336730" lon="3.211530">
        <ele>140.041</ele>
        <time>2021-07-08T08:24:00Z</time>
      </trkpt>
      <trkpt lat="42.336900" lon="3.211840">
        <ele>134.115</ele>
        <time>2021-07-08T08:24:20Z</time>
      </trkpt>
      <trkpt lat="42.336710" lon="3.212820">
        <ele>128.008</ele>
        <time>2021-07-08T08:24:40Z</time>
      </trkpt>
      <trkpt lat="42.336130" lon="3.213440">
        <ele>123.734</ele>
        <time>2021-07-08T08:25:00Z</time>
      </trkpt>
      <trkpt lat="42.337020" lon="3.212840">
        <ele>118.353</ele>
        <time>2021-07-08T08:25:20Z</time>
      </trkpt>
      <trkpt lat="42.337790" lon="3.211710">
        <ele>105.642</ele>
        <time>2021-07-08T08:25:40Z</time>
      </trkpt>
      <trkpt lat="42.337800" lon="3.210620">
        <ele>101.942</ele>
        <time>2021-07-08T08:26:00Z</time>
      </trkpt>
      <trkpt lat="42.337650" lon="3.210230">
        <ele>105.074</ele>
        <time>2021-07-08T08:26:20Z</time>
      </trkpt>
      <trkpt lat="42.337850" lon="3.209650">
        <ele>103.027</ele>
        <time>2021-07-08T08:26:40Z</time>
      </trkpt>
      <trkpt lat="42.338410" lon="3.208950">
        <ele>97.596</ele>
        <time>2021-07-08T08:27:00Z</time>
      </trkpt>
      <trkpt lat="42.338870" lon="3.207940">
        <ele>91.887</ele>
        <time>2021-07-08T08:27:20Z</time>
      </trkpt>
      <trkpt lat="42.339150" lon="3.207730">
        <ele>89.388</ele>
        <time>2021-07-08T08:27:40Z</time>
      </trkpt>
      <trkpt lat="42.338750" lon="3.207450">
        <ele>84.124</ele>
        <time>2021-07-08T08:28:00Z</time>
      </trkpt>
      <trkpt lat="42.338350" lon="3.207460">
        <ele>78.926</ele>
        <time>2021-07-08T08:28:20Z</time>
      </trkpt>
      <trkpt lat="42.337870" lon="3.207580">
        <ele>74.708</ele>
        <time>2021-07-08T08:28:40Z</time>
      </trkpt>
      <trkpt lat="42.337170" lon="3.208150">
        <ele>73.535</ele>
        <time>2021-07-08T08:29:00Z</time>
      </trkpt>
      <trkpt lat="42.336720" lon="3.206470">
        <ele>61.424</ele>
        <time>2021-07-08T08:29:20Z</time>
      </trkpt>
      <trkpt lat="42.336210" lon="3.206430">
        <ele>53.963</ele>
        <time>2021-07-08T08:29:40Z</time>
      </trkpt>
      <trkpt lat="42.336530" lon="3.205890">
        <ele>47.413</ele>
        <time>2021-07-08T08:30:00Z</time>
      </trkpt>
      <trkpt lat="42.336850" lon="3.205700">
        <ele>43.075</ele>
        <time>2021-07-08T08:30:20Z</time>
      </trkpt>
      <trkpt lat="42.337110" lon="3.205940">
        <ele>41.678</ele>
        <time>2021-07-08T08:30:40Z</time>
      </trkpt>
      <trkpt lat="42.337370" lon="3.206530">
        <ele>40.257</ele>
        <time>2021-07-08T08:31:00Z</time>
      </trkpt>
      <trkpt lat="42.337350" lon="3.205770">
        <ele>30.858</ele>
        <time>2021-07-08T08:31:20Z</time>
      </trkpt>
      <trkpt lat="42.337200" lon="3.205310">
        <ele>27.042</ele>
        <time>2021-07-08T08:31:40Z</time>
      </trkpt>
      <trkpt lat="42.336990" lon="3.205140">
        <ele>26.422</ele>
        <time>2021-07-08T08:32:00Z</time>
      </trkpt>
      <trkpt lat="42.336300" lon="3.204880">
        <ele>17.714</ele>
        <time>2021-07-08T08:32:20Z</time>
      </trkpt>
      <trkpt lat="42.335900" lon="3.205090">
        <ele>14.908</ele>
        <time>2021-07-08T08:32:40Z</time>
      </trkpt>
      <trkpt lat="42.335760" lon="3.204500">
        <ele>8.671</ele>
        <time>2021-07-08T08:33:00Z</time>
      </trkpt>
      <trkpt lat="42.335960" lon="3.203900">
        <ele>3.120</ele>
        <time>2021-07-08T08:33:20Z</time>
      </trkpt>
      <trkpt lat="42.335190" lon="3.203630">
        <ele>3.029</ele>
        <time>2021-07-08T08:33:40Z</time>
      </trkpt>
      <trkpt lat="42.335620" lon="3.202780">
        <ele>2.029</ele>
        <time>2021-07-08T08:34:00Z</time>
      </trkpt>
      <trkpt lat="42.334100" lon="3.197830">
        <ele>3.641</ele>
        <time>2021-07-08T08:34:20Z</time>
      </trkpt>
      <trkpt lat="42.334510" lon="3.196680">
        <ele>6.244</ele>
        <time>2021-07-08T08:34:40Z</time>
      </trkpt>
      <trkpt lat="42.334750" lon="3.196630">
        <ele>3.763</ele>
        <time>2021-07-08T08:35:00Z</time>
      </trkpt>
      <trkpt lat="42.335150" lon="3.195810">
        <ele>2.624</ele>
        <time>2021-07-08T08:35:20Z</time>
      </trkpt>
      <trkpt lat="42.335460" lon="3.195740">
        <ele>2.416</ele>
        <time>2021-07-08T08:35:40Z</time>
      </trkpt>
      <trkpt lat="42.335700" lon="3.195230">
        <ele>3.576</ele>
        <time>2021-07-08T08:36:00Z</time>
      </trkpt>
      <trkpt lat="42.335620" lon="3.194620">
        <ele>5.013</ele>
        <time>2021-07-08T08:36:20Z</time>
      </trkpt>
      <trkpt lat="42.335780" lon="3.194380">
        <ele>2.908</ele>
        <time>2021-07-08T08:36:40Z</time>
      </trkpt>
      <trkpt lat="42.336330" lon="3.194200">
        <ele>5.448</ele>
        <time>2021-07-08T08:37:00Z</time>
      </trkpt>
      <trkpt lat="42.336940" lon="3.193710">
        <ele>7.017</ele>
        <time>2021-07-08T08:37:20Z</time>
      </trkpt>
      <trkpt lat="42.337170" lon="3.193930">
        <ele>4.346</ele>
        <time>2021-07-08T08:37:40Z</time>
      </trkpt>
      <trkpt lat="42.337400" lon="3.193880">
        <ele>3.886</ele>
        <time>2021-07-08T08:38:00Z</time>
      </trkpt>
      <trkpt lat="42.338270" lon="3.191950">
        <ele>11.178</ele>
        <time>2021-07-08T08:38:20Z</time>
      </trkpt>
      <trkpt lat="42.338390" lon="3.190830">
        <ele>12.041</ele>
        <time>2021-07-08T08:38:40Z</time>
      </trkpt>
      <trkpt lat="42.338710" lon="3.190680">
        <ele>8.840</ele>
        <time>2021-07-08T08:39:00Z</time>
      </trkpt>
      <trkpt lat="42.339080" lon="3.190080">
        <ele>6.811</ele>
        <time>2021-07-08T08:39:20Z</time>
      </trkpt>
      <trkpt lat="42.340080" lon="3.189830">
        <ele>7.114</ele>
        <time>2021-07-08T08:39:40Z</time>
      </trkpt>
      <trkpt lat="42.340630" lon="3.189210">
        <ele>6.254</ele>
        <time>2021-07-08T08:40:00Z</time>
      </trkpt>
      <trkpt lat="42.341090" lon="3.189040">
        <ele>8.409</ele>
        <time>2021-07-08T08:40:20Z</time>
      </trkpt>
      <trkpt lat="42.341770" lon="3.188270">
        <ele>7.708</ele>
        <time>2021-07-08T08:40:40Z</time>
      </trkpt>
      <trkpt lat="42.342220" lon="3.187490">
        <ele>9.068</ele>
        <time>2021-07-08T08:41:00Z</time>
      </trkpt>
      <trkpt lat="42.342240" lon="3.186230">
        <ele>4.337</ele>
        <time>2021-07-08T08:41:20Z</time>
      </trkpt>
      <trkpt lat="42.343960" lon="3.185110">
        <ele>7.246</ele>
        <time>2021-07-08T08:41:40Z</time>
      </trkpt>
      <trkpt lat="42.344720" lon="3.185090">
        <ele>5.496</ele>
        <time>2021-07-08T08:42:00Z</time>
      </trkpt>
      <trkpt lat="42.345140" lon="3.185240">
        <ele>4.848</ele>
        <time>2021-07-08T08:42:20Z</time>
      </trkpt>
      <trkpt lat="42.345620" lon="3.185030">
        <ele>9.661</ele>
        <time>2021-07-08T08:42:40Z</time>
      </trkpt>
      <trkpt lat="42.346030" lon="3.185460">
        <ele>4.280</ele>
        <time>2021-07-08T08:43:00Z</time>
      </trkpt>
      <trkpt lat="42.346290" lon="3.185010">
        <ele>12.241</ele>
        <time>2021-07-08T08:43:20Z</time>
      </trkpt>
      <trkpt lat="42.346480" lon="3.185600">
        <ele>5.215</ele>
        <time>2021-07-08T08:43:40Z</time>
      </trkpt>
      <trkpt lat="42.346960" lon="3.185920">
        <ele>6.565</ele>
        <time>2021-07-08T08:44:00Z</time>
      </trkpt>
      <trkpt lat="42.347190" lon="3.185830">
        <ele>9.111</ele>
        <time>2021-07-08T08:44:20Z</time>
      </trkpt>
      <trkpt lat="42.347610" lon="3.186030">
        <ele>9.508</ele>
        <time>2021-07-08T08:44:40Z</time>
      </trkpt>
      <trkpt lat="42.348410" lon="3.185770">
        <ele>16.128</ele>
        <time>2021-07-08T08:45:00Z</time>
      </trkpt>
      <trkpt lat="42.347840" lon="3.185520">
        <ele>21.267</ele>
        <time>2021-07-08T08:45:20Z</time>
      </trkpt>
      <trkpt lat="42.347130" lon="3.184240">
        <ele>28.966</ele>
        <time>2021-07-08T08:45:40Z</time>
      </trkpt>
      <trkpt lat="42.346980" lon="3.182090">
        <ele>37.166</ele>
        <time>2021-07-08T08:46:00Z</time>
      </trkpt>
      <trkpt lat="42.348130" lon="3.181920">
        <ele>40.628</ele>
        <time>2021-07-08T08:46:20Z</time>
      </trkpt>
      <trkpt lat="42.348860" lon="3.180880">
        <ele>39.161</ele>
        <time>2021-07-08T08:46:40Z</time>
      </trkpt>
      <trkpt lat="42.348880" lon="3.179640">
        <ele>36.640</ele>
        <time>2021-07-08T08:47:00Z</time>
      </trkpt>
      <trkpt lat="42.349010" lon="3.179500">
        <ele>37.461</ele>
        <time>2021-07-08T08:47:20Z</time>
      </trkpt>
      <trkpt lat="42.349510" lon="3.179600">
        <ele>37.363</ele>
        <time>2021-07-08T08:47:40Z</time>
      </trkpt>
      <trkpt lat="42.350070" lon="3.178560">
        <ele>37.144</ele>
        <time>2021-07-08T08:48:00Z</time>
      </trkpt>
      <trkpt lat="42.350210" lon="3.176360">
        <ele>38.418</ele>
        <time>2021-07-08T08:48:20Z</time>
      </trkpt>
      <trkpt lat="42.350440" lon="3.176310">
        <ele>39.508</ele>
        <time>2021-07-08T08:48:40Z</time>
      </trkpt>
      <trkpt lat="42.350750" lon="3.176570">
        <ele>36.943</ele>
        <time>2021-07-08T08:49:00Z</time>
      </trkpt>
      <trkpt lat="42.351610" lon="3.176420">
        <ele>36.812</ele>
        <time>2021-07-08T08:49:20Z</time>
      </trkpt>
      <trkpt lat="42.352200" lon="3.175840">
        <ele>36.571</ele>
        <time>2021-07-08T08:49:40Z</time>
      </trkpt>
      <trkpt lat="42.352730" lon="3.174720">
        <ele>37.591</ele>
        <time>2021-07-08T08:50:00Z</time>
      </trkpt>
      <trkpt lat="42.353430" lon="3.174620">
        <ele>36.953</ele>
        <time>2021-07-08T08:50:20Z</time>
      </trkpt>
      <trkpt lat="42.353840" lon="3.174350">
        <ele>36.926</ele>
        <time>2021-07-08T08:50:40Z</time>
      </trkpt>
      <trkpt lat="42.354360" lon="3.173190">
        <ele>36.935</ele>
        <time>2021-07-08T08:51:00Z</time>
      </trkpt>
      <trkpt lat="42.354120" lon="3.172280">
        <ele>36.116</ele>
        <time>2021-07-08T08:51:20Z</time>
      </trkpt>
      <trkpt lat="42.354310" lon="3.170800">
        <ele>36.057</ele>
        <time>2021-07-08T08:51:40Z</time>
      </trkpt>
      <trkpt lat="42.353860" lon="3.169280">
        <ele>36.800</ele>
        <time>2021-07-08T08:52:00Z</time>
      </trkpt>
      <trkpt lat="42.354160" lon="3.169180">
        <ele>37.820</ele>
        <time>2021-07-08T08:52:20Z</time>
      </trkpt>
      <trkpt lat="42.355040" lon="3.170180">
        <ele>34.808</ele>
        <time>2021-07-08T08:52:40Z</time>
      </trkpt>
      <trkpt lat="42.355650" lon="3.169610">
        <ele>35.892</ele>
        <time>2021-07-08T08:53:00Z</time>
      </trkpt>
      <trkpt lat="42.355840" lon="3.168580">
        <ele>36.111</ele>
        <time>2021-07-08T08:53:20Z</time>
      </trkpt>
      <trkpt lat="42.356340" lon="3.167260">
        <ele>36.030</ele>
        <time>2021-07-08T08:53:40Z</time>
      </trkpt>
      <trkpt lat="42.356350" lon="3.166560">
        <ele>36.130</ele>
        <time>2021-07-08T08:54:00Z</time>
      </trkpt>
      <trkpt lat="42.356570" lon="3.166460">
        <ele>37.262</ele>
        <time>2021-07-08T08:54:20Z</time>
      </trkpt>
      <trkpt lat="42.357240" lon="3.166750">
        <ele>35.495</ele>
        <time>2021-07-08T08:54:40Z</time>
      </trkpt>
      <trkpt lat="42.357410" lon="3.166700">
        <ele>35.114</ele>
        <time>2021-07-08T08:55:00Z</time>
      </trkpt>
      <trkpt lat="42.358670" lon="3.165730">
        <ele>35.285</ele>
        <time>2021-07-08T08:55:20Z</time>
      </trkpt>
      <trkpt lat="42.358890" lon="3.165410">
        <ele>35.151</ele>
        <time>2021-07-08T08:55:40Z</time>
      </trkpt>
      <trkpt lat="42.358950" lon="3.165110">
        <ele>34.601</ele>
        <time>2021-07-08T08:56:00Z</time>
      </trkpt>
      <trkpt lat="42.358740" lon="3.164200">
        <ele>36.311</ele>
        <time>2021-07-08T08:56:20Z</time>
      </trkpt>
      <trkpt lat="42.358830" lon="3.164010">
        <ele>36.308</ele>
        <time>2021-07-08T08:56:40Z</time>
      </trkpt>
      <trkpt lat="42.359240" lon="3.164040">
        <ele>34.892</ele>
        <time>2021-07-08T08:57:00Z</time>
      </trkpt>
      <trkpt lat="42.359410" lon="3.163850">
        <ele>34.811</ele>
        <time>2021-07-08T08:57:20Z</time>
      </trkpt>
      <trkpt lat="42.359520" lon="3.162570">
        <ele>36.050</ele>
        <time>2021-07-08T08:57:40Z</time>
      </trkpt>
      <trkpt lat="42.359730" lon="3.161910">
        <ele>36.060</ele>
        <time>2021-07-08T08:58:00Z</time>
      </trkpt>
      <trkpt lat="42.359890" lon="3.161840">
        <ele>37.812</ele>
        <time>2021-07-08T08:58:20Z</time>
      </trkpt>
      <trkpt lat="42.360270" lon="3.162000">
        <ele>35.485</ele>
        <time>2021-07-08T08:58:40Z</time>
      </trkpt>
      <trkpt lat="42.360840" lon="3.161900">
        <ele>36.594</ele>
        <time>2021-07-08T08:59:00Z</time>
      </trkpt>
      <trkpt lat="42.361240" lon="3.161340">
        <ele>40.435</ele>
        <time>2021-07-08T08:59:20Z</time>
      </trkpt>
      <trkpt lat="42.361860" lon="3.161660">
        <ele>38.711</ele>
        <time>2021-07-08T08:59:40Z</time>
      </trkpt>
      <trkpt lat="42.361970" lon="3.161480">
        <ele>38.321</ele>
        <time>2021-07-08T09:00:00Z</time>
      </trkpt>
      <trkpt lat="42.361940" lon="3.160830">
        <ele>36.203</ele>
        <time>2021-07-08T09:00:20Z</time>
      </trkpt>
      <trkpt lat="42.362250" lon="3.160400">
        <ele>34.508</ele>
        <time>2021-07-08T09:00:40Z</time>
      </trkpt>
      <trkpt lat="42.362390" lon="3.160300">
        <ele>35.038</ele>
        <time>2021-07-08T09:01:00Z</time>
      </trkpt>
      <trkpt lat="42.362820" lon="3.160390">
        <ele>32.447</ele>
        <time>2021-07-08T09:01:20Z</time>
      </trkpt>
      <trkpt lat="42.363360" lon="3.159960">
        <ele>31.846</ele>
        <time>2021-07-08T09:01:40Z</time>
      </trkpt>
      <trkpt lat="42.363970" lon="3.160130">
        <ele>29.326</ele>
        <time>2021-07-08T09:02:00Z</time>
      </trkpt>
      <trkpt lat="42.364430" lon="3.161080">
        <ele>24.348</ele>
        <time>2021-07-08T09:02:20Z</time>
      </trkpt>
      <trkpt lat="42.364700" lon="3.161350">
        <ele>23.381</ele>
        <time>2021-07-08T09:02:40Z</time>
      </trkpt>
      <trkpt lat="42.366390" lon="3.160690">
        <ele>17.540</ele>
        <time>2021-07-08T09:03:00Z</time>
      </trkpt>
      <trkpt lat="42.367290" lon="3.159800">
        <ele>12.581</ele>
        <time>2021-07-08T09:03:20Z</time>
      </trkpt>
      <trkpt lat="42.367790" lon="3.160760">
        <ele>7.743</ele>
        <time>2021-07-08T09:03:40Z</time>
      </trkpt>
      <trkpt lat="42.369580" lon="3.159740">
        <ele>2.064</ele>
        <time>2021-07-08T09:04:00Z</time>
      </trkpt>
      <trkpt lat="42.369980" lon="3.160670">
        <ele>2.010</ele>
        <time>2021-07-08T09:04:20Z</time>
      </trkpt>
      <trkpt lat="42.372130" lon="3.157700">
        <ele>2.108</ele>
        <time>2021-07-08T09:04:40Z</time>
      </trkpt>
      <trkpt lat="42.373080" lon="3.156940">
        <ele>2.121</ele>
        <time>2021-07-08T09:05:00Z</time>
      </trkpt>
      <trkpt lat="42.374070" lon="3.156570">
        <ele>2.010</ele>
        <time>2021-07-08T09:05:20Z</time>
      </trkpt>
      <trkpt lat="42.374140" lon="3.156170">
        <ele>2.079</ele>
        <time>2021-07-08T09:05:40Z</time>
      </trkpt>
      <trkpt lat="42.376840" lon="3.156470">
        <ele>6.589</ele>
        <time>2021-07-08T09:06:00Z</time>
      </trkpt>
      <trkpt lat="42.377900" lon="3.155720">
        <ele>9.381</ele>
        <time>2021-07-08T09:06:20Z</time>
      </trkpt>
      <trkpt lat="42.378350" lon="3.154900">
        <ele>10.584</ele>
        <time>2021-07-08T09:06:40Z</time>
      </trkpt>
      <trkpt lat="42.378640" lon="3.154680">
        <ele>9.123</ele>
        <time>2021-07-08T09:07:00Z</time>
      </trkpt>
      <trkpt lat="42.379990" lon="3.154800">
        <ele>8.154</ele>
        <time>2021-07-08T09:07:20Z</time>
      </trkpt>
      <trkpt lat="42.381180" lon="3.154410">
        <ele>4.917</ele>
        <time>2021-07-08T09:07:40Z</time>
      </trkpt>
      <trkpt lat="42.381590" lon="3.154530">
        <ele>4.587</ele>
        <time>2021-07-08T09:08:00Z</time>
      </trkpt>
      <trkpt lat="42.381850" lon="3.154870">
        <ele>4.715</ele>
        <time>2021-07-08T09:08:20Z</time>
      </trkpt>
      <trkpt lat="42.381950" lon="3.155350">
        <ele>6.408</ele>
        <time>2021-07-08T09:08:40Z</time>
      </trkpt>
      <trkpt lat="42.381830" lon="3.156930">
        <ele>15.938</ele>
        <time>2021-07-08T09:09:00Z</time>
      </trkpt>
      <trkpt lat="42.382400" lon="3.157310">
        <ele>15.697</ele>
        <time>2021-07-08T09:09:20Z</time>
      </trkpt>
      <trkpt lat="42.382880" lon="3.157330">
        <ele>17.466</ele>
        <time>2021-07-08T09:09:40Z</time>
      </trkpt>
      <trkpt lat="42.383250" lon="3.157590">
        <ele>16.466</ele>
        <time>2021-07-08T09:10:00Z</time>
      </trkpt>
      <trkpt lat="42.383920" lon="3.157190">
        <ele>15.868</ele>
        <time>2021-07-08T09:10:20Z</time>
      </trkpt>
      <trkpt lat="42.384250" lon="3.156240">
        <ele>14.781</ele>
        <time>2021-07-08T09:10:40Z</time>
      </trkpt>
      <trkpt lat="42.384590" lon="3.156160">
        <ele>14.540</ele>
        <time>2021-07-08T09:11:00Z</time>
      </trkpt>
      <trkpt lat="42.384780" lon="3.156420">
        <ele>13.231</ele>
        <time>2021-07-08T09:11:20Z</time>
      </trkpt>
      <trkpt lat="42.384900" lon="3.157230">
        <ele>16.852</ele>
        <time>2021-07-08T09:11:40Z</time>
      </trkpt>
      <trkpt lat="42.385300" lon="3.158340">
        <ele>17.253</ele>
        <time>2021-07-08T09:12:00Z</time>
      </trkpt>
      <trkpt lat="42.385550" lon="3.158590">
        <ele>17.208</ele>
        <time>2021-07-08T09:12:20Z</time>
      </trkpt>
      <trkpt lat="42.386750" lon="3.158360">
        <ele>21.108</ele>
        <time>2021-07-08T09:12:40Z</time>
      </trkpt>
      <trkpt lat="42.387160" lon="3.158120">
        <ele>24.182</ele>
        <time>2021-07-08T09:13:00Z</time>
      </trkpt>
      <trkpt lat="42.387630" lon="3.158300">
        <ele>26.421</ele>
        <time>2021-07-08T09:13:20Z</time>
      </trkpt>
      <trkpt lat="42.388410" lon="3.158160">
        <ele>30.560</ele>
        <time>2021-07-08T09:13:40Z</time>
      </trkpt>
      <trkpt lat="42.388770" lon="3.157880">
        <ele>30.970</ele>
        <time>2021-07-08T09:14:00Z</time>
      </trkpt>
      <trkpt lat="42.389250" lon="3.157150">
        <ele>31.692</ele>
        <time>2021-07-08T09:14:20Z</time>
      </trkpt>
      <trkpt lat="42.389670" lon="3.155780">
        <ele>33.295</ele>
        <time>2021-07-08T09:14:40Z</time>
      </trkpt>
      <trkpt lat="42.389690" lon="3.154940">
        <ele>35.374</ele>
        <time>2021-07-08T09:15:00Z</time>
      </trkpt>
      <trkpt lat="42.390550" lon="3.153670">
        <ele>34.935</ele>
        <time>2021-07-08T09:15:20Z</time>
      </trkpt>
      <trkpt lat="42.390580" lon="3.152430">
        <ele>27.956</ele>
        <time>2021-07-08T09:15:40Z</time>
      </trkpt>
      <trkpt lat="42.391090" lon="3.151930">
        <ele>21.359</ele>
        <time>2021-07-08T09:16:00Z</time>
      </trkpt>
      <trkpt lat="42.392840" lon="3.152140">
        <ele>11.314</ele>
        <time>2021-07-08T09:16:20Z</time>
      </trkpt>
      <trkpt lat="42.393730" lon="3.151810">
        <ele>6.808</ele>
        <time>2021-07-08T09:16:40Z</time>
      </trkpt>
      <trkpt lat="42.395180" lon="3.151760">
        <ele>5.442</ele>
        <time>2021-07-08T09:17:00Z</time>
      </trkpt>
      <trkpt lat="42.395380" lon="3.151880">
        <ele>5.581</ele>
        <time>2021-07-08T09:17:20Z</time>
      </trkpt>
      <trkpt lat="42.395490" lon="3.152240">
        <ele>8.660</ele>
        <time>2021-07-08T09:17:40Z</time>
      </trkpt>
      <trkpt lat="42.395250" lon="3.153440">
        <ele>13.290</ele>
        <time>2021-07-08T09:18:00Z</time>
      </trkpt>
      <trkpt lat="42.395320" lon="3.153740">
        <ele>17.052</ele>
        <time>2021-07-08T09:18:20Z</time>
      </trkpt>
      <trkpt lat="42.395510" lon="3.153870">
        <ele>18.175</ele>
        <time>2021-07-08T09:18:40Z</time>
      </trkpt>
      <trkpt lat="42.396060" lon="3.153800">
        <ele>22.724</ele>
        <time>2021-07-08T09:19:00Z</time>
      </trkpt>
      <trkpt lat="42.396300" lon="3.154600">
        <ele>27.935</ele>
        <time>2021-07-08T09:19:20Z</time>
      </trkpt>
      <trkpt lat="42.396480" lon="3.154790">
        <ele>29.662</ele>
        <time>2021-07-08T09:19:40Z</time>
      </trkpt>
      <trkpt lat="42.396800" lon="3.154820">
        <ele>31.983</ele>
        <time>2021-07-08T09:20:00Z</time>
      </trkpt>
      <trkpt lat="42.397560" lon="3.154510">
        <ele>37.911</ele>
        <time>2021-07-08T09:20:20Z</time>
      </trkpt>
      <trkpt lat="42.397770" lon="3.154290">
        <ele>40.308</ele>
        <time>2021-07-08T09:20:40Z</time>
      </trkpt>
      <trkpt lat="42.397780" lon="3.153980">
        <ele>43.333</ele>
        <time>2021-07-08T09:21:00Z</time>
      </trkpt>
      <trkpt lat="42.397600" lon="3.153730">
        <ele>49.332</ele>
        <time>2021-07-08T09:21:20Z</time>
      </trkpt>
      <trkpt lat="42.397050" lon="3.153640">
        <ele>49.141</ele>
        <time>2021-07-08T09:21:40Z</time>
      </trkpt>
      <trkpt lat="42.396920" lon="3.153280">
        <ele>50.381</ele>
        <time>2021-07-08T09:22:00Z</time>
      </trkpt>
      <trkpt lat="42.396990" lon="3.152980">
        <ele>51.473</ele>
        <time>2021-07-08T09:22:20Z</time>
      </trkpt>
      <trkpt lat="42.397530" lon="3.152550">
        <ele>56.266</ele>
        <time>2021-07-08T09:22:40Z</time>
      </trkpt>
      <trkpt lat="42.398560" lon="3.152050">
        <ele>64.115</ele>
        <time>2021-07-08T09:23:00Z</time>
      </trkpt>
      <trkpt lat="42.398740" lon="3.151720">
        <ele>65.796</ele>
        <time>2021-07-08T09:23:20Z</time>
      </trkpt>
      <trkpt lat="42.398990" lon="3.150310">
        <ele>70.778</ele>
        <time>2021-07-08T09:23:40Z</time>
      </trkpt>
      <trkpt lat="42.399360" lon="3.149460">
        <ele>68.833</ele>
        <time>2021-07-08T09:24:00Z</time>
      </trkpt>
      <trkpt lat="42.399770" lon="3.148960">
        <ele>64.226</ele>
        <time>2021-07-08T09:24:20Z</time>
      </trkpt>
      <trkpt lat="42.400420" lon="3.148830">
        <ele>59.808</ele>
        <time>2021-07-08T09:24:40Z</time>
      </trkpt>
      <trkpt lat="42.400690" lon="3.148450">
        <ele>56.664</ele>
        <time>2021-07-08T09:25:00Z</time>
      </trkpt>
      <trkpt lat="42.400870" lon="3.147560">
        <ele>51.383</ele>
        <time>2021-07-08T09:25:20Z</time>
      </trkpt>
      <trkpt lat="42.400850" lon="3.146720">
        <ele>46.082</ele>
        <time>2021-07-08T09:25:40Z</time>
      </trkpt>
      <trkpt lat="42.401410" lon="3.146010">
        <ele>39.732</ele>
        <time>2021-07-08T09:26:00Z</time>
      </trkpt>
      <trkpt lat="42.401600" lon="3.145420">
        <ele>36.954</ele>
        <time>2021-07-08T09:26:20Z</time>
      </trkpt>
      <trkpt lat="42.401510" lon="3.144570">
        <ele>31.267</ele>
        <time>2021-07-08T09:26:40Z</time>
      </trkpt>
      <trkpt lat="42.401070" lon="3.143360">
        <ele>25.326</ele>
        <time>2021-07-08T09:27:00Z</time>
      </trkpt>
      <trkpt lat="42.401270" lon="3.143040">
        <ele>23.617</ele>
        <time>2021-07-08T09:27:20Z</time>
      </trkpt>
      <trkpt lat="42.401480" lon="3.143150">
        <ele>23.712</ele>
        <time>2021-07-08T09:27:40Z</time>
      </trkpt>
      <trkpt lat="42.402430" lon="3.144640">
        <ele>17.532</ele>
        <time>2021-07-08T09:28:00Z</time>
      </trkpt>
      <trkpt lat="42.403590" lon="3.144370">
        <ele>15.805</ele>
        <time>2021-07-08T09:28:20Z</time>
      </trkpt>
      <trkpt lat="42.403810" lon="3.144590">
        <ele>16.008</ele>
        <time>2021-07-08T09:28:40Z</time>
      </trkpt>
      <trkpt lat="42.404130" lon="3.147220">
        <ele>19.138</ele>
        <time>2021-07-08T09:29:00Z</time>
      </trkpt>
      <trkpt lat="42.404310" lon="3.147420">
        <ele>20.697</ele>
        <time>2021-07-08T09:29:20Z</time>
      </trkpt>
      <trkpt lat="42.404840" lon="3.147510">
        <ele>21.646</ele>
        <time>2021-07-08T09:29:40Z</time>
      </trkpt>
      <trkpt lat="42.405100" lon="3.147990">
        <ele>19.756</ele>
        <time>2021-07-08T09:30:00Z</time>
      </trkpt>
      <trkpt lat="42.404960" lon="3.148520">
        <ele>25.718</ele>
        <time>2021-07-08T09:30:20Z</time>
      </trkpt>
      <trkpt lat="42.404480" lon="3.148880">
        <ele>26.641</ele>
        <time>2021-07-08T09:30:40Z</time>
      </trkpt>
      <trkpt lat="42.404390" lon="3.149360">
        <ele>29.740</ele>
        <time>2021-07-08T09:31:00Z</time>
      </trkpt>
      <trkpt lat="42.404660" lon="3.150540">
        <ele>34.771</ele>
        <time>2021-07-08T09:31:20Z</time>
      </trkpt>
      <trkpt lat="42.405570" lon="3.152750">
        <ele>38.596</ele>
        <time>2021-07-08T09:31:40Z</time>
      </trkpt>
      <trkpt lat="42.405950" lon="3.152730">
        <ele>39.531</ele>
        <time>2021-07-08T09:32:00Z</time>
      </trkpt>
      <trkpt lat="42.406380" lon="3.152210">
        <ele>37.224</ele>
        <time>2021-07-08T09:32:20Z</time>
      </trkpt>
      <trkpt lat="42.406890" lon="3.152310">
        <ele>38.908</ele>
        <time>2021-07-08T09:32:40Z</time>
      </trkpt>
      <trkpt lat="42.407170" lon="3.152670">
        <ele>35.866</ele>
        <time>2021-07-08T09:33:00Z</time>
      </trkpt>
      <trkpt lat="42.407240" lon="3.153850">
        <ele>36.885</ele>
        <time>2021-07-08T09:33:20Z</time>
      </trkpt>
      <trkpt lat="42.407450" lon="3.154130">
        <ele>38.094</ele>
        <time>2021-07-08T09:33:40Z</time>
      </trkpt>
      <trkpt lat="42.407800" lon="3.154220">
        <ele>38.744</ele>
        <time>2021-07-08T09:34:00Z</time>
      </trkpt>
      <trkpt lat="42.408250" lon="3.154020">
        <ele>41.916</ele>
        <time>2021-07-08T09:34:20Z</time>
      </trkpt>
      <trkpt lat="42.408960" lon="3.152520">
        <ele>47.169</ele>
        <time>2021-07-08T09:34:40Z</time>
      </trkpt>
      <trkpt lat="42.409410" lon="3.152310">
        <ele>46.458</ele>
        <time>2021-07-08T09:35:00Z</time>
      </trkpt>
      <trkpt lat="42.409640" lon="3.152590">
        <ele>48.289</ele>
        <time>2021-07-08T09:35:20Z</time>
      </trkpt>
      <trkpt lat="42.409970" lon="3.154100">
        <ele>53.998</ele>
        <time>2021-07-08T09:35:40Z</time>
      </trkpt>
      <trkpt lat="42.410650" lon="3.155120">
        <ele>59.915</ele>
        <time>2021-07-08T09:36:00Z</time>
      </trkpt>
      <trkpt lat="42.411080" lon="3.155430">
        <ele>63.226</ele>
        <time>2021-07-08T09:36:20Z</time>
      </trkpt>
      <trkpt lat="42.411410" lon="3.155310">
        <ele>64.708</ele>
        <time>2021-07-08T09:36:40Z</time>
      </trkpt>
      <trkpt lat="42.412080" lon="3.154050">
        <ele>75.116</ele>
        <time>2021-07-08T09:37:00Z</time>
      </trkpt>
      <trkpt lat="42.412450" lon="3.153960">
        <ele>74.375</ele>
        <time>2021-07-08T09:37:20Z</time>
      </trkpt>
      <trkpt lat="42.412630" lon="3.154340">
        <ele>75.214</ele>
        <time>2021-07-08T09:37:40Z</time>
      </trkpt>
      <trkpt lat="42.412690" lon="3.156730">
        <ele>83.554</ele>
        <time>2021-07-08T09:38:00Z</time>
      </trkpt>
      <trkpt lat="42.413310" lon="3.157300">
        <ele>84.956</ele>
        <time>2021-07-08T09:38:20Z</time>
      </trkpt>
      <trkpt lat="42.413500" lon="3.158250">
        <ele>85.179</ele>
        <time>2021-07-08T09:38:40Z</time>
      </trkpt>
      <trkpt lat="42.413850" lon="3.158950">
        <ele>88.218</ele>
        <time>2021-07-08T09:39:00Z</time>
      </trkpt>
      <trkpt lat="42.414640" lon="3.159400">
        <ele>88.839</ele>
        <time>2021-07-08T09:39:20Z</time>
      </trkpt>
      <trkpt lat="42.415140" lon="3.160100">
        <ele>93.283</ele>
        <time>2021-07-08T09:39:40Z</time>
      </trkpt>
      <trkpt lat="42.416590" lon="3.160890">
        <ele>118.825</ele>
        <time>2021-07-08T09:40:00Z</time>
      </trkpt>
      <trkpt lat="42.422340" lon="3.160910">
        <ele>99.517</ele>
        <time>2021-07-08T09:40:20Z</time>
      </trkpt>
      <trkpt lat="42.422900" lon="3.161340">
        <ele>85.208</ele>
        <time>2021-07-08T09:40:40Z</time>
      </trkpt>
      <trkpt lat="42.423280" lon="3.162130">
        <ele>85.885</ele>
        <time>2021-07-08T09:41:00Z</time>
      </trkpt>
      <trkpt lat="42.423770" lon="3.164750">
        <ele>79.674</ele>
        <time>2021-07-08T09:41:20Z</time>
      </trkpt>
      <trkpt lat="42.424060" lon="3.165060">
        <ele>75.943</ele>
        <time>2021-07-08T09:41:40Z</time>
      </trkpt>
      <trkpt lat="42.424410" lon="3.165110">
        <ele>66.033</ele>
        <time>2021-07-08T09:42:00Z</time>
      </trkpt>
      <trkpt lat="42.424830" lon="3.164850">
        <ele>60.725</ele>
        <time>2021-07-08T09:42:20Z</time>
      </trkpt>
      <trkpt lat="42.425630" lon="3.163240">
        <ele>50.858</ele>
        <time>2021-07-08T09:42:40Z</time>
      </trkpt>
      <trkpt lat="42.425440" lon="3.162870">
        <ele>45.267</ele>
        <time>2021-07-08T09:43:00Z</time>
      </trkpt>
      <trkpt lat="42.424970" lon="3.162690">
        <ele>40.478</ele>
        <time>2021-07-08T09:43:20Z</time>
      </trkpt>
      <trkpt lat="42.424380" lon="3.162890">
        <ele>37.542</ele>
        <time>2021-07-08T09:43:40Z</time>
      </trkpt>
      <trkpt lat="42.424180" lon="3.162790">
        <ele>34.122</ele>
        <time>2021-07-08T09:44:00Z</time>
      </trkpt>
      <trkpt lat="42.424310" lon="3.161430">
        <ele>27.714</ele>
        <time>2021-07-08T09:44:20Z</time>
      </trkpt>
      <trkpt lat="42.425230" lon="3.160780">
        <ele>20.108</ele>
        <time>2021-07-08T09:44:40Z</time>
      </trkpt>
      <trkpt lat="42.425270" lon="3.161020">
        <ele>16.211</ele>
        <time>2021-07-08T09:45:00Z</time>
      </trkpt>
      <trkpt lat="42.424780" lon="3.161630">
        <ele>12.920</ele>
        <time>2021-07-08T09:45:20Z</time>
      </trkpt>
      <trkpt lat="42.424810" lon="3.161850">
        <ele>13.199</ele>
        <time>2021-07-08T09:45:40Z</time>
      </trkpt>
      <trkpt lat="42.424960" lon="3.161880">
        <ele>12.519</ele>
        <time>2021-07-08T09:46:00Z</time>
      </trkpt>
      <trkpt lat="42.425710" lon="3.161330">
        <ele>4.661</ele>
        <time>2021-07-08T09:46:20Z</time>
      </trkpt>
      <trkpt lat="42.425710" lon="3.160220">
        <ele>6.934</ele>
        <time>2021-07-08T09:46:40Z</time>
      </trkpt>
      <trkpt lat="42.427050" lon="3.160460">
        <ele>3.153</ele>
        <time>2021-07-08T09:47:00Z</time>
      </trkpt>
      <trkpt lat="42.427130" lon="3.159770">
        <ele>4.074</ele>
        <time>2021-07-08T09:47:20Z</time>
      </trkpt>
    </trkseg>
  </trk>
</gpx>
